[[{"header":{"parameterUnit":"m.s-1","parameterCategory":1,"la1":30.6,"la2":28.766,"lo1":-90.7593,"lo2":-88.6598,"dy":0.0162,"dx":0.0183,"nx":116,"ny":114,"refTime":"2023-03-08T06:00:00:Z","depth":0,"parameterNumber":2,"parameterNumberName":"U-component_of_WINDS"},"data":[0.0,0.0,0.0,0.0,0.0,0.0,0.0,0.0,0.0,0.0,0.0,0.0,0.0,0.0,0.0,0.0,0.0,0.0,0.0,0.0,0.0,0.0,0.0,0.0,0.0,0.0,0.0,0.0,0.0,0.0,0.0,0.0,0.0,0.0,0.0,0.0,0.0,0.0,0.0,0.0,0.0,0.0,0.0,0.0,0.0,0.0,0.0,0.0,0.0,0.0,0.0,0.0,0.0,0.0,0.0,0.0,0.0,0.0,0.0,0.0,0.0,0.0,0.0,0.0,0.0,0.0,0.0,0.0,0.0,0.0,0.0,0.0,0.0,0.0,0.0,0.0,0.0,0.0,0.0,0.0,0.0,0.0,0.0,0.0,0.0,0.0,0.0,0.0,0.0,0.0,0.0,0.0,0.0,0.0,0.0,0.0,0.0,0.0,0.0,0.0,0.0,0.0,0.0,0.0,0.0,0.0,0.0,0.0,0.0,0.0,0.0,0.0,0.0,0.0,0.0,0.0,0.0,0.0,0.0,0.0,0.0,0.0,0.0,0.0,0.0,0.0,0.0,0.0,0.0,0.0,0.0,0.0,0.0,0.0,0.0,0.0,0.0,0.0,0.0,0.0,0.0,0.0,0.0,0.0,0.0,0.0,0.0,0.0,0.0,0.0,0.0,0.0,0.0,0.0,0.0,0.0,0.0,0.0,0.0,0.0,0.0,0.0,0.0,0.0,0.0,0.0,0.0,0.0,0.0,0.0,0.0,0.0,0.0,0.0,0.0,0.0,0.0,0.0,0.0,0.0,0.0,0.0,0.0,0.0,0.0,0.0,0.0,0.0,0.0,0.0,0.0,0.0,0.0,0.0,0.0,0.0,0.0,0.0,0.0,0.0,0.0,0.0,0.0,0.0,0.0,0.0,0.0,0.0,0.0,0.0,0.0,0.0,0.0,0.0,0.0,0.0,0.0,0.0,0.0,0.0,0.0,0.0,0.0,0.0,0.0,0.0,0.0,0.0,0.0,0.0,0.0,0.0,0.0,0.0,0.0,0.0,0.0,0.0,0.0,0.0,0.0,0.0,0.0,0.0,0.0,0.0,0.0,0.0,0.0,0.0,0.0,0.0,0.0,0.0,0.0,0.0,0.0,0.0,0.0,0.0,0.0,0.0,0.0,0.0,0.0,0.0,0.0,0.0,0.0,0.0,0.0,0.0,0.0,0.0,0.0,0.0,0.0,0.0,0.0,0.0,0.0,0.0,0.0,0.0,0.0,0.0,0.0,0.0,0.0,0.0,0.0,0.0,0.0,0.0,0.0,0.0,0.0,0.0,0.0,0.0,0.0,0.0,0.0,0.0,0.0,0.0,0.0,0.0,0.0,0.0,0.0,0.0,0.0,0.0,0.0,0.0,0.0,0.0,0.0,0.0,0.0,0.0,0.0,0.0,0.0,0.0,0.0,0.0,0.0,0.0,0.0,0.0,0.0,0.0,0.0,0.0,0.0,0.0,0.0,0.0,0.0,0.0,0.0,0.0,0.0,0.0,0.0,0.0,0.0,0.0,0.0,0.0,0.0,0.0,0.0,0.0,0.0,0.0,0.0,0.0,0.0,0.0,0.0,0.0,0.0,0.0,0.0,0.0,0.0,0.0,0.0,0.0,0.0,0.0,0.0,0.0,0.0,0.0,0.0,0.0,0.0,0.0,0.0,0.0,0.0,0.0,0.0,0.0,0.0,0.0,0.0,0.0,0.0,0.0,0.0,0.0,0.0,0.0,0.0,0.0,0.0,0.0,0.0,0.0,0.0,0.0,0.0,0.0,0.0,0.0,0.0,0.0,0.0,0.0,0.0,0.0,0.0,0.0,0.0,0.0,0.0,0.0,0.0,0.0,0.0,0.0,0.0,0.0,0.0,0.0,0.0,0.0,0.0,0.0,0.0,0.0,0.0,0.0,0.0,0.0,0.0,0.0,0.0,0.0,0.0,0.0,0.0,0.0,0.0,0.0,0.0,0.0,0.0,0.0,0.0,0.0,0.0,0.0,0.0,0.0,0.0,0.0,0.0,0.0,0.0,0.0,0.0,0.0,0.0,0.0,0.0,0.0,0.0,0.0,0.0,0.0,0.0,0.0,0.0,0.0,0.0,0.0,0.0,0.0,0.0,0.0,0.0,0.0,0.0,0.0,0.0,0.0,0.0,0.0,0.0,0.0,0.0,0.0,0.0,0.0,0.0,0.0,0.0,0.0,0.0,0.0,0.0,0.0,0.0,0.0,0.0,0.0,0.0,0.0,0.0,0.0,0.0,0.0,0.0,0.0,0.0,0.0,0.0,0.0,0.0,0.0,0.0,0.0,0.0,0.0,0.0,0.0,0.0,0.0,0.0,0.0,0.0,0.0,0.0,0.0,0.0,0.0,0.0,0.0,0.0,0.0,0.0,0.0,0.0,0.0,0.0,0.0,0.0,0.0,0.0,0.0,0.0,0.0,0.0,0.0,0.0,0.0,0.0,0.0,0.0,0.0,0.0,0.0,0.0,0.0,0.0,0.0,0.0,0.0,0.0,0.0,0.0,0.0,0.0,0.0,0.0,0.0,0.0,0.0,0.0,0.0,0.0,0.0,0.0,0.0,0.0,0.0,0.0,0.0,0.0,0.0,0.0,0.0,0.0,0.0,0.0,0.0,0.0,0.0,0.0,0.0,0.0,0.0,0.0,0.0,0.0,0.0,0.0,0.0,0.0,0.0,0.0,0.0,0.0,0.0,0.0,0.0,0.0,0.0,0.0,0.0,0.0,0.0,0.0,0.0,0.0,0.0,0.0,0.0,0.0,0.0,0.0,0.0,0.0,0.0,0.0,0.0,0.0,0.0,0.0,0.0,0.0,0.0,0.0,0.0,0.0,0.0,0.0,0.0,0.0,0.0,0.0,0.0,0.0,0.0,0.0,0.0,0.0,0.0,0.0,0.0,0.0,0.0,0.0,0.0,0.0,0.0,0.0,0.0,0.0,0.0,0.0,0.0,0.0,0.0,0.0,0.0,0.0,0.0,0.0,0.0,0.0,0.0,0.0,0.0,0.0,0.0,0.0,0.0,0.0,0.0,0.0,0.0,0.0,0.0,0.0,0.0,0.0,0.0,0.0,0.0,0.0,0.0,0.0,0.0,0.0,0.0,0.0,0.0,0.0,0.0,0.0,0.0,0.0,0.0,0.0,0.0,0.0,0.0,0.0,0.0,0.0,0.0,0.0,0.0,0.0,0.0,0.0,0.0,0.0,0.0,0.0,0.0,0.0,0.0,0.0,0.0,0.0,0.0,0.0,0.0,0.0,0.0,0.0,0.0,0.0,0.0,0.0,0.0,0.0,0.0,0.0,0.0,0.0,0.0,0.0,0.0,0.0,0.0,0.0,0.0,0.0,0.0,0.0,0.0,0.0,0.0,0.0,0.0,0.0,0.0,0.0,0.0,0.0,0.0,0.0,0.0,0.0,0.0,0.0,0.0,0.0,0.0,0.0,0.0,0.0,0.0,0.0,0.0,0.0,0.0,0.0,0.0,0.0,0.0,0.0,0.0,0.0,0.0,0.0,0.0,0.0,0.0,0.0,0.0,0.0,0.0,0.0,0.0,0.0,0.0,0.0,0.0,0.0,0.0,0.0,0.0,0.0,0.0,0.0,0.0,0.0,0.0,0.0,0.0,0.0,0.0,0.0,0.0,0.0,0.0,0.0,0.0,0.0,0.0,0.0,0.0,0.0,0.0,0.0,0.0,0.0,0.0,0.0,0.0,0.0,0.0,0.0,0.0,0.0,0.0,0.0,0.0,0.0,0.0,0.0,0.0,0.0,0.0,0.0,0.0,0.0,0.0,0.0,0.0,0.0,0.0,0.0,0.0,0.0,0.0,0.0,0.0,0.0,0.0,0.0,0.0,0.0,0.0,0.0,0.0,0.0,0.0,0.0,0.0,0.0,0.0,0.0,0.0,0.0,0.0,0.0,0.0,0.0,0.0,0.0,0.0,0.0,0.0,0.0,0.0,0.0,0.0,0.0,0.0,0.0,0.0,0.0,0.0,0.0,0.0,0.0,0.0,0.0,0.0,0.0,0.0,0.0,0.0,0.0,0.0,0.0,0.0,0.0,0.0,0.0,0.0,0.0,0.0,0.0,0.0,0.0,0.0,0.0,0.0,0.0,0.0,0.0,0.0,0.0,0.0,0.0,0.0,0.0,0.0,0.0,0.0,0.0,0.0,0.0,0.0,0.0,0.0,0.0,0.0,0.0,0.0,0.0,0.0,0.0,0.0,0.0,0.0,0.0,0.0,0.0,0.0,0.0,0.0,0.0,0.0,0.0,0.0,0.0,0.0,0.0,0.0,0.0,0.0,0.0,0.0,0.0,0.0,0.0,0.0,0.0,0.0,0.0,0.0,0.0,0.0,0.0,0.0,0.0,0.0,0.0,0.0,0.0,0.0,0.0,0.0,0.0,0.0,0.0,0.0,0.0,0.0,0.0,0.0,0.0,0.0,0.0,0.0,0.0,0.0,0.0,0.0,0.0,0.0,0.0,0.0,0.0,0.0,0.0,0.0,0.0,0.0,0.0,0.0,0.0,0.0,0.0,0.0,0.0,0.0,0.0,0.0,0.0,0.0,0.0,0.0,0.0,0.0,0.0,0.0,0.0,0.0,0.0,0.0,0.0,0.0,0.0,0.0,0.0,0.0,0.0,0.0,0.0,0.0,0.0,0.0,0.0,0.0,0.0,0.0,0.0,0.0,0.0,0.0,0.0,0.0,0.0,0.0,0.0,0.0,0.0,0.0,0.0,0.0,0.0,0.0,0.0,0.0,0.0,0.0,0.0,0.0,0.0,0.0,0.0,0.0,0.0,0.0,0.0,0.0,0.0,0.0,0.0,0.0,0.0,0.0,0.0,0.0,0.0,0.0,0.0,0.0,0.0,0.0,0.0,0.0,0.0,0.0,0.0,0.0,0.0,0.0,0.0,0.0,0.0,0.0,0.0,0.0,0.0,0.0,0.0,0.0,0.0,0.0,0.0,0.0,0.0,0.0,0.0,0.0,0.0,0.0,0.0,0.0,0.0,0.0,0.0,0.0,0.0,0.0,0.0,0.0,0.0,0.0,0.0,0.0,0.0,0.0,0.0,0.0,0.0,0.0,0.0,0.0,0.0,0.0,0.0,0.0,0.0,0.0,0.0,0.0,0.0,0.0,0.0,0.0,0.0,0.0,0.0,0.0,0.0,0.0,0.0,0.0,0.0,0.0,0.0,0.0,0.0,0.0,0.0,0.0,0.0,0.0,0.0,0.0,0.0,0.0,0.0,0.0,0.0,0.0,0.0,0.0,0.0,0.0,0.0,0.0,0.0,0.0,0.0,0.0,0.0,0.0,0.0,0.0,0.0,0.0,0.0,0.0,0.0,0.0,0.0,0.0,0.0,0.0,0.0,0.0,0.0,0.0,0.0,0.0,0.0,0.0,0.0,0.0,0.0,0.0,0.0,0.0,0.0,0.0,0.0,0.0,0.0,0.0,0.0,0.0,0.0,0.0,0.0,0.0,0.0,0.0,0.0,0.0,0.0,0.0,0.0,0.0,0.0,0.0,0.0,0.0,0.0,0.0,0.0,0.0,0.0,0.0,0.0,0.0,0.0,0.0,0.0,0.0,0.0,0.0,0.0,0.0,0.0,0.0,0.0,0.0,0.0,0.0,0.0,0.0,0.0,0.0,0.0,0.0,0.0,0.0,0.0,0.0,0.0,0.0,0.0,0.0,0.0,0.0,0.0,0.0,0.0,0.0,0.0,0.0,0.0,0.0,0.0,0.0,0.0,0.0,0.0,0.0,0.0,0.0,0.0,0.0,0.0,0.0,0.0,0.0,0.0,0.0,0.0,0.0,0.0,0.0,0.0,0.0,0.0,0.0,0.0,0.0,0.0,0.0,0.0,0.0,0.0,0.0,0.0,0.0,0.0,0.0,0.0,0.0,0.0,0.0,0.0,0.0,0.0,0.0,0.0,0.0,0.0,0.0,0.0,0.0,0.0,0.0,0.0,0.0,0.0,0.0,0.0,0.0,0.0,0.0,0.0,0.0,0.0,0.0,0.0,0.0,0.0,0.0,0.0,0.0,8.0312,0.0,0.0,0.0,0.0,0.0,0.0,0.0,0.0,0.0,0.0,0.0,0.0,0.0,0.0,0.0,0.0,0.0,0.0,0.0,0.0,0.0,0.0,0.0,0.0,0.0,0.0,0.0,0.0,0.0,0.0,0.0,0.0,0.0,0.0,0.0,0.0,0.0,0.0,0.0,0.0,0.0,0.0,0.0,0.0,0.0,0.0,0.0,0.0,0.0,0.0,0.0,0.0,0.0,0.0,0.0,0.0,0.0,0.0,0.0,0.0,0.0,0.0,0.0,0.0,0.0,0.0,0.0,0.0,0.0,0.0,0.0,0.0,0.0,0.0,0.0,0.0,0.0,0.0,0.0,0.0,0.0,0.0,0.0,0.0,0.0,0.0,0.0,0.0,0.0,0.0,0.0,0.0,0.0,0.0,0.0,0.0,0.0,0.0,0.0,0.0,0.0,0.0,0.0,0.0,0.0,0.0,0.0,0.0,0.0,0.0,0.0,0.0,0.0,0.0,0.0,0.0,8.0937,0.0,0.0,0.0,0.0,0.0,0.0,0.0,0.0,0.0,0.0,0.0,0.0,0.0,0.0,0.0,0.0,0.0,0.0,0.0,0.0,0.0,0.0,0.0,0.0,0.0,0.0,0.0,0.0,0.0,0.0,0.0,0.0,0.0,0.0,0.0,0.0,0.0,0.0,0.0,0.0,0.0,0.0,0.0,0.0,0.0,0.0,0.0,0.0,0.0,0.0,0.0,0.0,0.0,0.0,0.0,0.0,0.0,0.0,0.0,0.0,0.0,0.0,0.0,0.0,0.0,0.0,0.0,0.0,0.0,0.0,0.0,0.0,0.0,0.0,0.0,0.0,0.0,0.0,0.0,0.0,0.0,0.0,0.0,0.0,0.0,0.0,0.0,0.0,0.0,0.0,0.0,0.0,0.0,0.0,0.0,0.0,0.0,0.0,0.0,0.0,0.0,0.0,0.0,0.0,0.0,0.0,0.0,0.0,8.2304,8.2304,8.2304,8.2304,8.2304,8.2304,8.2304,8.2304,8.2304,8.2304,0.0,0.0,0.0,0.0,0.0,0.0,0.0,0.0,0.0,0.0,0.0,0.0,0.0,0.0,0.0,0.0,0.0,0.0,0.0,0.0,0.0,0.0,0.0,0.0,0.0,0.0,0.0,0.0,0.0,0.0,0.0,0.0,0.0,0.0,0.0,0.0,0.0,0.0,6.7013,6.7128,6.8038,6.9656,0.0,0.0,0.0,0.0,0.0,0.0,0.0,0.0,0.0,0.0,0.0,0.0,0.0,0.0,0.0,0.0,0.0,0.0,0.0,0.0,0.0,0.0,0.0,0.0,0.0,0.0,0.0,0.0,0.0,0.0,0.0,0.0,0.0,0.0,0.0,0.0,0.0,0.0,0.0,0.0,0.0,0.0,0.0,0.0,7.7461,7.8242,0.0,0.0,0.0,0.0,0.0,0.0,0.0,0.0,0.0,0.0,0.0,0.0,0.0,8.2187,8.2304,8.2304,8.2304,8.2304,8.2304,8.2304,8.2304,8.2304,8.2304,8.2304,8.2304,0.0,8.2304,8.2304,0.0,0.0,0.0,0.0,0.0,0.0,0.0,0.0,0.0,0.0,0.0,0.0,0.0,0.0,0.0,0.0,0.0,0.0,0.0,0.0,0.0,0.0,0.0,0.0,0.0,0.0,0.0,0.0,0.0,0.0,0.0,0.0,0.0,0.0,0.0,0.0,6.6551,6.6821,6.7128,6.809,6.9013,6.9809,7.0351,7.0733,7.0965,7.1334,0.0,0.0,0.0,0.0,0.0,0.0,0.0,0.0,0.0,0.0,0.0,0.0,0.0,0.0,0.0,0.0,0.0,0.0,0.0,0.0,0.0,0.0,0.0,0.0,0.0,0.0,0.0,0.0,0.0,0.0,0.0,0.0,0.0,0.0,0.0,0.0,0.0,0.0,0.0,7.793,7.8242,7.9062,7.918,7.9297,0.0,0.0,0.0,0.0,0.0,0.0,0.0,0.0,0.0,8.2304,8.2304,8.2304,8.2304,8.2304,8.2304,8.2304,8.2304,8.2304,8.2304,8.2304,8.2304,8.2304,8.2304,8.2304,8.2304,8.2304,8.2304,8.2304,0.0,0.0,0.0,0.0,8.2304,8.2304,0.0,0.0,0.0,0.0,0.0,0.0,0.0,0.0,0.0,0.0,0.0,0.0,0.0,0.0,0.0,6.5897,0.0,0.0,0.0,0.0,0.0,0.0,0.0,0.0,0.0,0.0,0.0,0.0,6.6859,6.7321,6.7782,6.909,6.9821,7.0014,7.0629,7.1052,7.1349,7.1349,7.1426,0.0,0.0,0.0,0.0,0.0,0.0,0.0,0.0,0.0,0.0,0.0,0.0,0.0,0.0,0.0,0.0,0.0,0.0,0.0,0.0,0.0,0.0,0.0,0.0,0.0,0.0,0.0,0.0,0.0,0.0,0.0,0.0,0.0,0.0,0.0,0.0,0.0,0.0,7.8828,7.9101,7.9922,8.0039,8.0117,0.0,0.0,0.0,0.0,0.0,0.0,8.2304,8.2304,8.2304,8.2304,8.2304,8.2304,8.2304,8.2304,8.2304,8.2304,8.2304,8.2304,8.2304,8.2304,8.2304,8.2304,8.2304,8.2304,8.2304,8.2304,8.2304,8.2304,8.2304,8.2304,8.2304,8.2304,8.2304,8.2304,0.0,0.0,0.0,0.0,0.0,0.0,0.0,0.0,0.0,0.0,0.0,0.0,0.0,0.0,6.5897,6.5897,6.5897,6.5936,0.0,0.0,0.0,0.0,0.0,0.0,0.0,0.0,0.0,6.7051,6.709,6.7936,6.959,6.9667,7.0129,7.0821,7.0898,7.0898,7.0937,7.0937,7.1052,7.1222,0.0,0.0,0.0,0.0,0.0,0.0,0.0,0.0,0.0,0.0,0.0,0.0,0.0,0.0,0.0,0.0,0.0,0.0,0.0,0.0,0.0,0.0,0.0,0.0,0.0,0.0,0.0,0.0,0.0,0.0,0.0,0.0,0.0,0.0,0.0,0.0,0.0,0.0,0.0,8.082,8.0937,0.0,0.0,0.0,0.0,8.2226,8.2265,8.2304,8.2304,8.2304,8.2304,8.2304,8.2304,8.2304,8.2304,8.2304,8.2304,8.2304,8.2304,8.2304,8.2304,8.2304,8.2304,8.2304,8.2304,8.2304,8.2304,8.2304,8.2304,8.2304,8.2304,8.2304,8.2304,8.2304,8.2304,8.2304,0.0,0.0,0.0,0.0,0.0,0.0,0.0,0.0,0.0,0.0,0.0,0.0,0.0,6.5897,6.5897,6.5897,6.5897,6.5897,6.5974,0.0,0.0,0.0,0.0,0.0,0.0,0.0,6.6859,6.709,6.8205,6.909,6.9706,7.0244,7.0629,7.0898,7.0898,7.0898,7.0898,7.0898,7.1014,7.1195,7.1197,7.1352,0.0,0.0,0.0,0.0,0.0,0.0,0.0,0.0,0.0,0.0,0.0,0.0,0.0,0.0,0.0,0.0,0.0,0.0,0.0,0.0,0.0,0.0,0.0,0.0,0.0,0.0,0.0,0.0,0.0,0.0,0.0,0.0,0.0,0.0,0.0,0.0,0.0,8.1719,8.1836,0.0,8.2265,8.2304,8.2304,8.2304,8.2304,8.2304,8.2304,8.2304,8.2304,8.2304,8.2304,8.2304,8.2304,8.2304,8.2304,8.2304,8.2304,8.2304,8.2304,8.2304,8.2304,8.2304,8.2304,8.2304,8.2304,8.2304,8.2304,8.2304,8.2304,8.2304,8.2304,8.2304,8.2304,8.2304,0.0,0.0,0.0,0.0,0.0,0.0,0.0,0.0,0.0,0.0,0.0,6.5897,6.5897,6.5897,6.5897,6.5897,6.5897,6.5897,6.5897,0.0,0.0,0.0,0.0,0.0,0.0,6.6898,6.7398,6.7975,6.9129,6.986,7.0129,7.0667,7.0898,7.0898,7.0898,7.0898,7.0898,7.0898,7.0975,7.1091,7.1091,7.1206,7.1428,0.0,0.0,0.0,0.0,0.0,0.0,0.0,0.0,0.0,0.0,0.0,0.0,0.0,0.0,0.0,0.0,0.0,0.0,0.0,0.0,0.0,0.0,0.0,0.0,0.0,0.0,0.0,0.0,0.0,0.0,0.0,0.0,0.0,0.0,0.0,8.164,8.2226,8.2304,8.2304,8.2304,8.2304,8.2304,8.2304,8.2304,8.2304,8.2304,8.2304,8.2304,8.2304,8.2304,8.2304,8.2304,8.2304,8.2304,8.2304,8.2304,8.2304,8.2304,8.2304,8.2304,8.2304,8.2617,8.2734,8.2773,8.3047,8.3164,8.3125,8.2539,8.2304,8.2304,8.2304,8.2304,8.2304,0.0,0.0,0.0,0.0,0.0,0.0,0.0,0.0,0.0,0.0,6.5897,6.5897,6.5897,6.5897,6.5897,6.5897,6.5897,6.5897,6.5897,6.6013,0.0,0.0,0.0,0.0,6.7359,6.7244,6.8013,6.9706,6.9744,7.0129,7.0898,7.0898,7.0898,7.0898,7.0898,7.0898,7.0898,7.0898,7.0898,7.0898,7.0898,7.1014,7.1321,0.0,0.0,0.0,0.0,0.0,0.0,0.0,0.0,0.0,0.0,0.0,0.0,0.0,0.0,0.0,0.0,0.0,0.0,0.0,0.0,0.0,0.0,0.0,0.0,0.0,0.0,0.0,0.0,0.0,0.0,0.0,0.0,0.0,8.2304,8.2304,8.2304,8.2304,8.2304,8.2304,8.2304,8.2304,8.2304,8.2304,8.2304,8.2304,8.2304,8.2304,8.2304,8.2304,8.2304,8.2304,8.2304,8.2304,8.2304,8.2344,8.2344,8.2344,8.2383,8.2383,8.2383,8.2422,8.3281,8.3633,8.3711,8.4531,8.4883,8.4726,8.3047,8.2383,8.2383,8.2383,8.2383,8.2383,0.0,0.0,0.0,0.0,0.0,0.0,0.0,0.0,0.0,0.0,6.5897,6.5897,6.5897,6.5897,6.5897,6.5897,6.5897,6.5897,6.5897,0.0,0.0,0.0,0.0,0.0,6.7167,6.8359,6.9206,6.9706,7.0283,7.0667,7.0898,7.0898,7.0898,7.0898,7.0898,7.0898,7.0898,7.0898,7.0898,7.0898,7.0898,7.1321,7.1975,0.0,0.0,0.0,0.0,0.0,0.0,0.0,0.0,0.0,0.0,0.0,0.0,0.0,0.0,0.0,0.0,0.0,0.0,0.0,0.0,0.0,0.0,0.0,0.0,0.0,0.0,0.0,0.0,0.0,0.0,0.0,0.0,8.2304,8.2304,8.2304,8.2304,8.2304,8.2304,8.2304,8.2304,8.2304,8.2304,8.2304,8.2304,8.2304,8.2304,8.2304,8.2304,8.2304,8.2304,8.2304,8.2304,8.2304,8.2617,8.3242,8.3242,8.3554,8.4179,8.4179,8.4179,8.4219,8.4453,8.4531,8.457,8.4804,8.4883,8.4844,8.4375,8.4179,8.4179,8.4179,8.4179,8.4179,0.0,0.0,0.0,0.0,0.0,0.0,0.0,0.0,0.0,0.0,6.5897,6.5897,6.5897,6.5897,6.5897,6.5897,6.5897,6.5897,6.5897,0.0,0.0,0.0,0.0,6.7436,6.8167,6.9167,6.986,7.0206,7.0667,7.0898,7.0898,7.0898,7.0898,7.0898,7.0898,7.0898,7.0937,7.1283,7.1437,7.1475,7.186,7.2052,7.2283,7.3206,7.4306,7.5369,7.5946,7.6601,7.7187,7.7187,0.0,0.0,0.0,0.0,0.0,0.0,0.0,0.0,0.0,0.0,0.0,0.0,0.0,0.0,0.0,0.0,0.0,0.0,0.0,0.0,0.0,0.0,0.0,0.0,8.2304,8.2304,8.2304,8.2304,8.2304,8.2304,8.2304,8.2304,8.2304,8.2304,8.2304,8.2304,8.2304,8.2304,8.2304,8.2304,8.2304,8.2304,8.2656,8.2851,8.2851,8.3203,8.3633,8.414,8.414,8.4414,8.4883,8.4883,8.4883,8.4922,8.5273,8.5429,8.5469,8.5859,8.5976,0.0,0.0,0.0,0.0,0.0,8.4883,8.4883,0.0,0.0,0.0,0.0,0.0,0.0,0.0,0.0,0.0,0.0,0.0,6.5897,6.5897,6.5897,6.5897,6.5897,6.5897,6.5897,0.0,0.0,0.0,6.7051,6.7282,6.8129,6.9667,6.9783,7.0206,7.0898,7.0898,7.0898,7.0898,7.0898,7.0898,7.0898,7.0898,7.0937,7.1091,7.186,7.2245,7.2399,7.3283,7.3168,7.2668,7.4389,7.5197,7.5581,7.6556,7.7026,7.7187,7.7187,0.0,0.0,0.0,0.0,0.0,0.0,0.0,0.0,0.0,0.0,0.0,0.0,0.0,0.0,0.0,0.0,0.0,0.0,0.0,0.0,0.0,0.0,0.0,0.0,8.2304,8.2304,8.2304,8.2304,8.2304,8.2304,8.2304,8.2304,8.2304,8.2304,8.2304,8.2304,8.2304,8.2304,8.2304,0.0,0.0,0.0,0.0,8.375,8.375,8.4492,8.4961,8.5039,8.5039,8.5117,8.5195,8.5195,8.5195,8.5234,8.6015,8.6367,8.6406,8.7187,8.75,8.7344,8.5781,8.5195,8.5195,8.5195,8.5195,8.5195,0.0,0.0,0.0,0.0,0.0,0.0,0.0,0.0,0.0,6.5897,6.5897,6.5897,6.5897,6.5897,6.5897,6.5897,6.5897,6.5897,0.0,0.0,6.6936,6.709,6.8436,6.936,6.9706,7.036,7.0744,7.0898,7.0898,7.0898,7.0898,7.0898,7.0898,7.0898,7.0898,7.1283,7.1937,7.2129,7.2591,7.3322,7.413,7.4361,7.4284,7.4812,7.5582,7.638,7.6764,7.7014,7.7187,7.7187,7.7187,7.7187,7.7187,0.0,0.0,0.0,0.0,0.0,0.0,0.0,0.0,0.0,0.0,0.0,0.0,0.0,0.0,0.0,0.0,0.0,0.0,0.0,0.0,8.2304,8.2304,8.2304,8.2304,8.2304,8.2304,8.2304,8.2304,8.2304,8.2304,8.2304,8.2304,8.2304,8.2304,8.2304,8.2304,8.2969,8.3359,8.3359,8.4179,8.4648,8.4648,8.4804,8.5234,8.5937,0.0,0.0,8.6992,8.6992,8.6992,8.6992,8.7187,8.7265,8.7265,8.7422,8.75,8.7461,8.7148,8.6992,8.6992,8.6992,8.6992,8.6992,0.0,0.0,0.0,0.0,0.0,0.0,0.0,0.0,0.0,0.0,6.5897,6.5897,6.5897,6.5897,6.5897,6.5897,6.5897,0.0,0.0,6.6859,6.7475,6.8359,6.9244,6.9898,7.0283,7.0706,7.0898,7.0898,7.0898,7.0898,7.0898,7.0898,7.0898,7.0937,7.136,7.1783,7.2245,7.3091,7.3707,7.4168,7.5014,7.5361,7.5361,7.5553,7.607,7.666,7.6839,7.7049,7.7187,7.7187,7.7187,7.7187,7.7187,7.75,7.7851,0.0,0.0,0.0,0.0,0.0,0.0,0.0,0.0,0.0,0.0,0.0,0.0,0.0,0.0,8.2304,0.0,0.0,8.2304,8.2304,8.2304,8.2304,8.2304,8.2304,8.2304,8.2304,8.2304,8.2304,8.2304,8.2304,8.2304,8.2304,8.2695,8.2969,8.2969,8.3789,8.4258,8.4258,8.5117,8.5547,8.5547,8.5976,8.6406,8.6836,8.6836,8.707,8.75,8.75,8.75,8.75,8.75,8.75,8.75,8.75,8.75,8.75,8.75,8.75,8.75,8.75,8.75,8.75,0.0,0.0,0.0,0.0,0.0,0.0,0.0,0.0,0.0,0.0,6.5897,6.5897,6.5897,6.5897,6.5897,0.0,0.0,0.0,0.0,6.7398,6.8244,6.9629,6.986,7.0244,7.0898,7.0898,7.0898,7.0898,7.0898,7.0898,7.0898,7.0898,7.0975,7.1168,7.1898,7.236,7.2783,7.413,7.4822,7.5014,7.5707,7.6015,7.6015,7.6245,7.6459,7.663,7.688,7.7066,7.7187,7.7187,7.7187,7.7226,7.7383,7.793,7.8515,7.8672,7.918,0.0,0.0,0.0,0.0,0.0,0.0,0.0,0.0,0.0,8.2304,8.2304,8.2304,8.2304,8.2304,8.2304,8.2304,8.2304,8.2304,8.2304,8.2304,8.2304,8.2304,8.2304,8.2304,8.2304,8.2304,8.2304,8.2383,8.2539,8.3203,8.3672,8.3828,8.4687,8.5156,8.5156,8.6015,8.6445,8.6445,8.7148,8.75,8.75,8.75,8.75,8.75,8.75,8.75,8.75,8.75,8.75,8.75,8.75,8.75,8.75,8.75,8.75,8.75,8.75,8.75,8.75,0.0,0.0,0.0,0.0,0.0,0.0,0.0,0.0,0.0,0.0,0.0,0.0,0.0,0.0,0.0,0.0,0.0,0.0,6.709,6.8552,6.9513,6.9706,7.0398,7.0821,7.0898,7.0898,7.0898,7.0898,7.0898,7.0898,7.0898,7.0898,7.1321,7.2052,7.2168,7.3014,7.4437,7.463,7.5168,7.5861,7.5976,7.6015,7.6053,7.6399,7.6575,7.6663,7.7023,7.7183,7.7187,7.7187,7.7187,7.7344,7.8125,7.8437,7.8633,7.9375,0.0,7.9883,8.0625,8.1406,8.2031,8.2148,8.2226,8.2304,0.0,0.0,8.2304,8.2304,8.2304,8.2304,8.2304,8.2304,8.2304,8.2304,8.2304,8.2304,8.2304,8.2304,8.2304,8.2304,8.2304,8.2304,8.2304,8.2304,8.2617,8.3398,8.3554,8.3945,8.4726,8.5586,8.6054,8.6054,8.6914,8.7344,8.7344,8.7461,8.75,8.75,8.75,8.75,8.75,8.75,8.75,8.75,8.75,8.75,8.75,8.75,8.75,8.75,8.75,8.75,8.75,8.75,8.75,8.75,0.0,0.0,0.0,0.0,0.0,0.0,0.0,0.0,0.0,0.0,0.0,0.0,0.0,0.0,0.0,0.0,0.0,0.0,6.8552,6.9283,6.9898,7.0398,7.0706,7.0898,7.0898,7.0898,7.0898,7.0898,7.0898,7.0898,7.0898,7.1398,7.186,7.2245,7.3206,7.4053,7.4745,7.5245,7.5668,7.6015,7.6015,7.6053,7.6207,7.6506,7.6673,7.6824,7.7107,7.7187,0.0,0.0,7.7969,7.8086,7.8945,7.9531,8.0039,8.0351,8.082,0.0,8.164,8.2031,0.0,0.0,8.2304,8.2304,8.2304,8.2304,8.2304,8.2304,8.2304,8.2304,8.2304,8.2304,8.2304,0.0,8.2304,8.2304,8.2304,8.2304,8.2304,8.2304,8.2734,8.3047,8.3047,8.3047,8.3437,8.4297,8.4844,8.5273,8.5625,8.6484,8.6953,8.6953,8.7304,8.75,8.75,8.75,8.75,8.75,8.75,8.75,8.75,8.75,8.7773,8.8242,8.8711,8.8945,8.8945,8.8945,8.8945,8.8945,8.8945,8.8945,8.8828,8.7851,8.75,8.75,0.0,0.0,0.0,0.0,0.0,0.0,0.0,0.0,0.0,0.0,0.0,0.0,0.0,0.0,0.0,0.0,0.0,0.0,0.0,6.9898,7.0283,7.086,7.0898,7.0898,7.0898,7.0898,7.0898,7.0898,7.0898,7.1014,7.1283,7.1898,7.2437,7.2937,7.4168,7.4822,7.5091,7.5745,7.6015,7.6015,7.6015,7.613,7.6313,7.6533,7.6866,7.7279,7.7472,7.7578,0.0,0.0,7.8828,7.8984,7.9805,8.0508,8.1054,8.1289,8.1797,8.2304,8.2304,0.0,0.0,8.2304,8.2304,8.2304,8.2304,8.2304,8.2304,8.2304,8.2304,8.2304,8.2304,8.2304,8.2304,8.2304,8.2304,8.2304,8.2304,8.25,8.2656,8.2656,8.3437,8.4062,8.4297,8.4101,8.4336,8.5195,8.5859,8.6289,8.6562,8.7148,8.75,8.75,8.75,8.75,8.75,8.75,8.7617,8.7812,8.7812,8.7969,8.8203,8.8203,8.8515,8.9101,8.9726,9.0,9.0,9.0,9.0,9.0,9.0,9.0,8.9844,8.8633,8.8203,8.8203,0.0,0.0,0.0,0.0,0.0,0.0,0.0,0.0,0.0,0.0,0.0,0.0,0.0,0.0,0.0,0.0,0.0,0.0,0.0,7.0437,7.086,7.0898,7.0898,7.0898,7.0898,7.0898,7.0898,7.0898,7.0898,7.1321,7.2168,7.2168,7.3053,7.463,7.4668,7.5168,7.5976,7.5976,7.6015,7.6015,7.6015,7.613,7.6332,7.6516,7.725,7.8193,7.837,0.0,0.0,0.0,7.9648,7.9805,8.0703,8.0976,0.0,8.1992,8.2265,0.0,0.0,0.0,8.2304,8.2304,8.2304,8.2304,8.2304,8.2304,8.2304,8.2304,8.2304,8.2304,8.2304,8.2304,8.2304,8.2304,8.2304,8.2304,8.2304,8.3047,8.3554,8.3554,8.4336,8.5195,0.0,8.5351,8.5234,8.6094,8.6172,8.6562,8.7422,8.75,8.75,8.75,8.75,8.75,8.75,8.75,8.789,8.8672,8.8672,8.9101,8.9922,8.9922,8.9922,8.9961,9.0,9.0,9.0,9.0,9.0,9.0,9.0,9.0,9.0,8.9922,8.9922,8.9922,0.0,0.0,0.0,0.0,0.0,0.0,0.0,0.0,0.0,0.0,0.0,0.0,0.0,0.0,0.0,0.0,0.0,0.0,0.0,7.0744,7.0898,7.0898,7.0898,7.0898,7.0898,7.0898,7.0898,7.0898,7.0898,7.136,7.2206,7.2783,7.3668,7.4745,7.5284,7.5745,7.6015,7.6015,7.6015,7.6015,7.6015,7.6207,7.6563,7.7233,7.7853,7.854,0.0,0.0,0.0,0.0,0.0,0.0,8.1601,0.0,0.0,8.2226,0.0,0.0,0.0,0.0,8.2304,8.2304,8.2304,8.2304,8.2304,8.2304,8.2304,8.2304,8.2304,8.2304,8.2304,8.2304,8.2304,8.2304,8.2304,8.25,8.3086,8.3437,8.3828,8.4375,8.5234,0.0,0.0,0.0,0.0,8.6992,8.707,8.7187,8.7461,8.75,8.75,8.75,8.75,8.7773,8.8281,8.8281,8.8711,8.957,8.957,8.9726,9.0039,9.0586,9.0859,9.0898,9.1484,9.1719,9.1719,9.1719,9.1719,9.1719,9.1719,9.1719,9.1719,9.1719,9.1719,9.1562,0.0,0.0,0.0,0.0,0.0,0.0,0.0,0.0,0.0,0.0,0.0,0.0,0.0,0.0,0.0,0.0,0.0,0.0,0.0,0.0,7.0898,7.0898,7.0898,7.0898,7.0898,7.0898,7.1052,7.136,7.136,7.1975,7.3091,7.3668,7.4361,7.5207,7.5745,7.6015,7.6015,7.6015,7.6053,7.6092,7.6092,7.6322,7.6794,7.7689,7.8399,0.0,0.0,0.0,0.0,0.0,0.0,0.0,0.0,0.0,0.0,0.0,0.0,0.0,0.0,8.2304,8.2304,8.2304,8.2304,8.2304,8.2304,8.2304,8.2304,8.2304,8.2304,8.2304,8.2304,8.2304,8.2383,8.2695,8.2773,8.3086,8.3945,8.4336,8.4726,8.5312,8.6133,8.664,0.0,0.0,0.0,8.7461,8.75,8.75,8.75,8.75,8.75,8.75,8.7773,8.8164,8.8672,8.9023,8.9609,9.0469,9.0781,9.0937,9.0937,9.1523,9.1758,9.1797,9.2344,9.2617,9.2617,9.2617,9.2617,9.2617,9.2617,9.2617,9.2617,9.2617,9.2617,9.2422,0.0,0.0,0.0,0.0,0.0,0.0,0.0,0.0,0.0,0.0,0.0,0.0,0.0,0.0,0.0,0.0,0.0,0.0,0.0,0.0,0.0,7.0898,7.0898,7.0898,7.0898,7.0898,7.1321,7.2206,7.2206,7.3053,7.4707,7.4707,7.5168,7.6015,7.6015,7.6015,7.6015,7.6015,7.613,7.6322,7.6342,7.6573,7.7044,7.792,0.0,0.0,0.0,0.0,0.0,0.0,0.0,0.0,0.0,0.0,0.0,0.0,0.0,8.2304,8.2304,8.2304,8.2304,8.2304,8.2304,8.2304,8.2304,8.2304,8.2304,8.2304,8.2304,8.2304,0.0,0.0,8.2578,8.3476,8.3594,8.3906,8.4844,8.5664,8.6211,0.0,0.0,0.0,0.0,0.0,0.0,8.75,0.0,8.75,8.75,8.7539,8.7578,8.7578,8.8359,8.8789,8.8828,8.9687,9.0547,9.1367,9.2187,9.2617,9.2617,9.2617,9.2617,9.2617,9.2617,9.2617,9.2617,9.2617,9.2617,9.2617,9.2617,9.2617,9.2617,9.2617,9.2617,9.2617,0.0,0.0,0.0,0.0,0.0,0.0,0.0,0.0,0.0,0.0,0.0,0.0,0.0,0.0,0.0,0.0,0.0,0.0,0.0,0.0,0.0,0.0,0.0,0.0,0.0,0.0,0.0,0.0,7.2206,7.3053,7.4707,7.4707,7.5168,7.6015,7.6169,7.6207,7.6207,7.6361,7.6476,7.6496,0.0,7.7063,7.7959,0.0,0.0,0.0,0.0,0.0,0.0,0.0,0.0,0.0,0.0,0.0,8.2304,0.0,0.0,8.2304,8.2304,8.2304,8.2304,8.2304,8.2304,8.2304,8.2304,8.2304,8.2304,8.2304,8.2304,8.2304,0.0,0.0,0.0,8.3476,8.3594,0.0,8.5664,8.6054,0.0,0.0,0.0,8.75,8.75,8.75,0.0,0.0,8.75,8.75,8.75,8.8086,8.8398,8.8398,8.9219,8.9961,9.0625,9.1484,9.2031,9.2265,9.25,9.2617,9.2617,9.2617,9.2617,9.2617,9.2617,9.2617,9.2617,9.2617,9.2617,9.2617,9.2617,9.2617,9.2617,9.2617,9.2617,9.2617,0.0,0.0,0.0,0.0,0.0,0.0,0.0,0.0,0.0,0.0,0.0,0.0,0.0,0.0,0.0,0.0,0.0,0.0,0.0,0.0,0.0,0.0,0.0,0.0,0.0,0.0,0.0,0.0,0.0,0.0,7.4976,7.5361,7.5784,7.6245,7.6361,7.6442,7.6444,7.656,0.0,0.0,0.0,0.0,0.0,0.0,0.0,0.0,0.0,0.0,0.0,0.0,0.0,8.2304,8.2304,8.2304,8.2304,8.2304,0.0,8.2304,8.2304,8.2304,8.2304,8.2304,8.2304,8.2304,8.2304,8.2304,8.2304,8.2304,8.2304,0.0,0.0,0.0,0.0,0.0,0.0,0.0,8.6562,8.6758,8.6953,0.0,8.75,0.0,8.75,8.75,8.75,0.0,8.75,8.7656,8.8008,8.8437,8.8867,8.9258,9.0117,9.0976,9.1875,9.2344,9.2617,9.2617,9.2617,9.2617,9.2617,9.2617,9.2617,9.2617,0.0,9.2617,9.2617,9.2617,9.2617,9.2617,9.2617,9.2617,9.2617,9.2617,9.2617,9.2617,0.0,0.0,0.0,0.0,0.0,0.0,0.0,0.0,0.0,0.0,0.0,0.0,0.0,0.0,0.0,0.0,0.0,0.0,0.0,0.0,0.0,0.0,0.0,0.0,0.0,0.0,0.0,0.0,0.0,0.0,0.0,0.0,0.0,0.0,0.0,0.0,0.0,0.0,0.0,0.0,0.0,0.0,0.0,0.0,0.0,0.0,0.0,0.0,0.0,0.0,8.2304,8.2304,8.2304,8.2304,8.2304,8.2304,8.2304,8.2304,8.2304,8.2304,8.2304,8.2304,8.2304,8.2304,8.2304,8.2304,8.2304,8.2304,0.0,8.2344,8.2461,8.3086,8.3906,8.4922,0.0,8.6484,8.7383,8.75,8.75,8.75,8.75,8.75,8.75,8.75,8.7539,8.7656,8.7656,8.7969,8.8672,8.8906,8.9453,9.0312,9.1094,9.1836,9.2578,9.2617,9.2617,9.2617,9.2617,9.2617,9.2617,9.2617,9.2617,9.2617,9.2617,9.2617,9.2617,9.2617,9.2617,9.2617,9.2617,9.2617,9.2617,9.2617,9.2617,9.2617,0.0,0.0,0.0,0.0,0.0,0.0,0.0,0.0,0.0,0.0,6.659,6.7436,0.0,0.0,0.0,0.0,0.0,0.0,0.0,0.0,0.0,0.0,0.0,0.0,0.0,0.0,0.0,0.0,0.0,0.0,0.0,0.0,0.0,0.0,0.0,0.0,0.0,0.0,0.0,0.0,0.0,0.0,0.0,0.0,0.0,0.0,0.0,0.0,0.0,0.0,8.2304,8.2304,8.2304,8.2304,8.2304,8.2304,8.2304,8.2304,8.2304,8.2304,8.2304,8.2304,8.2304,8.2304,8.2304,8.2304,0.0,0.0,0.0,8.2539,8.3242,8.3515,0.0,8.5703,0.0,0.0,0.0,0.0,8.75,0.0,0.0,0.0,0.0,0.0,0.0,0.0,0.0,8.8554,8.8672,9.0078,9.125,9.2109,9.2304,9.2461,9.2617,9.2617,9.2617,9.2617,9.2617,9.2617,9.2617,9.2617,9.2617,9.2617,9.2617,0.0,9.2617,9.2617,9.2617,9.2617,9.2617,9.2617,9.2617,9.2617,9.2617,9.2617,0.0,0.0,0.0,0.0,0.0,0.0,0.0,6.5897,6.6051,6.6474,6.7244,6.7936,6.8359,6.9552,0.0,0.0,0.0,0.0,0.0,0.0,0.0,0.0,0.0,0.0,0.0,0.0,0.0,0.0,0.0,0.0,0.0,0.0,0.0,0.0,0.0,0.0,0.0,0.0,0.0,0.0,0.0,0.0,0.0,0.0,0.0,0.0,0.0,0.0,0.0,0.0,8.2304,8.2304,8.2304,8.2304,8.2304,8.2304,8.2304,8.2304,8.2304,8.2304,8.2304,8.2304,8.2304,8.2304,8.2304,0.0,0.0,0.0,0.0,8.3086,8.3515,0.0,0.0,0.0,0.0,0.0,0.0,0.0,0.0,0.0,0.0,0.0,0.0,0.0,0.0,0.0,0.0,9.0039,9.0039,9.1289,9.2187,9.2578,9.2617,9.2617,9.2617,9.2617,9.2617,9.2617,9.2617,9.2617,9.2617,9.2617,9.2617,9.2617,9.2617,9.2617,9.2617,9.2617,9.2617,9.2617,9.2617,9.2617,9.2617,9.2617,9.2617,9.2617,0.0,0.0,0.0,0.0,0.0,0.0,0.0,6.5897,6.6205,6.6974,6.7859,6.8475,6.8667,7.0014,7.0898,0.0,0.0,0.0,0.0,0.0,0.0,0.0,0.0,0.0,0.0,0.0,0.0,0.0,0.0,0.0,0.0,0.0,0.0,0.0,0.0,0.0,0.0,0.0,0.0,0.0,0.0,0.0,0.0,0.0,0.0,0.0,0.0,0.0,0.0,0.0,8.2304,8.2304,8.2304,8.2304,8.2304,8.2304,8.2304,8.2304,8.2304,8.2304,8.2304,8.2304,8.2304,8.2304,8.2304,8.2304,0.0,0.0,0.0,8.3672,8.3828,0.0,0.0,0.0,0.0,0.0,0.0,0.0,0.0,0.0,0.0,0.0,0.0,0.0,0.0,0.0,0.0,0.0,9.1562,9.2226,9.2617,9.2617,9.2617,9.2617,9.2617,9.2617,9.2617,9.2617,9.2617,9.2617,9.2617,9.2617,9.2617,9.2617,9.2617,9.2617,9.2617,9.2617,9.2617,9.2617,9.2617,9.2617,9.2617,9.2617,9.2617,9.2617,0.0,0.0,0.0,0.0,0.0,0.0,0.0,6.5897,6.6205,6.6974,6.7859,6.8706,6.9475,7.036,7.0898,0.0,0.0,0.0,0.0,0.0,0.0,0.0,0.0,0.0,0.0,0.0,0.0,0.0,0.0,0.0,0.0,0.0,0.0,0.0,0.0,0.0,0.0,0.0,0.0,0.0,0.0,0.0,0.0,0.0,0.0,0.0,0.0,0.0,0.0,0.0,0.0,8.2304,8.2304,8.2304,8.2304,8.2304,0.0,0.0,8.2304,8.2304,8.2304,8.2304,8.2304,8.2304,8.2304,0.0,0.0,0.0,8.3008,8.3828,8.4648,0.0,0.0,0.0,0.0,0.0,0.0,0.0,0.0,0.0,0.0,0.0,0.0,0.0,0.0,0.0,0.0,0.0,9.2461,9.2578,9.2617,9.2617,9.2617,9.2617,9.2617,9.2617,9.2617,9.2617,9.2617,9.2617,9.2617,9.2617,9.2617,9.2617,9.2617,9.2617,0.0,9.2617,9.2617,9.2617,9.2617,9.2617,9.2617,9.2617,9.2617,9.2617,0.0,0.0,0.0,0.0,0.0,0.0,6.5897,6.632,6.6936,6.7782,6.8629,6.9513,7.0321,7.0706,7.0898,7.0898,0.0,0.0,0.0,0.0,0.0,0.0,0.0,0.0,0.0,0.0,0.0,0.0,0.0,0.0,0.0,0.0,0.0,0.0,0.0,0.0,0.0,0.0,0.0,0.0,0.0,0.0,0.0,0.0,0.0,0.0,0.0,0.0,0.0,0.0,0.0,0.0,8.2304,8.2304,0.0,0.0,8.2304,8.2304,8.2304,8.2304,8.2304,8.2304,8.2304,8.2304,8.2304,0.0,0.0,8.2969,8.3789,8.4648,8.5508,0.0,0.0,0.0,0.0,0.0,0.0,0.0,0.0,0.0,0.0,0.0,0.0,0.0,0.0,0.0,0.0,0.0,9.2617,9.2617,9.2617,9.2617,9.2617,9.2617,9.2617,9.2617,9.2617,9.2617,9.2617,9.2617,9.2617,9.2617,9.2617,9.2617,9.2617,9.2617,0.0,9.2617,9.2617,9.2617,9.2617,9.2617,9.2617,9.2617,9.2617,9.2617,0.0,0.0,0.0,0.0,0.0,6.5974,6.6205,6.6744,6.7513,6.8629,6.9321,7.0014,7.0821,7.0898,7.0898,7.0898,7.1091,0.0,0.0,0.0,0.0,0.0,0.0,0.0,0.0,0.0,0.0,7.3955,0.0,0.0,0.0,0.0,0.0,0.0,0.0,0.0,0.0,0.0,0.0,0.0,0.0,0.0,0.0,0.0,0.0,0.0,0.0,0.0,0.0,0.0,0.0,0.0,0.0,0.0,0.0,0.0,8.2304,8.2304,8.2304,8.2304,8.2304,8.2304,8.2304,8.2304,0.0,0.0,8.2539,8.3437,8.4297,8.5156,8.6054,8.6914,8.75,0.0,0.0,8.75,0.0,0.0,0.0,0.0,0.0,0.0,0.0,0.0,0.0,0.0,0.0,0.0,9.2617,9.2617,9.2617,9.2617,9.2617,9.2617,9.2617,9.2617,9.2617,9.2617,9.2617,9.2617,9.2617,9.2617,9.2617,9.2617,9.2617,9.2617,0.0,9.2617,9.2617,9.2617,9.2617,9.2617,9.2617,9.2617,9.2617,9.2617,0.0,0.0,0.0,0.0,0.0,0.0,6.6974,6.709,6.7705,6.9475,6.9706,7.0014,7.0821,7.0898,7.0898,7.0898,7.1091,0.0,0.0,0.0,0.0,0.0,0.0,0.0,0.0,0.0,7.2195,7.4318,7.4318,7.5292,0.0,0.0,0.0,0.0,0.0,0.0,0.0,0.0,0.0,0.0,0.0,0.0,0.0,0.0,0.0,0.0,0.0,0.0,0.0,0.0,0.0,0.0,0.0,0.0,0.0,0.0,8.2304,8.2304,8.2304,8.2304,8.2304,8.2304,8.2304,8.2304,0.0,0.0,8.2539,8.3437,8.4297,8.5156,8.6054,8.6914,8.75,8.75,8.75,0.0,0.0,0.0,0.0,0.0,0.0,0.0,0.0,0.0,0.0,0.0,0.0,0.0,9.2617,9.2617,9.2617,9.2617,9.2617,9.2617,9.2617,9.2617,9.2617,9.2617,9.2617,9.2617,9.2617,9.2617,9.2617,9.2617,9.2617,9.2617,0.0,9.2617,9.2617,9.2617,9.2617,9.2617,9.2617,9.2617,9.2617,9.2617,0.0,0.0,0.0,0.0,0.0,0.0,0.0,6.8475,6.909,6.9629,7.0167,7.0629,7.086,7.0898,7.0898,7.0898,7.1091,0.0,0.0,0.0,0.0,0.0,0.0,0.0,0.0,0.0,7.2888,7.407,7.4833,7.5892,7.7187,7.7187,7.7187,0.0,0.0,0.0,0.0,0.0,0.0,0.0,0.0,0.0,0.0,0.0,0.0,0.0,0.0,0.0,0.0,0.0,0.0,0.0,0.0,0.0,0.0,0.0,0.0,0.0,8.2304,8.2304,8.2304,8.2304,8.2304,8.2304,8.2304,0.0,8.2734,8.4179,8.4726,8.5351,8.6836,8.7304,8.75,8.75,8.75,8.7695,0.0,0.0,0.0,0.0,0.0,0.0,0.0,0.0,0.0,0.0,0.0,9.2617,9.2617,9.2617,9.2617,9.2617,9.2617,9.2617,9.2617,9.2617,9.2617,9.2617,9.2617,9.2617,9.2617,9.2617,9.2617,9.2617,9.2617,9.2617,9.2617,9.2617,9.2617,9.2617,9.2617,9.2617,9.2617,9.2617,9.2617,9.2617,0.0,0.0,0.0,0.0,0.0,0.0,0.0,6.936,6.9821,7.0129,7.0591,7.0898,7.0898,7.0898,7.0898,7.0898,7.1014,0.0,0.0,0.0,0.0,0.0,0.0,0.0,0.0,7.2358,7.3333,7.4234,7.522,7.6231,7.7187,7.7187,7.7187,7.7187,7.7187,0.0,0.0,0.0,0.0,0.0,0.0,0.0,8.2304,0.0,0.0,0.0,0.0,0.0,0.0,0.0,0.0,0.0,0.0,0.0,0.0,0.0,0.0,0.0,0.0,8.2304,8.2304,8.2304,8.2304,0.0,0.0,0.0,0.0,8.4609,8.5156,8.582,8.7226,8.75,8.75,8.75,8.75,8.7656,0.0,0.0,0.0,0.0,0.0,0.0,0.0,0.0,0.0,0.0,0.0,9.2617,9.2617,9.2617,9.2617,9.2617,9.2617,9.2617,9.2617,9.2617,9.2617,9.2617,9.2617,9.2617,9.2617,9.2617,9.2617,9.2617,9.2617,9.2617,0.0,9.2617,9.2617,9.2617,9.2617,9.2617,9.2617,9.2617,9.2617,9.2617,0.0,0.0,0.0,0.0,0.0,0.0,0.0,6.9783,7.0052,7.0783,7.0898,7.0898,7.0898,7.0898,7.0898,7.0898,0.0,0.0,0.0,0.0,0.0,0.0,0.0,0.0,7.1775,7.2662,7.3622,7.4683,7.5546,7.6406,7.7187,7.7187,7.7187,7.7187,7.7187,0.0,0.0,0.0,0.0,0.0,0.0,0.0,0.0,0.0,0.0,0.0,0.0,0.0,0.0,0.0,0.0,0.0,0.0,0.0,0.0,0.0,0.0,0.0,0.0,0.0,0.0,0.0,0.0,0.0,0.0,0.0,0.0,0.0,0.0,8.6484,8.7344,8.75,8.75,8.75,8.75,8.7539,0.0,0.0,0.0,0.0,0.0,0.0,0.0,0.0,0.0,0.0,9.2617,9.2617,9.2617,9.2617,9.2617,9.2617,9.2617,9.2617,9.2617,9.2617,9.2617,9.2617,9.2617,9.2617,9.2617,9.2617,9.2617,0.0,9.2617,9.2617,9.2617,9.2617,9.2617,9.2617,9.2617,9.2617,9.2617,9.2617,9.2617,9.2617,0.0,0.0,0.0,0.0,0.0,0.0,0.0,0.0,0.0,0.0,7.0898,7.0898,7.0898,7.0898,7.0898,0.0,0.0,0.0,0.0,0.0,0.0,0.0,0.0,0.0,7.2672,7.3693,7.4595,7.5369,7.6379,7.6992,7.7187,7.7187,7.7187,7.7187,7.7187,7.7187,0.0,0.0,0.0,0.0,0.0,0.0,0.0,0.0,0.0,0.0,8.2304,8.2304,0.0,0.0,0.0,0.0,0.0,0.0,0.0,0.0,8.2304,0.0,8.2304,0.0,8.2304,8.2304,8.2304,0.0,0.0,0.0,0.0,0.0,0.0,8.6484,8.7344,8.75,8.75,8.75,8.75,8.7695,8.832,0.0,0.0,0.0,0.0,0.0,0.0,0.0,0.0,9.2617,9.2617,9.2617,9.2617,9.2617,9.2617,9.2617,9.2617,9.2617,9.2617,9.2617,9.2617,9.2617,9.2617,9.2617,9.2617,9.2617,9.2617,9.2617,9.2617,9.2617,9.2617,9.2617,9.2617,9.2617,9.2617,9.2617,9.2617,9.2617,9.2617,9.2617,0.0,0.0,0.0,0.0,0.0,0.0,0.0,0.0,0.0,0.0,0.0,0.0,0.0,0.0,0.0,0.0,0.0,0.0,0.0,0.0,0.0,0.0,0.0,7.2032,7.2969,7.4062,7.4965,7.575,7.6727,7.7187,7.7187,7.7187,7.7187,7.7187,7.7187,7.7187,7.7187,0.0,0.0,0.0,7.9687,0.0,0.0,0.0,0.0,0.0,8.2304,8.2304,0.0,8.2304,8.2304,8.2304,0.0,0.0,0.0,0.0,8.2304,8.2304,8.2304,8.2304,8.2304,8.2304,8.2304,8.2383,0.0,0.0,0.0,0.0,0.0,0.0,8.7422,0.0,0.0,8.75,8.75,8.7929,0.0,0.0,0.0,0.0,0.0,0.0,0.0,0.0,0.0,9.2617,9.2617,9.2617,9.2617,9.2617,9.2617,9.2617,9.2617,9.2617,9.2617,9.2617,9.2617,9.2617,9.2617,9.2617,9.2617,9.2617,9.2617,9.2617,9.2617,9.2617,9.2617,9.2617,9.2617,9.2617,9.2617,9.2617,9.2617,9.2617,9.2617,9.2617,0.0,0.0,0.0,0.0,0.0,0.0,0.0,0.0,0.0,0.0,0.0,0.0,0.0,0.0,0.0,0.0,0.0,0.0,0.0,0.0,0.0,0.0,0.0,7.2245,7.3119,7.4218,7.5195,7.6055,7.6836,7.7187,7.7187,7.7187,7.7187,7.7187,7.7187,7.7187,7.7226,7.7344,0.0,0.0,7.9844,0.0,0.0,0.0,0.0,0.0,0.0,0.0,0.0,8.2304,8.2304,8.2304,8.2304,0.0,0.0,0.0,0.0,0.0,8.2304,8.2304,8.2304,8.2304,8.2383,8.2695,0.0,0.0,0.0,0.0,0.0,0.0,0.0,0.0,0.0,0.0,0.0,0.0,0.0,0.0,0.0,0.0,0.0,0.0,0.0,9.2617,9.2617,9.2617,9.2617,9.2617,9.2617,9.2617,9.2617,9.2617,9.2617,9.2617,9.2617,9.2617,9.2617,9.2617,9.2617,9.2617,9.2617,9.2617,9.2617,9.2617,9.2617,9.2617,9.2617,9.2617,9.2617,9.2617,9.2617,9.2617,9.2617,9.2617,9.2617,9.2617,0.0,0.0,0.0,0.0,0.0,0.0,0.0,0.0,0.0,0.0,0.0,0.0,0.0,0.0,0.0,0.0,0.0,0.0,0.0,0.0,0.0,7.0937,7.1877,7.285,7.3834,7.4896,7.5859,7.6758,7.7031,7.7187,7.7187,7.7187,7.7187,7.7187,7.7187,7.7187,7.7265,7.8008,7.8828,7.9765,8.0508,0.0,0.0,0.0,0.0,0.0,0.0,0.0,0.0,8.2304,8.2304,8.2304,8.2304,0.0,0.0,0.0,0.0,0.0,8.2304,8.2304,8.2304,8.2304,8.2851,8.3437,0.0,0.0,0.0,0.0,0.0,0.0,0.0,0.0,0.0,0.0,0.0,0.0,0.0,0.0,0.0,0.0,0.0,0.0,9.2617,9.2617,9.2617,9.2617,9.2617,9.2617,9.2617,9.2617,9.2617,9.2617,9.2617,9.2617,9.2617,9.2617,9.2617,9.2617,9.2617,9.2617,9.2617,9.2617,9.2617,9.2617,9.2617,9.2617,9.2617,9.2617,9.2617,9.2617,9.2617,9.2617,9.2617,9.2617,9.2617,9.2617,0.0,0.0,0.0,0.0,0.0,0.0,0.0,0.0,0.0,0.0,0.0,0.0,0.0,0.0,0.0,0.0,0.0,0.0,0.0,0.0,7.1091,7.1591,7.2514,7.3343,7.4005,7.5059,7.6097,7.707,7.7148,7.7187,7.7187,7.7187,7.7187,7.7187,7.7187,7.7461,7.793,7.832,7.9258,8.0429,0.0,0.0,0.0,0.0,0.0,0.0,0.0,0.0,0.0,0.0,8.2304,8.2304,8.2304,0.0,0.0,0.0,0.0,0.0,8.2304,8.2304,8.2304,8.2304,8.2969,8.3711,0.0,0.0,0.0,0.0,0.0,0.0,0.0,0.0,0.0,0.0,0.0,0.0,0.0,0.0,0.0,0.0,0.0,9.2617,9.2617,9.2617,9.2617,9.2617,9.2617,9.2617,9.2617,9.2617,9.2617,9.2617,9.2617,9.2617,9.2617,9.2617,9.2617,9.2617,9.2617,9.2617,9.2617,9.2617,9.2617,9.2617,9.2617,9.2617,9.2617,9.2617,9.2617,9.2617,9.2617,9.2617,9.2617,9.2617,9.2617,9.2617,0.0,0.0,0.0,0.0,0.0,0.0,0.0,0.0,0.0,0.0,0.0,0.0,0.0,0.0,0.0,0.0,0.0,0.0,0.0,0.0,7.1514,7.2168,7.3206,7.3899,7.4168,7.5204,7.6167,7.7055,7.7108,7.7148,7.7187,7.7187,7.7187,7.7226,7.7422,7.789,7.8515,7.8906,7.9844,8.1015,0.0,0.0,0.0,0.0,0.0,0.0,0.0,0.0,0.0,0.0,0.0,0.0,0.0,0.0,0.0,8.2304,8.2304,8.2304,8.2304,8.2304,8.2344,8.2539,0.0,0.0,0.0,0.0,0.0,0.0,0.0,0.0,0.0,0.0,0.0,0.0,0.0,0.0,0.0,0.0,0.0,0.0,0.0,9.2617,9.2617,9.2617,9.2617,9.2617,9.2617,9.2617,9.2617,9.2617,9.2617,9.2617,9.2617,9.2617,9.2617,9.2617,9.2617,9.2617,9.2617,9.2617,9.2617,9.2617,9.2617,9.2617,9.2617,9.2617,9.2617,9.2617,9.2617,9.2617,9.2617,9.2617,9.2617,9.2617,9.2617,9.2617,0.0,0.0,0.0,0.0,0.0,0.0,0.0,0.0,0.0,0.0,0.0,0.0,0.0,0.0,0.0,0.0,0.0,0.0,0.0,0.0,7.2129,7.2206,7.3745,7.463,7.4668,7.5701,7.6397,7.6624,7.6848,7.7031,7.7187,7.7187,7.7187,7.7226,7.8047,7.8437,7.8594,8.0156,8.0898,8.1054,8.1875,0.0,0.0,0.0,0.0,0.0,0.0,0.0,0.0,0.0,0.0,0.0,0.0,0.0,8.2304,8.2304,8.2304,8.2304,8.2304,8.2304,8.25,8.3281,0.0,0.0,0.0,0.0,0.0,0.0,0.0,0.0,0.0,0.0,0.0,0.0,0.0,0.0,0.0,0.0,0.0,0.0,9.2617,9.2617,9.2617,9.2617,9.2617,9.2617,9.2617,9.2617,9.2617,9.2617,9.2617,9.2617,9.2617,9.2617,9.2617,9.2617,9.2617,9.2617,9.2617,9.2617,9.2617,9.2617,9.2617,9.2617,9.2617,9.2617,9.2617,9.2617,9.2617,9.2617,9.2617,9.2617,9.2617,9.2617,9.2617,9.2617,0.0,0.0,0.0,0.0,0.0,0.0,0.0,0.0,0.0,0.0,0.0,0.0,0.0,0.0,0.0,0.0,0.0,0.0,0.0,7.1706,7.2437,7.2976,7.4091,7.4938,7.5515,7.6056,7.6417,7.6606,7.6794,7.6992,7.7187,7.7187,7.75,7.8008,7.8359,7.9062,8.0117,8.0742,8.1328,8.1836,8.2187,8.2304,0.0,0.0,0.0,0.0,0.0,0.0,0.0,0.0,8.2304,8.2304,0.0,8.2304,8.2304,8.2304,8.2304,8.2304,8.2304,8.2304,8.25,0.0,0.0,0.0,0.0,0.0,0.0,0.0,0.0,0.0,0.0,0.0,0.0,0.0,0.0,0.0,0.0,0.0,9.2617,9.2617,9.2617,9.2617,9.2617,9.2617,9.2617,9.2617,9.2617,9.2617,9.2617,9.2617,9.2617,9.2617,9.2617,9.2617,9.2617,9.2617,9.2617,9.2617,9.2617,9.2617,9.2617,9.2617,9.2617,9.2617,9.2617,9.2617,9.2617,9.2617,9.2617,9.2617,9.2617,9.2617,9.2617,9.2617,9.2617,9.2617,0.0,0.0,0.0,0.0,0.0,0.0,0.0,0.0,0.0,0.0,0.0,0.0,0.0,0.0,0.0,0.0,0.0,0.0,7.1283,7.2129,7.2976,7.386,7.4668,7.5399,7.5976,7.613,7.6284,7.6506,7.679,7.7148,7.7617,7.7617,7.8047,7.8906,7.918,7.9922,8.1015,8.1289,8.1758,8.2304,8.2304,8.2304,0.0,0.0,0.0,0.0,0.0,0.0,0.0,0.0,8.2304,8.2304,0.0,0.0,0.0,0.0,8.2304,8.2304,8.2304,8.25,0.0,0.0,0.0,0.0,0.0,0.0,0.0,0.0,0.0,0.0,0.0,0.0,0.0,0.0,0.0,0.0,9.0,9.1484,9.2617,9.2617,9.2617,9.2617,9.2617,9.2617,9.2617,9.2617,9.2617,9.2617,9.2617,9.2617,9.2617,9.2617,9.2617,9.2617,9.2617,9.2617,9.2617,9.2617,9.2617,9.2617,9.2617,9.2617,9.2617,9.2617,9.2617,9.2617,9.2617,9.2617,9.2617,9.2617,9.2617,9.2617,9.2617,9.2617,9.2617,9.2617,0.0,0.0,0.0,0.0,0.0,0.0,0.0,0.0,0.0,0.0,0.0,0.0,0.0,0.0,0.0,0.0,0.0,0.0,7.2129,7.3014,7.386,7.4668,7.5515,7.6015,7.6015,7.6015,7.6092,7.6284,7.6702,7.7461,7.8515,7.8515,7.8945,7.9765,8.0625,8.1015,8.1054,8.1914,8.2304,8.2304,8.2304,8.2304,8.2304,0.0,0.0,0.0,0.0,0.0,0.0,0.0,8.2304,0.0,0.0,0.0,0.0,8.2304,8.2304,8.2304,8.2304,0.0,0.0,0.0,0.0,0.0,0.0,0.0,0.0,0.0,0.0,0.0,0.0,0.0,0.0,0.0,0.0,0.0,9.0,9.1484,9.2617,9.2617,9.2617,9.2617,9.2617,9.2617,9.2617,9.2617,9.2617,9.2617,9.2617,9.2617,9.2617,9.2617,9.2617,9.2617,9.2617,9.2617,9.2617,9.2617,9.2617,9.2617,9.2617,9.2617,9.2617,9.2617,9.2617,9.2617,9.2617,9.2617,9.2617,9.2617,9.2617,9.2617,9.2617,9.2617,9.2617,9.2617,0.0,0.0,0.0,0.0,0.0,0.0,0.0,0.0,0.0,0.0,0.0,0.0,0.0,0.0,0.0,0.0,0.0,0.0,7.2168,7.3553,7.4437,7.4707,7.5515,7.6015,7.6015,7.613,7.6284,7.6506,7.7388,7.804,7.8515,7.9062,7.9805,8.0625,8.0898,8.1328,8.1914,8.2187,8.2304,8.2304,8.2304,8.2304,8.2304,0.0,0.0,0.0,0.0,0.0,0.0,0.0,0.0,0.0,0.0,0.0,0.0,8.2304,8.2304,8.2304,8.2304,0.0,0.0,0.0,0.0,0.0,0.0,0.0,0.0,0.0,0.0,0.0,0.0,0.0,0.0,0.0,0.0,9.0,9.0,9.1484,9.2617,9.2617,9.2617,9.2617,9.2617,9.2617,9.2617,9.2617,9.2617,9.2617,9.2617,9.2617,9.2617,9.2617,9.2617,9.2617,9.2617,9.2617,9.2617,9.2617,9.2617,9.2617,9.2617,9.2617,9.2617,9.2617,9.2617,9.2617,9.2617,9.2617,9.2617,9.2617,9.2617,9.2617,9.2617,9.2617,9.2617,9.2617,0.0,0.0,0.0,0.0,0.0,0.0,0.0,0.0,0.0,0.0,7.0898,7.0898,0.0,0.0,0.0,0.0,0.0,0.0,0.0,7.3976,7.4861,7.5207,7.5707,7.6053,7.613,7.6662,7.701,7.7237,7.7882,7.8651,7.9492,8.0,8.0664,8.1523,8.1523,8.1797,8.2304,8.2304,8.2304,8.2304,8.2304,8.2304,8.2304,0.0,0.0,0.0,0.0,0.0,0.0,0.0,0.0,0.0,0.0,0.0,0.0,8.2304,8.2304,8.2383,0.0,0.0,0.0,0.0,0.0,0.0,0.0,0.0,0.0,0.0,0.0,0.0,0.0,0.0,0.0,8.7929,8.9101,9.0117,9.0469,9.1719,9.2617,9.2617,9.2617,9.2617,9.2617,9.2617,9.2617,9.2617,9.2617,9.2617,9.2617,9.2617,9.2617,9.2617,9.2617,9.2617,9.2617,9.2617,9.2617,9.2617,9.2617,9.2617,9.2617,9.2617,9.2617,9.2617,9.2617,9.2617,9.2617,9.2617,9.2617,9.2617,9.2617,9.2617,9.2617,9.2617,9.2617,9.2617,0.0,0.0,0.0,0.0,0.0,0.0,0.0,0.0,0.0,0.0,7.0898,7.0898,0.0,0.0,0.0,0.0,0.0,0.0,0.0,7.4361,7.5168,7.5976,7.6015,7.6092,7.6284,7.7312,7.8011,7.8304,7.8398,7.9325,8.1015,8.1094,8.1523,8.2304,8.2304,8.2304,8.2304,8.2304,8.2304,8.2304,8.2304,8.2304,8.2304,8.2304,0.0,0.0,0.0,0.0,0.0,0.0,0.0,0.0,0.0,0.0,8.2304,8.2304,8.2344,0.0,0.0,0.0,0.0,0.0,0.0,0.0,0.0,0.0,0.0,0.0,0.0,0.0,0.0,0.0,8.7773,8.8554,8.9414,9.0312,9.1172,9.2031,9.2617,9.2617,9.2617,9.2617,9.2617,9.2617,9.2617,9.2617,9.2617,9.2617,9.2617,9.2617,9.2617,9.2617,9.2617,9.2617,9.2617,9.2617,9.2617,9.2617,9.2617,9.2617,9.2617,9.2617,9.2617,9.2617,9.2617,9.2617,9.2617,9.2617,9.2617,9.2617,9.2617,9.2617,9.2617,9.2617,9.2617,9.2617,0.0,0.0,0.0,0.0,0.0,0.0,0.0,0.0,0.0,0.0,0.0,0.0,0.0,0.0,0.0,0.0,0.0,0.0,0.0,7.5245,7.5784,7.5976,7.6015,7.6092,7.6284,7.7202,7.8088,7.8922,7.99,8.0602,8.1015,8.1719,8.2109,8.2304,8.2304,8.2304,8.2304,8.2304,8.2304,8.2304,8.2304,8.2304,8.2304,8.2304,8.2304,0.0,0.0,0.0,0.0,0.0,0.0,0.0,8.2304,8.2304,8.2304,8.2304,8.2773,0.0,0.0,0.0,0.0,0.0,0.0,0.0,0.0,0.0,0.0,0.0,0.0,0.0,0.0,8.75,8.7773,8.8554,8.9414,9.0312,9.1172,9.2031,9.2617,9.2617,9.2617,9.2617,9.2617,9.2617,9.2617,9.2617,9.2617,9.2617,9.2617,9.2617,9.2617,9.2617,9.2617,9.2617,9.2617,9.2617,9.2617,9.2617,9.2617,9.2617,9.2617,9.2617,9.2617,9.2617,9.2617,9.2617,9.2617,9.2617,9.2617,9.2617,9.2617,9.2617,9.2617,9.2617,9.2617,9.2617,0.0,0.0,0.0,0.0,0.0,0.0,0.0,0.0,0.0,0.0,0.0,0.0,0.0,0.0,0.0,0.0,0.0,0.0,0.0,0.0,7.6015,7.6015,7.6015,7.6284,7.6899,7.773,7.868,7.9741,8.0802,8.1402,8.1484,8.2031,8.2304,8.2304,8.2304,8.2304,8.2304,8.2304,8.2304,8.2304,8.2304,8.2304,8.2304,8.2304,8.2304,8.2304,8.2304,0.0,0.0,0.0,0.0,0.0,0.0,0.0,8.2383,8.2812,0.0,0.0,0.0,0.0,0.0,0.0,0.0,0.0,0.0,0.0,0.0,0.0,0.0,0.0,8.75,8.75,8.789,8.9101,8.9687,9.0469,9.1758,9.2304,9.2617,9.2617,9.2617,9.2617,9.2617,9.2617,9.2617,9.2617,9.2617,9.2617,9.2617,9.2617,9.2617,9.2617,9.2617,9.2617,9.2617,9.2617,9.2617,9.2617,9.2617,9.2617,9.2617,9.2617,9.2617,9.2617,9.2617,9.2617,9.2617,9.2617,9.2617,9.2617,9.2617,9.2617,9.2617,9.2617,9.2617,9.2617,0.0,0.0,0.0,0.0,0.0,0.0,0.0,0.0,0.0,0.0,0.0,0.0,0.0,0.0,0.0,0.0,0.0,0.0,0.0,0.0,0.0,7.6015,7.613,7.663,7.7515,7.8507,7.94,8.0292,8.1208,8.1746,0.0,8.2145,8.2265,8.2265,8.2265,8.2304,8.2304,8.2304,8.2304,8.2304,8.2304,8.2304,8.2304,8.2304,8.2304,8.2304,8.2304,0.0,0.0,0.0,0.0,0.0,0.0,0.0,8.2656,8.3398,0.0,0.0,0.0,0.0,0.0,0.0,0.0,0.0,0.0,0.0,0.0,0.0,0.0,8.75,8.75,8.75,8.8047,8.9726,9.0,9.0625,9.2344,9.2617,9.2617,9.2617,9.2617,9.2617,9.2617,9.2617,9.2617,9.2617,9.2617,9.2617,9.2617,9.2617,9.2617,9.2617,9.2617,9.2617,9.2617,9.2617,9.2617,9.2617,9.2617,9.2617,9.2617,9.2617,9.2617,9.2617,9.2617,9.2617,9.2617,9.2617,9.2617,9.2617,9.2617,9.2617,9.2617,9.2617,9.2617,9.2617,0.0,0.0,0.0,0.0,0.0,0.0,0.0,0.0,0.0,0.0,7.0898,7.1206,0.0,0.0,0.0,0.0,0.0,0.0,0.0,0.0,0.0,7.6015,7.6707,7.7169,7.7323,7.8861,7.9746,7.99,8.0939,0.0,0.0,0.0,0.0,8.2031,8.2226,8.2304,8.2304,8.2304,8.2304,8.2304,8.2304,8.2304,8.2304,8.2304,8.2304,8.2304,8.2304,8.2304,0.0,0.0,8.2304,0.0,0.0,0.0,8.3437,0.0,0.0,0.0,0.0,0.0,0.0,0.0,0.0,0.0,0.0,0.0,0.0,0.0,8.75,8.75,8.75,8.75,8.8047,8.9726,9.0,9.0625,9.2344,9.2617,9.2617,9.2617,9.2617,9.2617,9.2617,9.2617,9.2617,9.2617,9.2617,9.2617,9.2617,9.2617,9.2617,9.2617,9.2617,9.2617,9.2617,9.2617,9.2617,9.2617,9.2617,9.2617,9.2617,9.2617,9.2617,9.2617,9.2617,9.2617,9.2617,9.2617,9.2617,9.2617,9.2617,9.2617,9.2617,9.2617,9.2617,9.2617,0.0,0.0,0.0,0.0,0.0,0.0,0.0,0.0,0.0,0.0,0.0,7.1975,0.0,0.0,0.0,0.0,0.0,0.0,0.0,0.0,0.0,7.6707,7.7092,7.7746,7.8669,7.9438,8.0054,8.0516,0.0,0.0,0.0,8.1536,8.1725,0.0,0.0,8.1976,8.1984,8.2063,8.2148,8.2148,8.2265,8.2304,8.2304,8.2304,8.2304,8.2304,8.2304,8.2304,0.0,0.0,8.2304,8.2383,8.2851,0.0,0.0,0.0,0.0,0.0,0.0,0.0,0.0,0.0,0.0,0.0,0.0,0.0,0.0,8.75,8.75,8.75,8.75,8.7851,8.8554,8.9804,9.039,9.1172,9.2422,9.2617,9.2617,9.2617,9.2617,9.2617,9.2617,9.2617,9.2617,9.2617,9.2617,9.2617,9.2617,9.2617,9.2617,9.2617,9.2617,9.2617,9.2617,9.2617,9.2617,9.2617,9.2617,9.2617,9.2617,9.2617,9.2617,9.2617,9.2617,9.2617,9.2617,9.2617,9.2617,9.2617,9.2617,9.2617,9.2617,9.2617,9.2617,9.2617,0.0,0.0,0.0,0.0,0.0,0.0,0.0,0.0,0.0,0.0,0.0,0.0,0.0,0.0,0.0,0.0,0.0,0.0,0.0,0.0,0.0,7.7284,7.7707,7.8515,7.9785,8.0015,8.0439,8.1093,0.0,0.0,8.1093,8.1246,8.1412,0.0,8.166,8.1738,0.0,0.0,0.0,0.0,8.2182,8.2237,8.2304,8.2226,8.2265,8.2304,8.2304,0.0,0.0,0.0,8.2461,8.2734,8.3398,8.3906,0.0,0.0,0.0,0.0,0.0,0.0,0.0,0.0,0.0,0.0,0.0,0.0,0.0,0.0,8.7656,8.7812,8.7812,8.8281,8.9062,9.0156,9.0898,9.1601,9.2461,9.2617,9.2617,9.2617,9.2617,9.2617,9.2617,9.2617,9.2617,9.2617,9.2617,9.2617,9.2617,9.2617,9.2617,9.2617,9.2617,9.2617,9.2617,9.2617,9.2617,9.2617,9.2617,9.2617,9.2617,9.2617,9.2617,9.2617,9.2617,9.2617,9.2617,9.2617,9.2617,9.2617,9.2617,9.2617,9.2617,9.2617,9.2617,9.2617,0.0,0.0,0.0,0.0,0.0,0.0,0.0,0.0,0.0,0.0,0.0,0.0,7.4553,7.4668,7.5014,7.5861,7.5976,7.6015,7.6015,7.6784,7.7246,7.7284,7.8823,0.0,7.9823,8.0592,8.1054,0.0,0.0,0.0,8.1093,8.1093,8.1124,8.1154,8.1501,8.1801,8.1993,0.0,0.0,0.0,0.0,8.2141,8.2265,8.2109,8.2148,8.2304,0.0,0.0,0.0,0.0,8.2851,8.3554,8.3594,8.4726,8.6094,0.0,0.0,0.0,0.0,0.0,0.0,0.0,0.0,0.0,0.0,0.0,0.0,8.75,8.8125,8.8633,8.8633,8.8672,8.9258,9.0976,9.1289,9.1601,9.2461,9.2617,9.2617,9.2617,9.2617,9.2617,9.2617,9.2617,9.2617,9.2617,9.2617,9.2617,9.2617,9.2617,9.2617,9.2617,9.2617,9.2617,9.2617,9.2617,9.2617,9.2617,9.2617,9.2617,9.2617,9.2617,9.2617,9.2617,9.2617,9.2617,9.2617,9.2617,9.2617,9.2617,9.2617,9.2617,9.2617,9.2617,9.2617,9.2617,0.0,0.0,0.0,0.0,0.0,0.0,0.0,0.0,0.0,0.0,0.0,0.0,0.0,7.5515,7.5668,7.5976,7.6015,7.6245,7.6784,7.713,7.7784,7.8861,7.9477,8.0054,8.0631,8.0939,8.1093,0.0,0.0,8.1093,8.1093,8.1093,8.1093,8.1093,8.1246,8.1323,8.1431,8.1555,0.0,0.0,0.0,0.0,0.0,0.0,0.0,0.0,0.0,0.0,0.0,0.0,8.289,8.3711,8.4258,8.5234,8.6328,8.6875,8.7265,0.0,0.0,0.0,0.0,0.0,0.0,0.0,0.0,8.75,8.7656,8.8164,8.8515,8.9023,9.0156,9.0351,9.0586,9.1211,9.1758,9.2226,9.2578,9.2617,9.2617,9.2617,9.2617,9.2617,9.2617,9.2617,9.2617,9.2617,9.2617,9.2617,9.2617,9.2617,9.2617,9.2617,9.2617,9.2617,9.2617,9.2617,9.2617,9.2617,9.2617,9.2617,9.2617,9.2617,9.2617,9.2617,9.2617,9.2617,9.2617,9.2617,9.2617,9.2617,9.2617,9.2617,9.2617,9.2617,9.2617,9.2617,0.0,0.0,0.0,0.0,0.0,0.0,0.0,0.0,0.0,0.0,0.0,0.0,0.0,0.0,7.613,7.6399,7.6438,7.6784,7.763,7.7977,7.8631,7.9746,8.0092,8.0516,8.1093,8.1093,8.1093,0.0,0.0,0.0,0.0,8.1093,8.1093,8.1093,8.1093,8.1131,0.0,0.0,0.0,8.1514,0.0,0.0,8.1693,0.0,0.0,0.0,0.0,0.0,0.0,0.0,0.0,8.4062,8.4922,8.5859,8.6758,8.7344,8.75,0.0,8.75,0.0,0.0,0.0,0.0,0.0,8.8281,0.0,8.8476,8.9023,8.9375,8.9922,9.1094,9.1523,9.1758,9.1758,9.2226,9.2617,9.2617,9.2617,9.2617,9.2617,9.2617,9.2617,9.2617,9.2617,9.2617,9.2617,9.2617,9.2617,9.2617,9.2617,9.2617,9.2617,9.2617,9.2617,9.2617,9.2617,9.2617,9.2617,9.2617,9.2617,9.2617,9.2617,9.2617,9.2617,9.2617,9.2617,9.2617,9.2617,9.2617,9.2617,9.2617,9.2617,9.2617,9.2617,9.2617,9.2617,0.0,0.0,0.0,0.0,0.0,0.0,0.0,0.0,0.0,7.5899,0.0,0.0,0.0,0.0,0.0,7.7207,7.7323,7.7669,7.8477,7.9323,7.9823,7.9862,8.0669,8.1093,8.1093,8.1093,8.1093,8.1093,0.0,0.0,0.0,0.0,8.1093,8.1093,8.1093,8.1208,8.1362,0.0,8.1477,8.1701,0.0,8.1516,8.1662,0.0,0.0,0.0,8.1699,8.1703,0.0,0.0,0.0,8.4765,8.5586,8.6601,8.75,8.75,8.7539,8.7539,0.0,0.0,0.0,0.0,0.0,0.0,8.9804,0.0,9.0,9.0039,9.0703,9.1328,9.1328,9.2031,9.2617,9.2617,9.2617,9.2617,9.2617,9.2617,9.2617,9.2617,9.2617,9.2617,9.2617,9.2617,9.2617,9.2617,9.2617,9.2617,9.2617,9.2617,9.2617,9.2617,9.2617,9.2617,9.2617,9.2617,9.2617,9.2617,9.2617,9.2617,9.2617,9.2617,9.2617,9.2617,9.2617,9.2617,9.2617,9.2617,9.2617,9.2617,9.2617,9.2617,9.2617,9.2617,9.2617,9.2617,0.0,0.0,0.0,0.0,0.0,0.0,0.0,0.0,7.5745,0.0,0.0,0.0,7.6015,7.6553,7.7053,7.7284,7.7823,7.8515,7.94,7.9669,8.0092,8.0708,8.0977,8.1093,8.1093,8.1093,8.1093,8.1093,0.0,8.1093,8.1093,8.1093,0.0,0.0,8.1093,8.1131,8.117,8.117,0.0,0.0,8.1208,8.1208,0.0,0.0,0.0,0.0,0.0,8.1992,8.2687,0.0,8.4108,8.5657,0.0,8.7265,8.75,8.75,8.789,8.8359,8.8359,0.0,0.0,0.0,0.0,0.0,8.9961,0.0,9.0195,9.082,9.1133,9.1484,9.2109,9.2422,9.2617,9.2617,9.2617,9.2617,9.2617,9.2617,9.2617,9.2617,9.2617,9.2617,9.2617,9.2617,9.2617,9.2617,9.2617,9.2617,9.2617,9.2617,9.2617,9.2617,9.2617,9.2617,9.2617,9.2617,9.2617,9.2617,9.2617,9.2617,9.2617,9.2617,9.2617,9.2617,9.2617,9.2617,9.2617,9.2617,9.2617,9.2617,9.2617,9.2617,9.2617,9.2617,9.2617,9.2617,0.0,0.0,0.0,0.0,0.0,0.0,0.0,7.6015,7.6015,0.0,0.0,0.0,7.7015,7.7476,7.7938,7.8323,7.8784,7.94,8.0285,8.0323,8.0554,8.1093,8.1093,8.1093,8.1093,8.1093,8.1093,8.1093,0.0,0.0,8.1093,8.1093,0.0,0.0,0.0,0.0,0.0,0.0,0.0,0.0,8.1093,0.0,0.0,8.1093,8.117,0.0,0.0,0.0,8.2824,8.3632,8.4978,0.0,0.0,0.0,0.0,8.789,8.832,8.8789,8.914,8.9609,0.0,0.0,0.0,0.0,9.1015,9.1094,9.1211,9.1758,9.1836,9.1992,9.25,9.2617,9.2617,9.2617,9.2617,9.2617,9.2617,9.2617,9.2617,9.2617,9.2617,9.2617,9.2617,9.2617,9.2617,9.2617,9.2617,9.2617,9.2617,9.2617,9.2617,9.2617,9.2617,9.2617,9.2617,9.2617,9.2617,9.2617,9.2617,9.2617,9.2617,9.2617,9.2617,9.2617,9.2617,9.2617,9.2617,9.2617,9.2617,9.2617,9.2617,9.2617,9.2617,9.2617,9.2617,9.2617,0.0,0.0,0.0,0.0,0.0,0.0,0.0,7.613,0.0,0.0,7.6938,7.7707,7.84,7.8592,7.8977,7.9746,7.99,8.0285,8.1054,8.1093,8.1093,8.1093,8.1093,8.1093,8.1093,8.1093,8.1093,8.1093,0.0,0.0,0.0,0.0,0.0,0.0,0.0,0.0,0.0,0.0,0.0,8.1093,8.1093,8.1093,0.0,0.0,8.117,8.1323,8.2054,8.2401,8.2894,8.4759,8.6138,0.0,0.0,0.0,0.0,0.0,8.8789,0.0,8.9922,9.0234,9.0469,0.0,9.1445,0.0,9.2422,9.2617,9.2617,9.2617,9.2617,9.2617,9.2617,9.2617,9.2617,9.2617,9.2617,9.2617,9.2617,9.2617,9.2617,9.2617,9.2617,9.2617,9.2617,9.2617,9.2617,9.2617,9.2617,9.2617,9.2617,9.2617,9.2617,9.2617,9.2617,9.2617,9.2617,9.2617,9.2617,9.2617,9.2617,9.2617,9.2617,9.2617,9.2617,9.2617,9.2617,9.2617,9.2617,9.2617,9.2617,9.2617,9.2617,9.2617,9.2617,9.2617,9.2617,9.2617,0.0,0.0,0.0,0.0,0.0,0.0,0.0,7.7053,7.7284,7.7938,7.8169,7.8323,7.8477,7.9131,7.9631,7.9785,8.0439,8.0939,8.1093,8.1093,8.1093,8.1093,8.1093,8.1093,8.1093,8.1093,8.1093,8.1093,0.0,0.0,0.0,0.0,0.0,0.0,0.0,0.0,0.0,0.0,0.0,8.1093,8.1093,0.0,8.1093,8.1093,8.1516,8.2093,8.2247,8.3208,8.4612,8.6017,8.6632,8.6938,0.0,0.0,0.0,8.8476,0.0,0.0,0.0,0.0,0.0,0.0,0.0,0.0,9.2578,9.2617,9.2617,9.2617,9.2617,9.2617,9.2617,9.2617,9.2617,9.2617,9.2617,9.2617,9.2617,9.2617,9.2617,9.2617,9.2617,9.2617,9.2617,9.2617,9.2617,9.2617,9.2617,9.2617,9.2617,9.2617,9.2617,9.2617,9.2617,9.2617,9.2617,9.2617,9.2617,9.2617,9.2617,9.2617,9.2617,9.2617,9.2617,9.2617,9.2617,9.2617,9.2617,9.2617,9.2617,9.2617,9.2617,9.2617,9.2617,9.2617,9.2617,9.2617,0.0,0.0,0.0,0.0,0.0,0.0,0.0,7.79,7.8015,7.8438,7.8861,7.9323,7.9746,8.0208,8.0439,8.0439,8.0862,8.1093,8.1093,8.1093,8.1093,8.1093,8.1093,8.1093,8.1093,8.1093,8.1093,8.1093,0.0,0.0,0.0,0.0,0.0,0.0,0.0,0.0,0.0,0.0,8.1939,8.2285,8.1439,0.0,8.1708,8.1708,8.2208,8.3016,8.3439,8.4516,8.5812,8.6455,8.6783,0.0,0.0,8.7383,8.7734,0.0,8.9648,9.0273,0.0,0.0,0.0,9.2617,0.0,0.0,0.0,9.2617,9.2617,9.2617,9.2617,9.2617,9.2617,9.2617,9.2617,9.2617,9.2617,9.2617,9.2617,9.2617,9.2617,9.2617,9.2617,9.2617,9.2617,9.2617,9.2617,9.2617,9.2617,9.2617,9.2617,9.2617,9.2617,9.2617,9.2617,9.2617,9.2617,9.2617,9.2617,9.2617,9.2617,9.2617,9.2617,9.2617,9.2617,9.2617,9.2617,9.2617,9.2617,9.2617,9.2617,9.2617,9.2617,9.2617,9.2617,9.2617,9.2617,9.2617,0.0,0.0,0.0,0.0,0.0,0.0,0.0,7.8746,7.8823,7.8977,7.9592,8.0323,8.1016,8.1093,8.1093,8.1093,8.1093,8.1093,8.1093,8.1093,8.1093,8.1093,8.1093,8.1093,8.1093,8.1093,8.1093,8.1093,8.1093,0.0,0.0,0.0,0.0,0.0,0.0,0.0,0.0,0.0,0.0,8.3478,0.0,8.1977,8.2554,8.2554,8.3093,8.3939,8.4824,8.5709,8.644,8.6517,8.6765,8.7069,8.7146,8.7344,0.0,0.0,0.0,0.0,0.0,0.0,0.0,0.0,0.0,9.2617,0.0,0.0,0.0,9.2617,9.2617,9.2617,9.2617,9.2617,9.2539,9.2383,9.25,9.2539,9.2383,9.25,9.2617,9.2617,9.2617,9.2617,9.2617,9.2617,9.2617,9.2617,9.2617,9.2617,9.2617,9.2617,9.2617,9.2617,9.2617,9.2617,9.2617,9.2617,9.2617,9.2617,9.2617,9.2617,9.2617,9.2617,9.2617,9.2617,9.2617,9.2617,9.2617,9.2617,9.2617,9.2617,9.2617,9.2617,9.2617,9.2617,9.2617,9.2617,7.8207,7.8284,0.0,0.0,7.8438,7.8746,7.9515,7.9669,7.9939,8.0708,8.09,8.0977,8.1093,0.0,0.0,0.0,0.0,0.0,8.1093,0.0,8.1093,8.1093,8.1093,8.1093,8.1093,8.1093,8.1093,8.1093,8.1093,8.1093,0.0,0.0,0.0,0.0,8.14,0.0,0.0,0.0,8.2785,0.0,8.3401,8.3362,0.0,8.3439,8.3978,8.4863,8.567,8.6055,8.6209,0.0,8.6801,8.6933,0.0,8.7461,8.7812,8.9492,0.0,0.0,0.0,0.0,0.0,0.0,9.2617,0.0,9.2617,0.0,9.2617,9.2617,0.0,9.2617,9.2617,0.0,0.0,9.1562,9.2109,9.2344,9.1562,9.2109,9.2617,9.2617,9.2617,9.2617,9.2617,9.2617,9.2617,9.2617,9.2617,9.2617,9.2617,9.2617,9.2617,9.2617,9.2617,9.2617,9.2617,9.2617,9.2617,9.2617,9.2617,9.2617,9.2617,9.2617,9.2617,9.2617,9.2617,9.2617,9.2617,9.2617,9.2617,9.2617,9.2617,9.2617,9.2617,9.2617,9.2617,9.2617,7.8707,7.89,0.0,0.0,7.9669,8.0131,8.0516,8.0554,8.0708,8.1054,8.1093,8.1093,0.0,0.0,0.0,0.0,0.0,8.1093,0.0,0.0,8.1093,8.1093,8.1093,8.1093,8.1093,8.1093,8.1093,8.1093,8.1093,8.1093,8.1093,8.1593,0.0,0.0,8.2477,0.0,8.4324,0.0,8.4286,0.0,0.0,0.0,0.0,8.4516,8.4863,8.5632,8.5978,8.6094,8.6132,0.0,8.6559,0.0,0.0,0.0,0.0,0.0,0.0,0.0,0.0,0.0,0.0,0.0,0.0,0.0,9.2617,0.0,9.2617,0.0,0.0,0.0,0.0,0.0,0.0,0.0,9.2344,9.2461,9.2109,9.2383,9.2617,9.2617,9.2617,9.2617,9.2617,9.2617,9.2617,9.2617,9.2617,9.2617,9.2617,9.2617,9.2617,9.2617,9.2617,9.2617,9.2617,9.2617,9.2617,9.2617,9.2617,9.2617,9.2617,9.2617,9.2617,9.2617,9.2617,9.2617,9.2617,9.2617,9.2617,9.2617,9.2617,9.2617,9.2617,9.2617,9.2617,9.2617,7.9438,0.0,0.0,0.0,0.0,8.1093,8.1093,8.1093,8.1093,8.1093,0.0,0.0,8.1093,8.1093,0.0,0.0,0.0,8.1093,0.0,0.0,8.1093,8.1093,8.1093,0.0,0.0,8.1093,8.1093,8.1093,8.1323,8.1439,0.0,0.0,0.0,0.0,0.0,8.4209,8.5209,0.0,0.0,8.6094,8.6094,8.6094,8.6055,8.544,8.5593,8.6094,8.6094,8.6094,8.6094,8.617,8.6451,8.6687,8.6591,8.6903,8.7612,0.0,0.0,0.0,9.2031,0.0,0.0,0.0,0.0,0.0,0.0,0.0,0.0,0.0,0.0,0.0,0.0,0.0,9.2539,9.2265,0.0,9.2539,9.2265,9.2461,9.2617,9.2617,9.2617,9.2617,9.2617,9.2617,9.2617,9.2617,9.2617,9.2617,9.2617,9.2617,9.2617,9.2617,9.2617,9.2617,9.2617,9.2617,9.2617,9.2617,9.2617,9.2617,9.2617,9.2617,9.2617,9.2617,9.2617,9.2617,9.2617,9.2617,9.2617,9.2617,9.2617,9.2617,9.2617,9.2617,9.2617,9.2617,8.1016,8.1054,0.0,0.0,0.0,0.0,8.1093,8.1093,0.0,0.0,0.0,0.0,0.0,0.0,0.0,0.0,0.0,8.1093,8.1093,0.0,8.1093,0.0,0.0,0.0,0.0,8.1093,8.1093,8.1093,8.1862,8.2247,0.0,0.0,0.0,0.0,0.0,8.4516,8.6017,8.5247,8.5363,8.6094,8.6094,8.6094,8.6094,0.0,8.6094,8.6094,8.6094,8.6094,8.6132,8.6401,8.6511,8.6555,8.6728,8.6824,8.7156,0.0,0.0,0.0,0.0,9.2383,0.0,9.2617,0.0,0.0,0.0,0.0,9.2617,0.0,0.0,0.0,0.0,9.2617,9.2304,9.1484,9.2031,0.0,0.0,9.207,9.2617,9.2617,9.2617,9.2617,9.2617,9.2617,9.2617,9.2617,9.2617,9.2617,9.2617,9.2617,9.2617,9.2617,9.2617,9.2617,9.2617,9.2617,9.2617,9.2617,9.2617,9.2617,9.2617,9.2617,9.2617,9.2617,9.2617,9.2617,9.2617,9.2617,9.2617,9.2617,9.2617,9.2617,9.2617,9.2617,9.2617,9.2617,0.0,0.0,0.0,0.0,0.0,0.0,0.0,8.1093,0.0,0.0,0.0,0.0,0.0,0.0,8.1093,0.0,0.0,8.1093,8.1093,8.1093,0.0,0.0,0.0,8.1093,0.0,0.0,8.1093,8.1093,8.19,8.2285,0.0,0.0,0.0,0.0,0.0,8.5555,0.0,0.0,0.0,0.0,0.0,8.6094,8.6094,0.0,8.6094,8.6094,8.6094,8.6094,8.6094,8.6209,8.6363,8.6505,8.6394,8.6547,8.7083,8.8634,8.9243,8.9814,9.1548,9.215,9.2344,9.2344,9.2461,9.2617,9.2617,0.0,0.0,0.0,0.0,0.0,0.0,9.2617,9.25,9.2226,9.2422,9.25,0.0,9.2422,9.2617,9.2617,9.2617,9.2617,9.2617,9.2617,9.2617,9.2617,9.2617,9.2617,9.2617,9.2617,9.2617,9.2617,9.2617,9.2617,9.2617,9.2617,9.2617,9.2617,9.2617,9.2617,9.2617,9.2617,9.2617,9.2617,9.2617,9.2617,9.2617,9.2617,9.2617,9.2617,9.2617,9.2617,9.2617,9.2617,9.2617,9.2617,8.1093,0.0,0.0,0.0,0.0,0.0,0.0,0.0,0.0,0.0,8.1093,0.0,8.1093,0.0,8.1093,0.0,8.1093,8.1093,8.1093,8.1093,0.0,8.1093,8.1093,0.0,0.0,8.1093,8.1246,8.1516,8.2362,8.2901,0.0,0.0,0.0,0.0,0.0,8.6094,8.6094,0.0,8.6094,0.0,0.0,8.6094,0.0,8.6094,8.6094,8.6094,8.6094,8.6094,8.6094,8.6094,8.6209,8.6324,8.617,8.6324,8.6863,8.8435,8.9056,8.958,9.127,9.1917,9.21,9.2182,9.2344,9.2461,9.2578,9.2617,9.2617,0.0,0.0,0.0,0.0,9.2617,9.2617,9.2617,9.2617,9.2617,0.0,9.2617,9.2617,9.2617,9.2617,9.2617,9.2617,9.2617,9.2617,9.2617,9.2617,9.2617,9.2617,9.2617,9.2617,9.2617,9.2617,9.2617,9.2617,9.2617,9.2617,9.2617,9.2617,9.2617,9.2617,9.2617,9.2617,9.2617,9.2617,9.2617,9.2617,9.2617,9.2617,9.2617,9.2617,9.2617,9.2617,9.2617,9.2617,9.2617,0.0,0.0,0.0,0.0,8.1093,0.0,0.0,0.0,8.1093,0.0,8.1093,8.1093,8.1093,8.1093,8.1093,8.1093,8.1093,0.0,8.1093,8.1093,0.0,0.0,8.1093,8.1093,8.1093,8.1131,0.0,0.0,0.0,0.0,0.0,0.0,0.0,0.0,8.6094,0.0,8.6094,8.6094,8.6094,8.6094,8.6094,8.6094,8.6094,8.6094,8.6094,8.6094,8.6094,8.6094,8.6094,8.6094,8.6094,8.6094,8.6094,8.6132,8.6517,8.8209,8.8863,8.9402,9.1056,9.1672,9.1909,9.2124,9.2185,9.2265,9.2539,9.2578,9.2578,9.2617,9.2617,0.0,0.0,9.2617,9.2617,9.2617,9.2617,9.2617,9.2617,9.2617,9.2617,9.2617,9.2617,9.2617,9.2617,9.2617,9.2617,9.2617,9.2617,9.2617,9.2617,9.2617,9.2617,9.2617,9.2617,9.2617,9.2617,9.2617,9.2617,9.2617,9.2617,9.2617,9.2617,9.2617,9.2617,9.2617,9.2617,9.2617,9.2617,9.2617,9.2617,9.2617,9.2617,9.2617,9.2617,9.2617,9.2617,9.2617,8.1093,8.1093,8.1093,0.0,8.1093,8.1093,0.0,0.0,0.0,0.0,8.1093,8.1093,8.1093,8.1093,8.1093,8.1093,8.1093,0.0,0.0,0.0,0.0,8.1093,8.1093,8.1093,8.1093,8.1708,0.0,8.2285,0.0,0.0,8.4939,0.0,0.0,0.0,0.0,0.0,8.6094,8.6094,8.6094,8.6094,8.6094,8.6094,8.6094,8.6094,8.6094,8.6094,8.6094,8.6094,8.6094,8.6094,8.6094,8.6094,8.6094,8.6555,8.7286,8.8363,8.9171,8.9902,9.0979,9.1441,9.1655,9.1666,9.1841,9.2022,9.226,9.2304,9.2344,9.2578,9.2617,9.2617,9.2617,9.2617,9.2617,9.2617,9.2617,9.2617,9.2617,0.0,0.0,9.2617,9.2617,9.2617,9.2617,9.2617,9.2617,9.2617,9.2617,9.2617,9.2617,9.2617,9.2617,9.2617,9.2617,9.2617,9.2617,9.2617,9.2617,9.2617,9.2617,9.2617,9.2617,9.2617,9.2617,9.2617,9.2617,9.2617,9.2617,9.2617,9.2617,9.2617,9.2617,9.2617,9.2617,9.2617,9.2617,9.2617,8.1093,0.0,0.0,8.1093,0.0,0.0,8.1093,0.0,0.0,8.1093,8.1093,0.0,8.1093,8.1093,8.1093,8.1093,8.1093,0.0,0.0,0.0,0.0,8.1093,8.1093,8.1246,8.1631,8.2054,0.0,8.3439,0.0,0.0,8.544,0.0,0.0,0.0,0.0,8.6094,8.6094,8.6094,8.6094,8.6094,8.6094,8.6094,0.0,8.6094,8.6094,8.6094,8.6094,8.6094,8.6094,8.6094,8.6094,8.6094,8.6094,8.6709,8.7555,8.844,8.9286,9.0094,9.0979,9.1287,9.1402,9.1479,9.1608,9.1805,9.2026,9.2124,9.2226,9.2383,9.2539,9.2617,9.2617,9.2617,9.2617,9.2617,9.2617,9.2617,0.0,0.0,0.0,0.0,9.2617,9.2617,9.2617,9.2617,9.2617,9.2617,9.2617,9.2617,9.2617,9.2617,9.2617,9.2617,9.2617,9.2617,9.2617,9.2617,9.2617,9.2617,9.2617,9.2617,9.2617,9.2617,9.2617,9.2617,9.2617,9.2617,9.2617,9.2617,9.2617,9.2617,9.2617,9.2617,9.2617,9.2617,9.2617,9.2617,0.0,0.0,0.0,0.0,0.0,0.0,0.0,8.1093,0.0,8.1093,0.0,8.1093,8.1093,8.1093,8.1093,8.1093,0.0,8.1093,8.1093,8.1093,8.1093,8.1093,8.1208,8.1593,8.2285,8.2516,0.0,0.0,0.0,0.0,0.0,0.0,0.0,0.0,0.0,0.0,0.0,8.6094,8.6094,8.6094,8.6094,8.6094,8.6094,8.6094,8.6094,8.6094,8.6094,8.6094,8.6094,8.6094,8.6094,8.6094,8.6094,8.6786,8.7709,8.8479,8.9363,9.0248,9.0979,9.121,9.1248,9.1402,9.1441,9.1518,9.1787,9.1996,9.213,9.214,9.2382,9.2539,9.2539,9.2578,9.2617,9.2617,9.2617,0.0,0.0,0.0,0.0,0.0,0.0,0.0,9.2617,9.2617,9.2617,9.2617,9.2617,9.2617,9.2617,9.2617,9.2539,9.2422,9.2422,9.2383,9.2265,9.2265,9.2265,9.2265,9.2265,9.2265,9.2265,9.2383,9.2422,9.2422,9.2539,9.2617,9.2617,9.2617,9.2617,9.2617,9.2617,9.2617,9.2617,9.2617,9.2617,9.2617,0.0,0.0,0.0,0.0,0.0,8.1093,8.1093,8.1093,8.1093,8.1093,8.1093,8.1093,8.1093,8.1093,8.1093,8.1093,8.1093,0.0,0.0,0.0,0.0,8.1093,8.1747,8.217,8.2285,8.3708,8.4593,0.0,0.0,0.0,0.0,0.0,0.0,0.0,0.0,0.0,8.6094,8.6094,8.6094,8.6094,8.6094,8.6094,8.6094,8.6094,8.6094,8.6094,8.6094,8.6094,8.6094,8.6094,8.6094,8.6094,8.6094,8.7171,8.8479,8.8671,8.9787,9.1018,9.1171,9.121,9.121,9.1248,9.1248,9.1325,9.1518,9.1599,9.167,9.1926,9.2138,9.2265,9.2265,9.2461,9.2617,9.2617,9.2617,0.0,0.0,0.0,0.0,0.0,0.0,9.2617,9.2617,9.2617,9.2617,9.2617,9.2617,9.2617,9.2617,9.2617,9.2265,9.1562,9.1523,9.1172,9.0469,9.0469,9.0469,9.0469,9.0469,9.0469,9.0469,9.1211,9.1523,9.1562,9.2304,9.2617,9.2617,9.2617,9.2617,9.2617,9.2617,9.2617,9.2617,9.2617,9.2617,9.2617,0.0,0.0,0.0,0.0,0.0,0.0,0.0,8.1093,8.1093,8.1093,8.1093,8.1093,8.1093,8.1093,8.1093,8.1093,8.1093,8.1093,8.1093,8.1093,8.1285,8.1708,8.2093,0.0,8.3632,8.4478,8.5093,8.5517,0.0,0.0,0.0,0.0,0.0,8.6094,0.0,8.6094,0.0,8.6094,8.6094,8.6094,8.6094,8.6094,8.6094,8.6094,8.6094,8.6094,8.6094,8.6094,8.6094,8.6094,8.6094,8.617,8.6632,8.7671,8.8786,8.921,9.021,9.121,9.121,9.121,9.121,9.121,9.121,9.1248,9.1325,9.1441,9.1539,9.1666,9.195,9.2221,9.2377,9.25,9.2617,9.2617,9.2617,9.2617,0.0,0.0,9.2617,0.0,0.0,0.0,9.1953,9.1914,9.1914,9.1914,9.1914,9.1719,9.1289,9.1679,9.1523,9.0664,9.0625,9.0429,9.0,9.0,9.0,9.0,9.0,9.0,9.0,9.0429,9.0859,9.1328,9.1758,9.2187,9.2617,9.2617,9.2617,9.2617,9.2617,9.2617,9.2617,9.2617,9.2617,9.2617,0.0,8.1093,0.0,0.0,8.1093,0.0,8.1093,8.1093,8.1093,8.1093,8.1093,8.1093,8.1093,8.1093,8.1093,8.1093,8.1093,8.117,8.1323,8.1362,8.1708,8.2554,8.2747,8.3516,8.4863,8.5093,8.5478,0.0,0.0,0.0,8.6094,0.0,0.0,8.6094,8.6094,8.6094,8.6094,8.6094,8.6094,8.6094,8.6094,8.6094,8.6094,8.6094,8.6094,8.6094,8.6094,8.6094,8.6132,8.6324,8.6363,8.6517,8.7171,8.8132,8.9094,8.971,9.0517,9.121,9.121,9.121,9.121,9.121,9.121,9.121,9.121,9.1325,9.1441,9.1441,9.1804,9.2212,9.2482,9.2578,9.2617,9.2617,9.2617,9.2617,9.2617,0.0,9.2304,0.0,0.0,0.0,9.1094,9.0859,9.0742,9.0742,9.0937,9.0703,9.0039,9.0664,9.0625,8.9765,8.9726,8.9648,8.9453,8.9453,8.9453,8.9453,8.9453,8.9453,8.9453,8.9648,9.0117,9.0742,9.0937,9.1523,9.2344,9.2539,9.2617,9.2617,9.2617,9.2617,9.2617,9.2617,9.2617,9.2617,0.0,0.0,0.0,0.0,0.0,0.0,8.1093,8.1093,8.1093,8.1093,8.1093,8.1093,8.1093,8.1093,8.1093,8.1093,8.1093,8.14,8.2131,8.217,8.2554,8.3439,8.4247,8.4747,8.4901,8.5632,8.6017,0.0,0.0,8.6094,8.6094,8.6094,8.6094,8.6094,8.6094,8.6094,8.6094,8.6094,8.6094,8.6094,8.6094,8.6094,8.6094,8.6094,8.6094,8.6094,8.6094,8.6094,8.6209,8.7017,8.7286,8.7286,8.7363,8.8517,8.9825,8.9902,9.0517,9.121,9.121,9.121,9.121,9.121,9.121,9.121,9.121,9.121,9.1248,9.1248,9.1604,9.1997,9.2182,9.2422,9.2617,9.2617,9.2617,9.2617,9.2617,0.0,9.1406,9.1406,0.0,0.0,9.0117,8.9414,8.8945,8.8945,8.9687,9.0078,9.0,9.0078,8.9726,8.8867,8.8828,8.8476,8.7734,8.7734,8.7734,8.7734,8.7734,8.7734,8.7773,8.8476,8.8867,8.8984,8.9765,9.0625,9.1484,9.2265,9.2617,9.2617,9.2617,9.2617,9.2617,9.2617,9.2617,9.2617,0.0,0.0,0.0,0.0,0.0,0.0,0.0,8.1093,8.1093,8.1093,8.1093,8.1093,8.1093,8.1093,8.1285,8.1785,8.1823,8.217,8.3016,8.3093,8.3478,8.4324,8.4709,8.5132,8.5632,8.594,8.6094,0.0,0.0,0.0,0.0,8.6094,8.6094,8.6094,8.6094,8.6094,8.6094,8.6094,8.6094,8.6094,8.6094,8.6094,8.6094,8.6094,8.6094,8.6094,8.6094,8.644,8.694,8.7286,8.7401,8.7594,8.8594,8.9363,9.0017,9.0517,9.0941,9.121,9.121,9.121,9.121,9.121,9.121,9.121,9.121,9.121,9.121,9.121,9.147,9.1773,9.2134,9.2304,9.2422,9.2578,9.2617,9.2617,9.2617,9.1836,0.0,9.1289,0.0,8.9804,8.9258,8.8906,8.8515,8.8008,8.875,8.9023,8.8515,8.8945,8.8828,8.8008,8.7969,8.7812,8.75,8.75,8.75,8.75,8.75,8.75,8.75,8.7812,8.8242,8.875,8.9609,9.0195,9.0547,9.0898,9.1054,9.1054,9.1054,9.1054,9.1094,9.164,9.1836,9.1875,8.0125,0.0,8.1093,0.0,8.1093,8.117,8.14,8.1439,8.1554,8.1785,8.1823,8.1747,8.1477,8.167,8.2054,8.2631,8.267,8.3054,8.3939,8.3978,8.4362,8.5209,8.5247,0.0,8.6094,8.6094,8.6094,8.6094,8.6094,0.0,8.6094,8.6094,8.6094,8.6094,8.6094,8.6094,8.6094,8.6094,8.6094,8.6094,8.6094,8.6094,8.6094,8.6094,8.6094,8.6132,8.6401,8.6863,8.7478,8.7979,8.8132,8.8325,8.9556,9.0094,9.0402,9.1018,9.121,9.121,9.121,9.121,9.121,9.121,9.121,9.121,9.121,9.121,9.121,9.121,9.1364,9.1638,9.2016,9.2161,9.2304,9.2578,9.2383,9.2226,9.2226,9.125,9.0547,9.0547,8.9765,8.9023,8.8398,8.8359,8.8125,8.7539,8.8047,8.8086,8.7539,8.8047,8.8086,8.7539,8.75,8.75,8.75,8.75,8.75,8.75,8.75,8.75,8.75,8.75,8.7812,8.8398,8.9258,8.9609,8.9648,8.9883,9.0,9.0,9.0,9.0,9.0078,9.0703,9.0937,9.1015,8.0125,8.0643,8.1093,8.1093,8.1093,8.1362,8.217,8.2285,8.2593,8.3439,8.3555,8.3247,8.2362,8.3054,8.3555,8.3555,8.3555,8.3939,8.4824,8.4901,8.5247,0.0,0.0,8.6094,8.6094,8.6094,8.6094,8.6094,0.0,8.6094,8.6094,8.6094,8.6094,8.6094,8.6094,8.6094,8.6094,8.6094,8.6094,8.6094,8.6094,8.6094,8.6094,8.6094,8.6094,8.6209,8.7094,8.7401,8.7632,8.9325,8.9863,8.9863,8.9902,9.0479,9.121,9.121,9.121,9.121,9.121,9.121,9.121,9.121,9.121,9.121,9.121,9.121,9.121,9.121,9.1364,9.1556,9.1822,9.2059,9.2304,9.2578,9.1875,9.1328,9.1328,8.9804,8.8711,8.8711,8.8008,8.7539,8.7539,8.75,8.75,8.75,8.75,8.75,8.75,8.75,8.75,8.75,8.75,8.75,8.75,8.75,8.75,8.75,8.75,8.75,8.75,8.75,8.75,8.7578,8.8359,8.8711,8.8789,8.9648,9.0,9.0,9.0,9.0,9.0,9.0,9.0039,9.0039,7.8902,7.9827,8.06,8.06,8.146,8.2224,8.2454,8.2894,8.3285,8.3555,8.4132,8.4401,8.4093,8.3785,8.3824,8.4439,8.4478,8.4824,8.567,8.5709,8.5824,8.6094,8.6094,8.6094,8.6094,8.6094,8.6094,8.6094,8.6094,8.6094,8.6094,8.6094,8.6094,8.6094,8.6094,8.6094,8.6094,8.6094,8.6094,8.6094,8.6094,8.6094,8.6094,8.6094,8.6094,8.6209,8.7094,8.7786,8.844,8.9556,9.0287,9.0787,9.0787,9.0979,9.121,9.121,9.121,9.121,9.121,9.121,9.121,9.121,9.121,9.121,9.121,9.121,9.121,9.121,9.1248,9.1364,9.1595,9.185,9.2091,9.2303,9.1758,9.1289,9.1289,8.9804,8.8711,8.8711,8.8008,8.75,8.75,8.75,8.75,8.75,8.75,8.75,8.75,8.75,8.75,8.75,8.75,8.75,8.75,8.75,8.75,8.75,8.75,8.75,8.75,8.75,8.75,8.75,8.7773,8.789,8.789,8.8164,8.8281,8.8281,8.8281,8.8281,8.8359,8.8906,8.9101,8.9219,7.9166,8.0066,8.0849,8.0849,8.1805,8.2718,8.3061,8.3633,8.4209,8.4478,8.5016,8.5363,8.5363,8.4863,8.4747,8.5286,8.5363,8.5555,8.6055,8.6094,8.6094,8.6094,8.6094,8.6094,8.6094,8.6094,8.6094,8.6094,8.6094,8.6094,8.6094,8.6094,8.6094,8.6094,8.6094,8.6094,8.6094,8.6094,8.6094,8.6094,8.6094,8.6094,8.6094,8.6094,8.6286,8.6709,8.7594,8.844,8.9286,9.0133,9.0748,9.121,9.121,9.121,9.121,9.121,9.121,9.121,9.121,9.121,9.121,9.121,9.121,9.121,9.121,9.121,9.121,9.121,9.121,9.1248,9.1441,9.1736,9.1976,9.2179,9.1406,9.082,9.082,8.9336,8.8242,8.8242,8.7812,8.75,8.75,8.75,8.75,8.75,8.75,8.75,8.75,8.75,8.75,8.75,8.75,8.75,8.75,8.75,8.75,8.75,8.75,8.75,8.75,8.75,8.75,8.75,8.75,8.75,8.75,8.75,8.75,8.75,8.75,8.75,8.7578,8.8047,8.8242,8.832,8.0507,8.1162,8.157,8.1619,8.2216,8.3021,8.3862,8.4552,8.5247,8.6017,8.6094,8.6094,8.6094,8.6094,8.6094,8.6094,8.6094,8.6094,8.6094,8.6094,8.6094,8.6094,8.6094,8.6094,8.6094,8.6094,8.6094,8.6094,8.6094,8.6094,8.6094,8.6094,8.6094,8.6094,8.6094,8.6094,8.6094,8.6094,8.6094,8.6094,8.6094,8.6094,8.6094,8.617,8.6709,8.7517,8.844,8.9248,9.0056,9.0902,9.121,9.121,9.121,9.121,9.121,9.121,9.121,9.121,9.121,9.121,9.121,9.121,9.121,9.121,9.121,9.121,9.121,9.121,9.121,9.1248,9.1441,9.171,9.1937,9.2161,9.1015,9.0078,9.0,8.8594,8.7578,8.75,8.75,8.75,8.75,8.75,8.75,8.75,8.75,8.75,8.75,8.75,8.75,8.75,8.75,8.75,8.75,8.75,8.75,8.75,8.75,8.75,8.75,8.75,8.75,8.75,8.75,8.75,8.75,8.75,8.75,8.75,8.75,8.75,8.75,8.75,8.75,8.75,8.0002,8.0604,8.1274,8.1829,8.2962,8.4029,8.4695,8.5396,8.5901,8.6094,8.6094,8.6094,8.6094,8.6094,8.6094,8.6094,8.6094,8.6094,8.6094,8.6094,8.6094,8.6094,8.6094,8.6094,8.6094,8.6094,8.6094,8.6094,8.6094,8.6094,8.6094,8.6094,8.6094,8.6094,8.6094,8.6094,8.6094,8.6094,8.6094,8.6094,8.6094,8.6094,8.617,8.6824,8.7209,8.7594,8.9094,8.9748,9.0056,9.0902,9.121,9.121,9.121,9.121,9.121,9.121,9.121,9.121,9.121,9.121,9.121,9.121,9.121,9.121,9.121,9.121,9.121,9.121,9.121,9.121,9.1248,9.1595,9.1917,9.1942,9.1408,9.0742,9.0078,8.9101,8.8203,8.7578,8.75,8.75,8.75,8.75,8.75,8.75,8.75,8.75,8.75,8.75,8.75,8.75,8.75,8.75,8.75,8.75,8.75,8.75,8.75,8.75,8.75,8.75,8.75,8.75,8.75,8.75,8.75,8.75,8.75,8.75,8.75,8.75,8.75,8.75,8.75,8.75,8.0828,8.1232,8.1654,8.2042,8.3004,8.3979,8.4605,8.524,8.5737,8.606,8.6094,8.6094,8.6094,8.6094,8.6094,8.6094,8.6094,8.6094,8.6094,8.6094,8.6094,8.6094,8.6094,8.6094,8.6094,8.6094,8.6094,8.6094,8.6094,8.6094,8.6094,8.6094,8.6094,8.6094,8.6094,8.6094,8.6094,8.6094,8.6094,8.6094,8.6094,8.6094,8.6209,8.7055,8.7632,8.8171,8.944,9.0171,9.0556,9.1056,9.121,9.121,9.121,9.121,9.121,9.121,9.121,9.121,9.121,9.121,9.121,9.121,9.121,9.121,9.121,9.121,9.121,9.121,9.121,9.121,9.121,9.1556,9.1894,9.1918,9.157,9.1133,9.0664,8.9492,8.8554,8.8086,8.7734,8.75,8.75,8.75,8.75,8.75,8.75,8.75,8.75,8.75,8.75,8.75,8.75,8.75,8.75,8.75,8.75,8.75,8.75,8.75,8.75,8.75,8.75,8.75,8.75,8.75,8.75,8.75,8.75,8.75,8.75,8.75,8.75,8.75,8.75,8.75,8.2076,8.2186,8.2251,8.2343,8.2853,8.3433,8.4117,8.4696,8.532,8.5846,8.606,8.6094,8.6094,8.6094,8.6094,8.6094,8.6094,8.6094,8.6094,8.6094,8.6094,8.6094,8.6094,8.6094,8.6094,8.6094,8.6094,8.6094,8.6094,8.6094,8.6094,8.6094,8.6094,8.6094,8.6094,8.6094,8.6094,8.6094,8.6094,8.6094,8.6094,8.617,8.6401,8.7248,8.8132,8.8979,8.9787,9.0556,9.121,9.121,9.121,9.121,9.121,9.121,9.121,9.121,9.121,9.121,9.121,9.121,9.121,9.121,9.121,9.121,9.121,9.121,9.121,9.121,9.121,9.121,9.121,9.1556,9.1855,9.188,9.1655,9.1406,9.1328,9.0039,8.8984,8.8711,8.8086,8.7617,8.75,8.75,8.75,8.75,8.75,8.75,8.75,8.75,8.75,8.75,8.75,8.75,8.75,8.75,8.75,8.75,8.75,8.75,8.75,8.75,8.75,8.75,8.75,8.75,8.75,8.75,8.75,8.75,8.75,8.75,8.75,8.75,8.75,8.75,8.2186,8.2186,8.2407,8.2935,8.3132,8.3433,8.408,8.4696,8.5162,8.5242,8.5737,8.6094,8.6094,8.6094,8.6094,8.6094,8.6094,8.6094,8.6094,8.6094,8.6094,8.6094,8.6094,8.6094,8.6094,8.6094,8.6094,8.6094,8.6094,8.6094,8.6094,8.6094,8.6094,8.6094,8.6094,8.6094,8.6094,8.6094,8.6094,8.6094,8.6094,8.6555,8.7286,8.8171,8.9017,8.9825,9.071,9.1095,9.121,9.121,9.121,9.121,9.121,9.121,9.121,9.121,9.121,9.121,9.121,9.121,9.121,9.121,9.121,9.121,9.121,9.121,9.121,9.121,9.121,9.121,9.121,9.1402,9.1624,9.188,9.2007,9.1875,9.1367,9.1054,9.0351,8.8867,8.8594,8.8242,8.7578,8.75,8.75,8.75,8.75,8.75,8.75,8.75,8.75,8.75,8.75,8.75,8.75,8.75,8.75,8.75,8.75,8.75,8.75,8.75,8.75,8.75,8.75,8.75,8.75,8.75,8.75,8.75,8.75,8.75,8.75,8.75,8.75,8.75,8.2186,8.2186,8.2279,8.2585,8.2647,8.2913,8.3543,8.3928,8.4335,8.4999,8.536,8.57,8.606,8.6094,8.6094,8.6094,8.6094,8.6094,8.6094,8.6094,8.6094,8.6094,8.6094,8.6094,8.6094,8.6094,8.6094,8.6094,8.6094,8.6094,8.6094,8.6094,8.6094,8.6094,8.6094,8.6094,8.6094,8.6094,8.6094,8.6094,8.6094,8.6632,8.7478,8.8363,8.921,9.0017,9.0902,9.121,9.121,9.121,9.121,9.121,9.121,9.121,9.121,9.121,9.121,9.121,9.121,9.121,9.121,9.121,9.121,9.121,9.121,9.121,9.121,9.121,9.121,9.121,9.121,9.1364,9.1578,9.186,9.2066,9.2148,9.2031,9.1601,9.082,8.9531,8.8984,8.8398,8.7578,8.75,8.75,8.75,8.75,8.75,8.75,8.75,8.75,8.75,8.75,8.75,8.75,8.75,8.75,8.75,8.75,8.75,8.75,8.75,8.75,8.75,8.75,8.75,8.75,8.75,8.75,8.75,8.75,8.75,8.75,8.75,8.75,8.75,8.2186,8.2186,8.2186,8.2186,8.2186,8.2407,8.2913,8.3074,8.3505,8.4522,8.4915,8.532,8.5811,8.6026,8.6094,8.6094,8.6094,8.6094,8.6094,8.6094,8.6094,8.6094,8.6094,8.6094,8.6094,8.6094,8.6094,8.6094,8.6094,8.6094,8.6094,8.6094,8.6094,8.6094,8.6094,8.6094,8.6094,8.6094,8.6094,8.6094,8.6094,8.6748,8.7786,8.844,8.9325,9.0287,9.0979,9.121,9.121,9.121,9.121,9.121,9.121,9.121,9.121,9.121,9.121,9.121,9.121,9.121,9.121,9.121,9.121,9.121,9.121,9.121,9.121,9.121,9.121,9.121,9.121,9.1325,9.1518,9.1825,9.2031,9.2255,9.2578,9.2031,9.1211,9.0117,8.9414,8.8594,8.7617,8.75,8.75,8.75,8.75,8.75,8.75,8.75,8.75,8.75,8.75,8.75,8.75,8.75,8.75,8.75,8.75,8.75,8.75,8.75,8.75,8.75,8.75,8.75,8.75,8.75,8.75,8.75,8.75,8.75,8.75,8.75,8.75,8.75,8.2186,8.2186,8.2186,8.2186,8.2186,8.2186,8.2251,8.2793,8.3246,8.3322,8.4382,8.5121,8.5162,8.57,8.6094,8.6094,8.6094,8.6094,8.6094,8.6094,8.6094,8.6094,8.6094,8.6094,8.6094,8.6094,8.6094,8.6094,8.6094,8.6094,8.6094,8.6094,8.6094,8.6094,8.6094,8.6094,8.6094,8.6094,8.6094,8.6094,8.6094,8.7094,8.8594,8.8671,8.971,9.1133,9.1171,9.121,9.121,9.121,9.121,9.121,9.121,9.121,9.121,9.121,9.121,9.121,9.121,9.121,9.121,9.121,9.121,9.121,9.121,9.121,9.121,9.121,9.121,9.121,9.121,9.121,9.1364,9.1825,9.1888,9.2093,9.2537,9.2539,9.1875,9.0195,8.9922,8.9258,8.7656,8.75,8.75,8.75,8.75,8.75,8.75,8.75,8.75,8.75,8.75,8.75,8.75,8.75,8.75,8.75,8.75,8.75,8.75,8.75,8.75,8.75,8.75,8.75,8.75,8.75,8.75,8.75,8.75,8.75,8.75,8.75,8.75,8.75,8.2186,8.2186,8.2186,8.2186,8.2186,8.2186,8.2186,8.2407,8.2732,8.3132,8.3613,8.4042,8.4513,8.5121,8.5475,8.5475,8.5846,8.6094,8.6094,8.6094,8.6094,8.6094,8.6094,8.6094,8.6094,8.6094,8.6094,8.6094,8.6094,8.6094,8.6094,8.6094,8.6094,8.6094,8.6094,8.6094,8.6094,8.6094,8.6094,8.6094,8.6094,8.7132,8.8709,8.8709,8.9748,9.121,9.121,9.121,9.121,9.121,9.121,9.121,9.121,9.121,9.121,9.121,9.121,9.121,9.121,9.121,9.121,9.121,9.121,9.121,9.121,9.121,9.121,9.121,9.121,9.121,9.121,9.121,9.1364,9.1787,9.1902,9.2068,9.2535,9.2617,9.1953,9.0195,9.0,8.9336,8.7656,8.75,8.75,8.75,8.75,8.75,8.75,8.75,8.75,8.75,8.75,8.75,8.75,8.75,8.75,8.75,8.75,8.75,8.75,8.75,8.75,8.75,8.75,8.75,8.75,8.75,8.75,8.75,8.75,8.75,8.75,8.75,8.75,8.75,8.2186,8.2186,8.2186,8.2186,8.2186,8.2186,8.2186,8.2186,8.2343,8.2853,8.3111,8.3378,8.3824,8.4605,8.5121,8.5121,8.57,8.6094,8.6094,8.6094,8.6094,8.6094,8.6094,8.6094,8.6094,8.6094,8.6094,8.6094,8.6094,8.6094,8.6094,8.6094,8.6094,8.6094,8.6094,8.6094,8.6094,8.6094,8.6094,8.6094,8.6094,8.7132,8.8709,8.8709,8.9748,9.121,9.121,9.121,9.121,9.121,9.121,9.121,9.121,9.121,9.121,9.121,9.121,9.121,9.121,9.121,9.121,9.121,9.121,9.121,9.121,9.121,9.121,9.121,9.121,9.121,9.121,9.121,9.1364,9.1787,9.1902,9.2068,9.2535,9.2344,9.164,9.0156,8.9765,8.9023,8.7656,8.75,8.75,8.75,8.75,8.75,8.75,8.75,8.75,8.75,8.75,8.75,8.75,8.75,8.75,8.75,8.75,8.75,8.75,8.75,8.75,8.75,8.75,8.75,8.75,8.75,8.75,8.75,8.75,8.75,8.75,8.75,8.75,8.75,8.2186,8.2186,8.2186,8.2186,8.2186,8.2186,8.2186,8.2186,8.2186,8.2186,8.2793,8.3189,8.3189,8.4335,8.5121,8.5121,8.57,8.6094,8.6094,8.6094,8.6094,8.6094,8.6094,8.6094,8.6094,8.6094,8.6094,8.6094,8.6094,8.6094,8.6094,8.6094,8.6094,8.6094,8.6094,8.6094,8.6094,8.6094,8.6094,8.6094,8.6094,8.7132,8.8671,8.8709,8.9748,9.121,9.121,9.121,9.121,9.121,9.121,9.121,9.121,9.121,9.121,9.121,9.121,9.121,9.121,9.121,9.121,9.121,9.121,9.121,9.121,9.121,9.121,9.121,9.121,9.121,9.121,9.121,9.1364,9.1787,9.1902,9.2068,9.2535,9.1836,9.0976,9.0078,8.9219,8.8398,8.7578,8.75,8.75,8.75,8.75,8.75,8.75,8.75,8.75,8.75,8.75,8.75,8.75,8.75,8.75,8.75,8.75,8.75,8.75,8.75,8.75,8.75,8.75,8.75,8.75,8.75,8.75,8.75,8.75,8.75,8.75,8.75,8.75,8.75,8.2186,8.2186,8.2186,8.2186,8.2186,8.2186,8.2186,8.2186,8.2186,8.2186,8.2407,8.2497,8.2497,8.3303,8.3979,8.442,8.5037,8.5589,8.606,8.6094,8.6094,8.6094,8.6094,8.6094,8.6094,8.6094,8.6094,8.6094,8.6094,8.6094,8.6094,8.6094,8.6094,8.6094,8.6094,8.6094,8.6094,8.6094,8.6094,8.6094,8.6094,8.6786,8.7863,8.8479,8.9363,9.0364,9.0979,9.121,9.121,9.121,9.121,9.121,9.121,9.121,9.121,9.121,9.121,9.121,9.121,9.121,9.121,9.121,9.121,9.121,9.121,9.121,9.121,9.121,9.121,9.121,9.121,9.121,9.1364,9.1787,9.1373,9.1158,9.1637,9.0937,9.0078,8.9179,8.8867,8.8398,8.7578,8.75,8.75,8.75,8.75,8.75,8.75,8.75,8.75,8.75,8.75,8.75,8.75,8.75,8.75,8.75,8.75,8.75,8.75,8.75,8.75,8.75,8.75,8.75,8.75,8.75,8.75,8.75,8.75,8.75,8.75,8.75,8.75,8.75,8.2186,8.2186,8.2186,8.2186,8.2186,8.2186,8.2186,8.2186,8.2186,8.2186,8.2186,8.2186,8.2186,8.2793,8.3322,8.3772,8.4372,8.5037,8.5664,8.57,8.5811,8.6094,8.6094,8.6094,8.6094,8.6094,8.6094,8.6094,8.6094,8.6094,8.6094,8.6094,8.6094,8.6094,8.6094,8.6094,8.6094,8.6094,8.6094,8.6094,8.6094,8.6632,8.744,8.7979,8.8709,8.9556,9.0402,9.071,9.0748,9.1095,9.121,9.121,9.121,9.121,9.121,9.121,9.121,9.121,9.121,9.121,9.121,9.121,9.121,9.121,9.121,9.121,9.121,9.121,9.121,9.121,9.121,9.0941,9.0825,9.1325,9.0636,9.0262,9.0739,9.0039,8.9297,8.875,8.8437,8.8047,8.7539,8.75,8.75,8.75,8.75,8.75,8.75,8.75,8.75,8.75,8.75,8.75,8.75,8.75,8.75,8.75,8.75,8.75,8.75,8.75,8.75,8.75,8.75,8.75,8.75,8.75,8.75,8.75,8.75,8.75,8.75,8.75,8.75,8.75,8.2186,8.2186,8.2186,8.2186,8.2186,8.2186,8.2186,8.2186,8.2186,8.2186,8.2186,8.2186,8.2186,8.2732,8.3132,8.3189,8.3824,8.442,8.4957,8.5079,8.536,8.5988,8.606,8.6094,8.6094,8.6094,8.6094,8.6094,8.6094,8.6094,8.6094,8.6094,8.6094,8.6094,8.6094,8.6094,8.6094,8.6094,8.6094,8.6094,8.6094,8.6594,8.7286,8.7363,8.7902,8.8671,8.9517,8.9787,8.9902,9.071,9.0979,9.0979,9.0979,9.0979,9.0979,9.0979,9.0979,9.0979,9.0979,9.0979,9.0979,9.0979,9.0979,9.1018,9.1171,9.121,9.1171,9.1095,9.1095,9.1056,9.0979,9.0325,8.994,9.0441,8.9759,8.9365,8.9801,8.914,8.8594,8.8594,8.7969,8.75,8.75,8.75,8.75,8.75,8.75,8.75,8.75,8.75,8.75,8.75,8.75,8.75,8.75,8.75,8.75,8.75,8.75,8.75,8.75,8.75,8.75,8.75,8.75,8.75,8.75,8.75,8.75,8.75,8.75,8.75,8.75,8.75,8.75,8.75,8.2186,8.2186,8.2186,8.2186,8.2186,8.2186,8.2186,8.2186,8.2186,8.2186,8.2186,8.2186,8.2186,8.2343,8.2647,8.3132,8.3824,8.4276,8.4372,8.4828,8.5162,8.532,8.5811,8.6094,8.6094,8.6094,8.6094,8.6094,8.6094,8.6094,8.6094,8.6094,8.6094,8.6094,8.6094,8.6094,8.6094,8.6094,8.6094,8.6094,8.6094,8.6209,8.6478,8.7132,8.7517,8.7786,8.8632,8.894,8.8979,8.9171,8.9248,8.9248,8.9248,8.9248,8.9248,8.9248,8.9248,8.9248,8.9248,8.9248,8.9248,8.9248,8.9248,8.9594,9.0902,9.121,9.1018,9.0325,9.0171,8.9979,8.9363,8.9094,8.9094,8.9479,8.8893,8.8495,8.8903,8.8281,8.7773,8.7773,8.7617,8.75,8.75,8.75,8.75,8.75,8.75,8.75,8.75,8.75,8.75,8.75,8.75,8.75,8.75,8.75,8.75,8.75,8.75,8.75,8.75,8.75,8.75,8.75,8.75,8.75,8.75,8.75,8.75,8.75,8.75,8.75,8.75,8.75,8.75,8.7383,8.2186,8.2186,8.2186,8.2186,8.2186,8.2186,8.2186,8.2186,8.2186,8.2186,8.2186,8.2186,8.2186,8.2186,8.2343,8.2708,8.3053,8.3543,8.4129,8.4228,8.4605,8.5551,8.5627,8.5775,8.6094,8.6094,8.6094,8.6094,8.6094,8.6094,8.6094,8.6094,8.6094,8.6094,8.6094,8.6094,8.6094,8.6094,8.6094,8.6094,8.6094,8.6094,8.617,8.6594,8.6786,8.6901,8.7786,8.8363,8.8709,8.8709,8.8709,8.8709,8.8709,8.8709,8.8709,8.8709,8.8709,8.8709,8.8709,8.8709,8.8709,8.8709,8.8709,8.894,8.9825,9.0017,8.9863,8.9402,8.9325,8.921,8.8786,8.8363,8.8171,8.8479,8.7924,8.7612,8.7887,8.7695,8.75,8.75,8.75,8.75,8.75,8.75,8.75,8.75,8.75,8.75,8.75,8.75,8.75,8.75,8.75,8.75,8.75,8.75,8.75,8.75,8.75,8.75,8.75,8.75,8.75,8.75,8.75,8.75,8.75,8.75,8.7265,8.6875,8.6875,8.664,8.625,8.625,8.625,8.6172,8.2186,8.2186,8.2186,8.2186,8.2186,8.2186,8.2186,8.2186,8.2186,8.2186,8.2186,8.2186,8.2186,8.2186,8.2186,8.2186,8.2186,8.2708,8.3772,8.3433,8.3979,8.57,8.536,8.5399,8.6094,8.6094,8.6094,8.6094,8.6094,8.6094,8.6094,8.6094,8.6094,8.6094,8.6094,8.6094,8.6094,8.6094,8.6094,8.6094,8.6094,8.6094,8.6094,8.6094,8.6094,8.6209,8.6901,8.7632,8.8248,8.8248,8.8248,8.8248,8.8248,8.8248,8.8248,8.8248,8.8248,8.8248,8.8248,8.8248,8.8248,8.8248,8.8248,8.8248,8.8248,8.8479,8.8671,8.8517,8.8479,8.844,8.8286,8.7671,8.7248,8.7517,8.7152,8.688,8.7145,8.7344,8.75,8.75,8.75,8.75,8.75,8.75,8.75,8.75,8.75,8.75,8.75,8.75,8.75,8.75,8.75,8.75,8.75,8.75,8.75,8.75,8.75,8.75,8.75,8.75,8.75,8.75,8.75,8.7422,8.7265,8.7265,8.6758,8.5976,8.5976,8.5547,8.4883,8.4883,8.4804,8.4687,8.2186,8.2186,8.2186,8.2186,8.2186,8.2186,8.2186,8.2186,8.2186,8.2186,8.2186,8.2186,8.2186,8.2186,8.2186,8.2186,8.2186,8.2316,8.2434,8.2935,8.3597,8.442,8.4872,8.5399,8.6094,8.6094,8.6094,8.6094,8.6094,8.6094,8.6094,8.6094,8.6094,8.6094,8.6094,8.6094,8.6094,8.6094,8.6094,8.6094,8.6094,8.6094,8.6094,8.6094,8.6094,8.6132,8.6247,8.6363,8.644,8.644,8.644,8.644,8.644,8.644,8.644,8.644,8.644,8.644,8.644,8.644,8.644,8.644,8.644,8.644,8.644,8.7632,8.8479,8.7709,8.7594,8.7363,8.6594,8.6363,8.6401,8.6824,8.6846,8.694,8.7372,8.7461,8.75,8.75,8.75,8.75,8.75,8.75,8.75,8.75,8.75,8.75,8.75,8.75,8.75,8.75,8.75,8.75,8.75,8.75,8.75,8.75,8.75,8.75,8.75,8.75,8.75,8.75,8.75,8.707,8.6367,8.6367,8.5859,8.5078,8.5078,8.5,8.4883,8.4883,8.4414,8.3789,8.2186,8.2186,8.2186,8.2186,8.2186,8.2186,8.2186,8.2186,8.2186,8.2186,8.2186,8.2186,8.2186,8.2186,8.2186,8.2186,8.2186,8.2343,8.2732,8.3053,8.3613,8.4651,8.4957,8.5399,8.6094,8.6094,8.6094,8.6094,8.6094,8.6094,8.6094,8.6094,8.6094,8.6094,8.6094,8.6094,8.6094,8.6094,8.6094,8.6094,8.6094,8.6094,8.6094,8.6094,8.6094,8.6094,8.6094,8.6094,8.6094,8.6094,8.6094,8.6094,8.6094,8.6094,8.6094,8.6094,8.6094,8.6094,8.6094,8.6094,8.6094,8.6094,8.6094,8.6094,8.6094,8.6709,8.7132,8.6748,8.6671,8.6555,8.617,8.6094,8.6209,8.6555,8.6721,8.6932,8.7215,8.7425,8.75,8.75,8.75,8.75,8.75,8.75,8.75,8.75,8.75,8.75,8.75,8.75,8.75,8.75,8.75,8.75,8.75,8.75,8.75,8.75,8.75,8.75,8.75,8.75,8.75,8.7461,8.6992,8.6562,8.6172,8.5664,8.4961,8.4179,8.4179,8.3867,8.3437,8.3437,8.3203,8.2851]},{"header":{"parameterUnit":"m.s-1","parameterCategory":1,"la1":30.6,"la2":28.766,"lo1":-90.7593,"lo2":-88.6598,"dy":0.0162,"dx":0.0183,"nx":116,"ny":114,"refTime":"2023-03-08T06:00:00:Z","depth":0,"parameterNumber":3,"parameterNumberName":"V-component_of_WINDS"},"data":[0.0,0.0,0.0,0.0,0.0,0.0,0.0,0.0,0.0,0.0,0.0,0.0,0.0,0.0,0.0,0.0,0.0,0.0,0.0,0.0,0.0,0.0,0.0,0.0,0.0,0.0,0.0,0.0,0.0,0.0,0.0,0.0,0.0,0.0,0.0,0.0,0.0,0.0,0.0,0.0,0.0,0.0,0.0,0.0,0.0,0.0,0.0,0.0,0.0,0.0,0.0,0.0,0.0,0.0,0.0,0.0,0.0,0.0,0.0,0.0,0.0,0.0,0.0,0.0,0.0,0.0,0.0,0.0,0.0,0.0,0.0,0.0,0.0,0.0,0.0,0.0,0.0,0.0,0.0,0.0,0.0,0.0,0.0,0.0,0.0,0.0,0.0,0.0,0.0,0.0,0.0,0.0,0.0,0.0,0.0,0.0,0.0,0.0,0.0,0.0,0.0,0.0,0.0,0.0,0.0,0.0,0.0,0.0,0.0,0.0,0.0,0.0,0.0,0.0,0.0,0.0,0.0,0.0,0.0,0.0,0.0,0.0,0.0,0.0,0.0,0.0,0.0,0.0,0.0,0.0,0.0,0.0,0.0,0.0,0.0,0.0,0.0,0.0,0.0,0.0,0.0,0.0,0.0,0.0,0.0,0.0,0.0,0.0,0.0,0.0,0.0,0.0,0.0,0.0,0.0,0.0,0.0,0.0,0.0,0.0,0.0,0.0,0.0,0.0,0.0,0.0,0.0,0.0,0.0,0.0,0.0,0.0,0.0,0.0,0.0,0.0,0.0,0.0,0.0,0.0,0.0,0.0,0.0,0.0,0.0,0.0,0.0,0.0,0.0,0.0,0.0,0.0,0.0,0.0,0.0,0.0,0.0,0.0,0.0,0.0,0.0,0.0,0.0,0.0,0.0,0.0,0.0,0.0,0.0,0.0,0.0,0.0,0.0,0.0,0.0,0.0,0.0,0.0,0.0,0.0,0.0,0.0,0.0,0.0,0.0,0.0,0.0,0.0,0.0,0.0,0.0,0.0,0.0,0.0,0.0,0.0,0.0,0.0,0.0,0.0,0.0,0.0,0.0,0.0,0.0,0.0,0.0,0.0,0.0,0.0,0.0,0.0,0.0,0.0,0.0,0.0,0.0,0.0,0.0,0.0,0.0,0.0,0.0,0.0,0.0,0.0,0.0,0.0,0.0,0.0,0.0,0.0,0.0,0.0,0.0,0.0,0.0,0.0,0.0,0.0,0.0,0.0,0.0,0.0,0.0,0.0,0.0,0.0,0.0,0.0,0.0,0.0,0.0,0.0,0.0,0.0,0.0,0.0,0.0,0.0,0.0,0.0,0.0,0.0,0.0,0.0,0.0,0.0,0.0,0.0,0.0,0.0,0.0,0.0,0.0,0.0,0.0,0.0,0.0,0.0,0.0,0.0,0.0,0.0,0.0,0.0,0.0,0.0,0.0,0.0,0.0,0.0,0.0,0.0,0.0,0.0,0.0,0.0,0.0,0.0,0.0,0.0,0.0,0.0,0.0,0.0,0.0,0.0,0.0,0.0,0.0,0.0,0.0,0.0,0.0,0.0,0.0,0.0,0.0,0.0,0.0,0.0,0.0,0.0,0.0,0.0,0.0,0.0,0.0,0.0,0.0,0.0,0.0,0.0,0.0,0.0,0.0,0.0,0.0,0.0,0.0,0.0,0.0,0.0,0.0,0.0,0.0,0.0,0.0,0.0,0.0,0.0,0.0,0.0,0.0,0.0,0.0,0.0,0.0,0.0,0.0,0.0,0.0,0.0,0.0,0.0,0.0,0.0,0.0,0.0,0.0,0.0,0.0,0.0,0.0,0.0,0.0,0.0,0.0,0.0,0.0,0.0,0.0,0.0,0.0,0.0,0.0,0.0,0.0,0.0,0.0,0.0,0.0,0.0,0.0,0.0,0.0,0.0,0.0,0.0,0.0,0.0,0.0,0.0,0.0,0.0,0.0,0.0,0.0,0.0,0.0,0.0,0.0,0.0,0.0,0.0,0.0,0.0,0.0,0.0,0.0,0.0,0.0,0.0,0.0,0.0,0.0,0.0,0.0,0.0,0.0,0.0,0.0,0.0,0.0,0.0,0.0,0.0,0.0,0.0,0.0,0.0,0.0,0.0,0.0,0.0,0.0,0.0,0.0,0.0,0.0,0.0,0.0,0.0,0.0,0.0,0.0,0.0,0.0,0.0,0.0,0.0,0.0,0.0,0.0,0.0,0.0,0.0,0.0,0.0,0.0,0.0,0.0,0.0,0.0,0.0,0.0,0.0,0.0,0.0,0.0,0.0,0.0,0.0,0.0,0.0,0.0,0.0,0.0,0.0,0.0,0.0,0.0,0.0,0.0,0.0,0.0,0.0,0.0,0.0,0.0,0.0,0.0,0.0,0.0,0.0,0.0,0.0,0.0,0.0,0.0,0.0,0.0,0.0,0.0,0.0,0.0,0.0,0.0,0.0,0.0,0.0,0.0,0.0,0.0,0.0,0.0,0.0,0.0,0.0,0.0,0.0,0.0,0.0,0.0,0.0,0.0,0.0,0.0,0.0,0.0,0.0,0.0,0.0,0.0,0.0,0.0,0.0,0.0,0.0,0.0,0.0,0.0,0.0,0.0,0.0,0.0,0.0,0.0,0.0,0.0,0.0,0.0,0.0,0.0,0.0,0.0,0.0,0.0,0.0,0.0,0.0,0.0,0.0,0.0,0.0,0.0,0.0,0.0,0.0,0.0,0.0,0.0,0.0,0.0,0.0,0.0,0.0,0.0,0.0,0.0,0.0,0.0,0.0,0.0,0.0,0.0,0.0,0.0,0.0,0.0,0.0,0.0,0.0,0.0,0.0,0.0,0.0,0.0,0.0,0.0,0.0,0.0,0.0,0.0,0.0,0.0,0.0,0.0,0.0,0.0,0.0,0.0,0.0,0.0,0.0,0.0,0.0,0.0,0.0,0.0,0.0,0.0,0.0,0.0,0.0,0.0,0.0,0.0,0.0,0.0,0.0,0.0,0.0,0.0,0.0,0.0,0.0,0.0,0.0,0.0,0.0,0.0,0.0,0.0,0.0,0.0,0.0,0.0,0.0,0.0,0.0,0.0,0.0,0.0,0.0,0.0,0.0,0.0,0.0,0.0,0.0,0.0,0.0,0.0,0.0,0.0,0.0,0.0,0.0,0.0,0.0,0.0,0.0,0.0,0.0,0.0,0.0,0.0,0.0,0.0,0.0,0.0,0.0,0.0,0.0,0.0,0.0,0.0,0.0,0.0,0.0,0.0,0.0,0.0,0.0,0.0,0.0,0.0,0.0,0.0,0.0,0.0,0.0,0.0,0.0,0.0,0.0,0.0,0.0,0.0,0.0,0.0,0.0,0.0,0.0,0.0,0.0,0.0,0.0,0.0,0.0,0.0,0.0,0.0,0.0,0.0,0.0,0.0,0.0,0.0,0.0,0.0,0.0,0.0,0.0,0.0,0.0,0.0,0.0,0.0,0.0,0.0,0.0,0.0,0.0,0.0,0.0,0.0,0.0,0.0,0.0,0.0,0.0,0.0,0.0,0.0,0.0,0.0,0.0,0.0,0.0,0.0,0.0,0.0,0.0,0.0,0.0,0.0,0.0,0.0,0.0,0.0,0.0,0.0,0.0,0.0,0.0,0.0,0.0,0.0,0.0,0.0,0.0,0.0,0.0,0.0,0.0,0.0,0.0,0.0,0.0,0.0,0.0,0.0,0.0,0.0,0.0,0.0,0.0,0.0,0.0,0.0,0.0,0.0,0.0,0.0,0.0,0.0,0.0,0.0,0.0,0.0,0.0,0.0,0.0,0.0,0.0,0.0,0.0,0.0,0.0,0.0,0.0,0.0,0.0,0.0,0.0,0.0,0.0,0.0,0.0,0.0,0.0,0.0,0.0,0.0,0.0,0.0,0.0,0.0,0.0,0.0,0.0,0.0,0.0,0.0,0.0,0.0,0.0,0.0,0.0,0.0,0.0,0.0,0.0,0.0,0.0,0.0,0.0,0.0,0.0,0.0,0.0,0.0,0.0,0.0,0.0,0.0,0.0,0.0,0.0,0.0,0.0,0.0,0.0,0.0,0.0,0.0,0.0,0.0,0.0,0.0,0.0,0.0,0.0,0.0,0.0,0.0,0.0,0.0,0.0,0.0,0.0,0.0,0.0,0.0,0.0,0.0,0.0,0.0,0.0,0.0,0.0,0.0,0.0,0.0,0.0,0.0,0.0,0.0,0.0,0.0,0.0,0.0,0.0,0.0,0.0,0.0,0.0,0.0,0.0,0.0,0.0,0.0,0.0,0.0,0.0,0.0,0.0,0.0,0.0,0.0,0.0,0.0,0.0,0.0,0.0,0.0,0.0,0.0,0.0,0.0,0.0,0.0,0.0,0.0,0.0,0.0,0.0,0.0,0.0,0.0,0.0,0.0,0.0,0.0,0.0,0.0,0.0,0.0,0.0,0.0,0.0,0.0,0.0,0.0,0.0,0.0,0.0,0.0,0.0,0.0,0.0,0.0,0.0,0.0,0.0,0.0,0.0,0.0,0.0,0.0,0.0,0.0,0.0,0.0,0.0,0.0,0.0,0.0,0.0,0.0,0.0,0.0,0.0,0.0,0.0,0.0,0.0,0.0,0.0,0.0,0.0,0.0,0.0,0.0,0.0,0.0,0.0,0.0,0.0,0.0,0.0,0.0,0.0,0.0,0.0,0.0,0.0,0.0,0.0,0.0,0.0,0.0,0.0,0.0,0.0,0.0,0.0,0.0,0.0,0.0,0.0,0.0,0.0,0.0,0.0,0.0,0.0,0.0,0.0,0.0,0.0,0.0,0.0,0.0,0.0,0.0,0.0,0.0,0.0,0.0,0.0,0.0,0.0,0.0,0.0,0.0,0.0,0.0,0.0,0.0,0.0,0.0,0.0,0.0,0.0,0.0,0.0,0.0,0.0,0.0,0.0,0.0,0.0,0.0,0.0,0.0,0.0,0.0,0.0,0.0,0.0,0.0,0.0,0.0,0.0,0.0,0.0,0.0,0.0,0.0,0.0,0.0,0.0,0.0,0.0,0.0,0.0,0.0,0.0,0.0,0.0,0.0,0.0,0.0,0.0,0.0,0.0,0.0,0.0,0.0,0.0,0.0,0.0,0.0,0.0,0.0,0.0,0.0,0.0,0.0,0.0,0.0,0.0,0.0,0.0,0.0,0.0,0.0,0.0,0.0,0.0,0.0,0.0,0.0,0.0,0.0,0.0,0.0,0.0,0.0,0.0,0.0,0.0,0.0,0.0,0.0,0.0,0.0,0.0,0.0,0.0,0.0,0.0,0.0,0.0,0.0,0.0,0.0,0.0,0.0,0.0,0.0,0.0,0.0,0.0,0.0,0.0,0.0,0.0,0.0,0.0,0.0,0.0,0.0,0.0,0.0,0.0,0.0,0.0,0.0,0.0,0.0,0.0,0.0,0.0,0.0,0.0,0.0,0.0,0.0,0.0,0.0,0.0,0.0,0.0,0.0,0.0,0.0,0.0,0.0,0.0,0.0,0.0,0.0,0.0,0.0,0.0,0.0,0.0,0.0,0.0,0.0,0.0,0.0,0.0,0.0,0.0,0.0,0.0,0.0,0.0,0.0,0.0,0.0,0.0,0.0,0.0,0.0,0.0,0.0,0.0,0.0,0.0,0.0,0.0,0.0,0.0,0.0,0.0,0.0,0.0,0.0,0.0,0.0,0.0,0.0,0.0,0.0,0.0,0.0,0.0,0.0,0.0,0.0,0.0,0.0,0.0,0.0,0.0,0.0,0.0,0.0,0.0,0.0,0.0,0.0,0.0,0.0,0.0,0.0,0.0,0.0,0.0,0.0,0.0,0.0,0.0,0.0,0.0,0.0,0.0,0.0,0.0,0.0,0.0,0.0,0.0,0.0,0.0,0.0,0.0,0.0,0.0,0.0,0.0,0.0,0.0,0.0,0.0,0.0,0.0,0.0,0.0,0.0,0.0,0.0,0.0,0.0,0.0,0.0,0.0,0.0,0.0,0.0,0.0,0.0,0.0,0.0,0.0,0.0,0.0,0.0,0.0,0.0,0.0,0.0,0.0,0.0,0.0,0.0,0.0,0.0,0.0,0.0,0.0,0.0,0.0,0.0,0.0,0.0,0.0,0.0,0.0,0.0,0.0,0.0,0.0,0.0,0.0,0.0,0.0,0.0,0.0,0.0,0.0,0.0,0.0,0.0,0.0,0.0,0.0,0.0,0.0,0.0,0.0,0.0,0.0,0.0,0.0,0.0,0.0,0.0,0.0,0.0,0.0,0.0,0.0,0.0,0.0,0.0,0.0,0.0,0.0,0.0,0.0,0.0,0.0,0.0,0.0,0.0,0.0,0.0,0.0,0.0,0.0,0.0,0.0,0.0,0.0,0.0,0.0,0.0,0.0,0.0,0.0,0.0,0.0,0.0,0.0,0.0,0.0,0.0,0.0,0.0,0.0,0.0,0.0,0.0,0.0,0.0,0.0,0.0,0.0,0.0,0.0,0.0,0.0,0.0,0.0,0.0,0.0,0.0,0.0,0.0,0.0,0.0,0.0,0.0,0.0,0.0,0.0,0.0,0.0,0.0,0.0,0.0,0.0,0.0,0.0,0.0,0.0,0.0,0.0,0.0,0.0,0.0,0.0,0.0,0.0,0.0,0.0,0.0,0.0,0.0,0.0,0.0,0.0,0.0,0.0,0.0,0.0,0.0,0.0,0.0,0.0,0.0,0.0,0.0,0.0,0.0,0.0,0.0,0.0,0.0,0.0,0.0,0.0,0.0,0.0,0.0,0.0,0.0,0.0,0.0,0.0,0.0,0.0,0.0,0.0,0.0,0.0,0.0,0.0,0.0,0.0,0.0,0.0,0.0,0.0,0.0,0.0,0.0,0.0,0.0,0.0,0.0,0.0,0.0,0.0,0.0,0.0,0.0,0.0,0.0,0.0,0.0,0.0,0.0,0.0,0.0,0.0,0.0,0.0,0.0,0.0,0.0,0.0,0.0,0.0,0.0,0.0,0.0,0.0,0.0,0.0,0.0,0.0,0.0,0.0,0.0,0.0,0.0,0.0,0.0,0.0,0.0,0.0,0.0,0.0,0.0,0.0,0.0,0.0,0.0,0.0,0.0,0.0,0.0,0.0,0.0,0.0,0.0,0.0,0.0,0.0,0.0,0.0,0.0,0.0,0.0,0.0,0.0,0.0,0.0,0.0,0.0,0.0,0.0,0.0,0.0,0.0,0.0,0.0,0.0,0.0,0.0,0.0,0.0,0.0,0.0,0.0,1.1816,1.1837,1.1386,1.041,0.0,0.0,0.0,0.0,0.0,0.0,0.0,0.0,0.0,0.0,0.0,0.0,0.0,0.0,0.0,0.0,0.0,0.0,0.0,0.0,0.0,0.0,0.0,0.0,0.0,0.0,0.0,0.0,0.0,0.0,0.0,0.0,0.0,0.0,0.0,0.0,0.0,0.0,0.0,0.0,0.0,0.0,0.0,0.0,0.0,0.0,0.0,0.0,0.0,0.0,0.0,0.0,0.0,0.0,0.0,0.0,0.0,0.0,0.0,0.0,0.0,0.0,0.0,0.0,0.0,0.0,0.0,0.0,0.0,0.0,0.0,0.0,0.0,0.0,0.0,0.0,0.0,0.0,0.0,0.0,0.0,0.0,0.0,0.0,0.0,0.0,0.0,0.0,0.0,0.0,0.0,0.0,0.0,0.0,0.0,0.0,0.0,0.0,0.0,0.0,0.0,0.0,0.0,0.0,0.0,0.0,0.0,0.0,0.0,0.0,1.1735,1.1782,1.1837,1.2006,1.2169,1.2152,1.0514,0.9784,0.9816,0.9708,0.0,0.0,0.0,0.0,0.0,0.0,0.0,0.0,0.0,0.0,0.0,0.0,0.0,0.0,0.0,0.0,0.0,0.0,0.0,0.0,0.0,0.0,0.0,0.0,0.0,0.0,0.0,0.0,0.0,0.0,0.0,0.0,0.0,0.0,0.0,0.0,0.0,0.0,0.0,0.0,0.0,0.0,0.0,0.0,0.0,0.0,0.0,0.0,0.0,0.0,0.0,0.0,0.0,0.0,0.0,0.0,0.0,0.0,0.0,0.0,0.0,0.0,0.0,0.0,0.0,0.0,0.0,0.0,0.0,0.0,0.0,0.0,0.0,0.0,0.0,0.0,0.0,0.0,0.0,0.0,0.0,0.0,0.0,0.0,0.0,0.0,0.0,0.0,0.0,0.0,0.0,0.0,0.0,1.1619,0.0,0.0,0.0,0.0,0.0,0.0,0.0,0.0,0.0,0.0,0.0,0.0,1.1789,1.187,1.1952,1.2182,1.2311,1.2345,1.2454,1.2528,1.242,1.242,1.2434,0.0,0.0,0.0,0.0,0.0,0.0,0.0,0.0,0.0,0.0,0.0,0.0,0.0,0.0,0.0,0.0,0.0,0.0,0.0,0.0,0.0,0.0,0.0,0.0,0.0,0.0,0.0,0.0,0.0,0.0,0.0,0.0,0.0,0.0,0.0,0.0,0.0,0.0,0.0,0.0,0.0,0.0,0.0,0.0,0.0,0.0,0.0,0.0,0.0,0.0,0.0,0.0,0.0,0.0,0.0,0.0,0.0,0.0,0.0,0.0,0.0,0.0,0.0,0.0,0.0,0.0,0.0,0.0,0.0,0.0,0.0,0.0,0.0,0.0,0.0,0.0,0.0,0.0,0.0,0.0,0.0,0.0,0.0,0.0,0.0,0.0,0.0,0.0,0.0,0.0,0.0,1.1619,1.1619,1.1619,1.1626,0.0,0.0,0.0,0.0,0.0,0.0,0.0,0.0,0.0,1.1823,1.183,1.1979,1.2271,1.2284,1.2366,1.2488,1.2501,1.2501,1.2508,1.2508,1.2528,1.2238,0.0,0.0,0.0,0.0,0.0,0.0,0.0,0.0,0.0,0.0,0.0,0.0,0.0,0.0,0.0,0.0,0.0,0.0,0.0,0.0,0.0,0.0,0.0,0.0,0.0,0.0,0.0,0.0,0.0,0.0,0.0,0.0,0.0,0.0,0.0,0.0,0.0,0.0,0.0,0.0,0.0,0.0,0.0,0.0,0.0,0.0,0.0,0.0,0.0,0.0,0.0,0.0,0.0,0.0,0.0,0.0,0.0,0.0,0.0,0.0,0.0,0.0,0.0,0.0,0.0,0.0,0.0,0.0,0.0,0.0,0.0,0.0,0.0,0.0,0.0,0.0,0.0,0.0,0.0,0.0,0.0,0.0,0.0,0.0,0.0,0.0,0.0,0.0,0.0,1.1619,1.1619,1.1619,1.1619,1.1619,1.1633,0.0,0.0,0.0,0.0,0.0,0.0,0.0,1.1789,1.183,1.2026,1.2182,1.2291,1.2386,1.2454,1.2501,1.2501,1.2501,1.2501,1.2501,1.2522,1.2393,1.1436,0.9869,0.0,0.0,0.0,0.0,0.0,0.0,0.0,0.0,0.0,0.0,0.0,0.0,0.0,0.0,0.0,0.0,0.0,0.0,0.0,0.0,0.0,0.0,0.0,0.0,0.0,0.0,0.0,0.0,0.0,0.0,0.0,0.0,0.0,0.0,0.0,0.0,0.0,0.0,0.0,0.0,0.0,0.0,0.0,0.0,0.0,0.0,0.0,0.0,0.0,0.0,0.0,0.0,0.0,0.0,0.0,0.0,0.0,0.0,0.0,0.0,0.0,0.0,0.0,0.0,0.0,0.0,0.0,0.0,0.0,0.0,0.0,0.0,0.0,0.0,0.0,0.0,0.0,0.0,0.0,0.0,0.0,0.0,0.0,0.0,0.0,1.1619,1.1619,1.1619,1.1619,1.1619,1.1619,1.1619,1.1619,0.0,0.0,0.0,0.0,0.0,0.0,1.1796,1.1884,1.1986,1.2189,1.2318,1.2366,1.2461,1.2501,1.2501,1.2501,1.2501,1.2501,1.2501,1.2515,1.2535,1.2535,1.2556,1.1953,0.0,0.0,0.0,0.0,0.0,0.0,0.0,0.0,0.0,0.0,0.0,0.0,0.0,0.0,0.0,0.0,0.0,0.0,0.0,0.0,0.0,0.0,0.0,0.0,0.0,0.0,0.0,0.0,0.0,0.0,0.0,0.0,0.0,0.0,0.0,0.0,0.0,0.0,0.0,0.0,0.0,0.0,0.0,0.0,0.0,0.0,0.0,0.0,0.0,0.0,0.0,0.0,0.0,0.0,0.0,0.0,0.0,0.0,0.0,0.0,0.0,0.0,0.0,0.0,0.0,0.0,0.0,0.0,0.0,0.0,0.0,0.0,0.0,0.0,0.0,0.0,0.0,0.0,0.0,0.0,0.0,0.0,0.0,1.1619,1.1619,1.1619,1.1619,1.1619,1.1619,1.1619,1.1619,1.1619,1.164,0.0,0.0,0.0,0.0,1.1877,1.1857,1.1993,1.2291,1.2298,1.2366,1.2501,1.2501,1.2501,1.2501,1.2501,1.2501,1.2501,1.2501,1.2501,1.2501,1.2501,1.2522,1.2576,0.0,0.0,0.0,0.0,0.0,0.0,0.0,0.0,0.0,0.0,0.0,0.0,0.0,0.0,0.0,0.0,0.0,0.0,0.0,0.0,0.0,0.0,0.0,0.0,0.0,0.0,0.0,0.0,0.0,0.0,0.0,0.0,0.0,0.0,0.0,0.0,0.0,0.0,0.0,0.0,0.0,0.0,0.0,0.0,0.0,0.0,0.0,0.0,0.0,0.0,0.0,0.0,0.0,0.0,0.0,0.0,0.0,0.0,0.0,0.0,0.0,0.0,0.0,0.0,0.0,0.0,0.0,0.0,0.0,0.0,0.0,0.0,0.0,0.0,0.0,0.0,0.0,0.0,0.0,0.0,0.0,0.0,0.0,1.1619,1.1619,1.1619,1.1619,1.1619,1.1619,1.1619,1.1619,1.1619,0.0,0.0,0.0,0.0,0.0,1.1843,1.2054,1.2203,1.2291,1.2393,1.2461,1.2501,1.2501,1.2501,1.2501,1.2501,1.2501,1.2501,1.2501,1.2501,1.2501,1.2501,1.2576,1.2691,0.0,0.0,0.0,0.0,0.0,0.0,0.0,0.0,0.0,0.0,0.0,0.0,0.0,0.0,0.0,0.0,0.0,0.0,0.0,0.0,0.0,0.0,0.0,0.0,0.0,0.0,0.0,0.0,0.0,0.0,0.0,0.0,0.0,0.0,0.0,0.0,0.0,0.0,0.0,0.0,0.0,0.0,0.0,0.0,0.0,0.0,0.0,0.0,0.0,0.0,0.0,0.0,0.0,0.0,0.0,0.0,0.0,0.0,0.0,0.0,0.0,0.0,0.0,0.0,0.0,0.0,0.0,0.0,0.0,0.0,0.0,0.0,0.0,0.0,0.0,0.0,0.0,0.0,0.0,0.0,0.0,0.0,0.0,1.1619,1.1619,1.1619,1.1619,1.1619,1.1619,1.1619,1.1619,1.1619,0.0,0.0,0.0,0.0,1.1891,1.202,1.2196,1.2318,1.2379,1.2461,1.2501,1.2501,1.2501,1.2501,1.2501,1.2501,1.2501,1.2508,1.2569,1.2596,1.2603,1.2671,1.2705,1.2745,1.2908,1.1271,0.8254,0.2155,0.0,0.0,0.0,0.0,0.0,0.0,0.0,0.0,0.0,0.0,0.0,0.0,0.0,0.0,0.0,0.0,0.0,0.0,0.0,0.0,0.0,0.0,0.0,0.0,0.0,0.0,0.0,0.0,0.0,0.0,0.0,0.0,0.0,0.0,0.0,0.0,0.0,0.0,0.0,0.0,0.0,0.0,0.0,0.0,0.0,0.0,0.0,0.0,0.0,0.0,0.0,0.0,0.0,0.0,0.0,0.0,0.0,0.0,0.0,0.0,0.0,0.0,0.0,0.0,0.0,0.0,0.0,0.0,0.0,0.0,0.0,0.0,0.0,0.0,0.0,0.0,0.0,0.0,0.0,0.0,1.1619,1.1619,1.1619,1.1619,1.1619,1.1619,1.1619,0.0,0.0,0.0,1.1823,1.1864,1.2013,1.2284,1.2305,1.2379,1.2501,1.2501,1.2501,1.2501,1.2501,1.2501,1.2501,1.2501,1.2508,1.2535,1.2671,1.2739,1.2766,1.2922,1.2901,1.2813,1.295,1.309,1.1971,0.4347,0.084,0.0,0.0,0.0,0.0,0.0,0.0,0.0,0.0,0.0,0.0,0.0,0.0,0.0,0.0,0.0,0.0,0.0,0.0,0.0,0.0,0.0,0.0,0.0,0.0,0.0,0.0,0.0,0.0,0.0,0.0,0.0,0.0,0.0,0.0,0.0,0.0,0.0,0.0,0.0,0.0,0.0,0.0,0.0,0.0,0.0,0.0,0.0,0.0,0.0,0.0,0.0,0.0,0.0,0.0,0.0,0.0,0.0,0.0,0.0,0.0,0.0,0.0,0.0,0.0,0.0,0.0,0.0,0.0,0.0,0.0,0.0,0.0,0.0,0.0,0.0,0.0,0.0,1.1619,1.1619,1.1619,1.1619,1.1619,1.1619,1.1619,1.1619,1.1619,0.0,0.0,1.1803,1.183,1.2067,1.223,1.2291,1.2406,1.2474,1.2501,1.2501,1.2501,1.2501,1.2501,1.2501,1.2501,1.2501,1.2569,1.2684,1.2718,1.28,1.2929,1.3071,1.3112,1.3098,1.3023,1.3157,1.3125,1.1473,0.623,0.0,0.0,0.0,0.0,0.0,0.0,0.0,0.0,0.0,0.0,0.0,0.0,0.0,0.0,0.0,0.0,0.0,0.0,0.0,0.0,0.0,0.0,0.0,0.0,0.0,0.0,0.0,0.0,0.0,0.0,0.0,0.0,0.0,0.0,0.0,0.0,0.0,0.0,0.0,0.0,0.0,0.0,0.0,0.0,0.0,0.0,0.0,0.0,0.0,0.0,0.0,0.0,0.0,0.0,0.0,0.0,0.0,0.0,0.0,0.0,0.0,0.0,0.0,0.0,0.0,0.0,0.0,0.0,0.0,0.0,0.0,0.0,0.0,0.0,0.0,0.0,0.0,0.0,1.1619,1.1619,1.1619,1.1619,1.1619,1.1619,1.1619,0.0,0.0,1.1789,1.1898,1.2054,1.221,1.2325,1.2393,1.2467,1.2501,1.2501,1.2501,1.2501,1.2501,1.2501,1.2501,1.2508,1.2583,1.2657,1.2739,1.2888,1.2996,1.3078,1.3227,1.3288,1.3288,1.3322,1.1878,1.0263,1.2514,0.7589,0.0,0.0,0.0,0.0,0.0,0.0,0.0,0.0,0.0,0.0,0.0,0.0,0.0,0.0,0.0,0.0,0.0,0.0,0.0,0.0,0.0,0.0,0.0,0.0,0.0,0.0,0.0,0.0,0.0,0.0,0.0,0.0,0.0,0.0,0.0,0.0,0.0,0.0,0.0,0.0,0.0,0.0,0.0,0.0,0.0,0.0,0.0,0.0,0.0,0.0,0.0,0.0,0.0,0.0,0.0,0.0,0.0,0.0,0.0,0.0,0.0,0.0,0.0,0.0,0.0,0.0,0.0,0.0,0.0,0.0,0.0,0.0,0.0,0.0,0.0,0.0,0.0,0.0,1.1619,1.1619,1.1619,1.1619,1.1619,0.0,0.0,0.0,0.0,1.1884,1.2033,1.2277,1.2318,1.2386,1.2501,1.2501,1.2501,1.2501,1.2501,1.2501,1.2501,1.2501,1.2515,1.2549,1.2678,1.2759,1.2834,1.3071,1.3193,1.3227,1.3349,1.3403,1.3403,1.3444,1.0576,0.7041,0.978,0.6065,0.0,0.0,0.0,0.0,0.0,0.0,0.0,0.0,0.0,0.0,0.0,0.0,0.0,0.0,0.0,0.0,0.0,0.0,0.0,0.0,0.0,0.0,0.0,0.0,0.0,0.0,0.0,0.0,0.0,0.0,0.0,0.0,0.0,0.0,0.0,0.0,0.0,0.0,0.0,0.0,0.0,0.0,0.0,0.0,0.0,0.0,0.0,0.0,0.0,0.0,0.0,0.0,0.0,0.0,0.0,0.0,0.0,0.0,0.0,0.0,0.0,0.0,0.0,0.0,0.0,0.0,0.0,0.0,0.0,0.0,0.0,0.0,0.0,0.0,0.0,0.0,0.0,0.0,0.0,0.0,0.0,0.0,0.0,0.0,0.0,0.0,1.183,1.2088,1.2257,1.2291,1.2413,1.2488,1.2501,1.2501,1.2501,1.2501,1.2501,1.2501,1.2501,1.2501,1.2576,1.2705,1.2725,1.2874,1.3125,1.3159,1.3254,1.3376,1.3397,1.3403,1.341,1.3471,1.0592,0.6202,0.269,0.0842,0.0,0.0,0.0,0.0,0.0,0.0,0.0,0.0,0.0,0.0,0.0,0.0,0.0,0.0,0.0,0.0,0.0,0.0,0.0,0.0,0.0,0.0,0.0,0.0,0.0,0.0,0.0,0.0,0.0,0.0,0.0,0.0,0.0,0.0,0.0,0.0,0.0,0.0,0.0,0.0,0.0,0.0,0.0,0.0,0.0,0.0,0.0,0.0,0.0,0.0,0.0,0.0,0.0,0.0,0.0,0.0,0.0,0.0,0.0,0.0,0.0,0.0,0.0,0.0,0.0,0.0,0.0,0.0,0.0,0.0,0.0,0.0,0.0,0.0,0.0,0.0,0.0,0.0,0.0,0.0,0.0,0.0,0.0,0.0,0.0,0.0,1.2088,1.2216,1.2325,1.2413,1.2467,1.2501,1.2501,1.2501,1.2501,1.2501,1.2501,1.2501,1.2501,1.2589,1.2671,1.2739,1.2908,1.3057,1.318,1.3268,1.3342,1.3403,1.3403,1.341,1.3437,1.3318,1.2315,0.9603,0.2524,0.0,0.0,0.0,0.0,0.0,0.0,0.0,0.0,0.0,0.0,0.0,0.0,0.0,0.0,0.0,0.0,0.0,0.0,0.0,0.0,0.0,0.0,0.0,0.0,0.0,0.0,0.0,0.0,0.0,0.0,0.0,0.0,0.0,0.0,0.0,0.0,0.0,0.0,0.0,0.0,0.0,0.0,0.0,0.0,0.0,0.0,0.0,0.0,0.0,0.0,0.0,0.0,0.0,0.0,0.0,0.0,0.0,0.0,0.0,0.0,0.0,0.0,0.0,0.0,0.0,0.0,0.0,0.0,0.0,0.0,0.0,0.0,0.0,0.0,0.0,0.0,0.0,0.0,0.0,0.0,0.0,0.0,0.0,0.0,0.0,0.0,0.0,0.0,1.2325,1.2393,1.2494,1.2501,1.2501,1.2501,1.2501,1.2501,1.2501,1.2501,1.2522,1.2569,1.2678,1.2773,1.2861,1.3078,1.3193,1.3241,1.3356,1.3403,1.3403,1.3403,1.3424,1.3284,1.1951,1.2346,1.224,0.3213,0.0,0.0,0.0,0.0,0.0,0.0,0.0,0.0,0.0,0.0,0.0,0.0,0.0,0.0,0.0,0.0,0.0,0.0,0.0,0.0,0.0,0.0,0.0,0.0,0.0,0.0,0.0,0.0,0.0,0.0,0.0,0.0,0.0,0.0,0.0,0.0,0.0,0.0,0.0,0.0,0.0,0.0,0.0,0.0,0.0,0.0,0.0,0.0,0.0,0.0,0.0,0.0,0.0,0.0,0.0,0.0,0.0,0.0,0.0,0.0,0.0,0.0,0.0,0.0,0.0,0.0,0.0,0.0,0.0,0.0,0.0,0.0,0.0,0.0,0.0,0.0,0.0,0.0,0.0,0.0,0.0,0.0,0.0,0.0,0.0,0.0,0.0,0.0,1.242,1.2494,1.2501,1.2501,1.2501,1.2501,1.2501,1.2501,1.2501,1.2501,1.2576,1.2725,1.2725,1.2881,1.3159,1.3166,1.3254,1.3397,1.3397,1.3403,1.3403,1.3403,1.3424,1.2945,0.8549,0.9656,1.221,0.325,0.0,0.0,0.0,0.0,0.0,0.0,0.0,0.0,0.0,0.0,0.0,0.0,0.0,0.0,0.0,0.0,0.0,0.0,0.0,0.0,0.0,0.0,0.0,0.0,0.0,0.0,0.0,0.0,0.0,0.0,0.0,0.0,0.0,0.0,0.0,0.0,0.0,0.0,0.0,0.0,0.0,0.0,0.0,0.0,0.0,0.0,0.0,0.0,0.0,0.0,0.0,0.0,0.0,0.0,0.0,0.0,0.0,0.0,0.0,0.0,0.0,0.0,0.0,0.0,0.0,0.0,0.0,0.0,0.0,0.0,0.0,0.0,0.0,0.0,0.0,0.0,0.0,0.0,0.0,0.0,0.0,0.0,0.0,0.0,0.0,0.0,0.0,0.0,1.2474,1.2501,1.2501,1.2501,1.2501,1.2501,1.2501,1.2501,1.2501,1.2501,1.2583,1.2732,1.2834,1.299,1.318,1.3275,1.3356,1.3403,1.3403,1.3403,1.3403,1.3403,1.3437,1.2984,0.8458,0.9559,1.2264,0.0,0.0,0.0,0.0,0.0,0.0,0.0,0.0,0.0,0.0,0.0,0.0,0.0,0.0,0.0,0.0,0.0,0.0,0.0,0.0,0.0,0.0,0.0,0.0,0.0,0.0,0.0,0.0,0.0,0.0,0.0,0.0,0.0,0.0,0.0,0.0,0.0,0.0,0.0,0.0,0.0,0.0,0.0,0.0,0.0,0.0,0.0,0.0,0.0,0.0,0.0,0.0,0.0,0.0,0.0,0.0,0.0,0.0,0.0,0.0,0.0,0.0,0.0,0.0,0.0,0.0,0.0,0.0,0.0,0.0,0.0,0.0,0.0,0.0,0.0,0.0,0.0,0.0,0.0,0.0,0.0,0.0,0.0,0.0,0.0,0.0,0.0,0.0,0.0,0.0,1.2501,1.2501,1.2501,1.2501,1.2501,1.2501,1.2528,1.2583,1.2583,1.2691,1.2888,1.299,1.3112,1.3261,1.3356,1.3403,1.3403,1.3403,1.341,1.3417,1.3417,1.3458,1.3023,1.0228,0.8932,0.0,0.0,0.0,0.0,0.0,0.0,0.0,0.0,0.0,0.0,0.0,0.0,0.0,0.0,0.0,0.0,0.0,0.0,0.0,0.0,0.0,0.0,0.0,0.0,0.0,0.0,0.0,0.0,0.0,0.0,0.0,0.0,0.0,0.0,0.0,0.0,0.0,0.0,0.0,0.0,0.0,0.0,0.0,0.0,0.0,0.0,0.0,0.0,0.0,0.0,0.0,0.0,0.0,0.0,0.0,0.0,0.0,0.0,0.0,0.0,0.0,0.0,0.0,0.0,0.0,0.0,0.0,0.0,0.0,0.0,0.0,0.0,0.0,0.0,0.0,0.0,0.0,0.0,0.0,0.0,0.0,0.0,0.0,0.0,0.0,0.0,0.0,0.0,0.0,0.0,0.0,0.0,1.2501,1.2501,1.2501,1.2501,1.2501,1.2576,1.2732,1.2732,1.2881,1.3173,1.3173,1.3254,1.3403,1.3403,1.3403,1.3403,1.3403,1.3424,1.3458,1.3118,1.3158,1.3412,1.3389,0.0,0.0,0.0,0.0,0.0,0.0,0.0,0.0,0.0,0.0,0.0,0.0,0.0,0.0,0.0,0.0,0.0,0.0,0.0,0.0,0.0,0.0,0.0,0.0,0.0,0.0,0.0,0.0,0.0,0.0,0.0,0.0,0.0,0.0,0.0,0.0,0.0,0.0,0.0,0.0,0.0,0.0,0.0,0.0,0.0,0.0,0.0,0.0,0.0,0.0,0.0,0.0,0.0,0.0,0.0,0.0,0.0,0.0,0.0,0.0,0.0,0.0,0.0,0.0,0.0,0.0,0.0,0.0,0.0,0.0,0.0,0.0,0.0,0.0,0.0,0.0,0.0,0.0,0.0,0.0,0.0,0.0,0.0,0.0,0.0,0.0,0.0,0.0,0.0,0.0,0.0,0.0,0.0,0.0,0.0,0.0,0.0,0.0,0.0,0.0,1.2732,1.2881,1.3173,1.3173,1.3254,1.3403,1.3431,1.3437,1.3437,1.3464,1.3485,1.3144,0.0,1.0488,1.3396,0.0,0.0,0.0,0.0,0.0,0.0,0.0,0.0,0.0,0.0,0.0,0.0,0.0,0.0,0.0,0.0,0.0,0.0,0.0,0.0,0.0,0.0,0.0,0.0,0.0,0.0,0.0,0.0,0.0,0.0,0.0,0.0,0.0,0.0,0.0,0.0,0.0,0.0,0.0,0.0,0.0,0.0,0.0,0.0,0.0,0.0,0.0,0.0,0.0,0.0,0.0,0.0,0.0,0.0,0.0,0.0,0.0,0.0,0.0,0.0,0.0,0.0,0.0,0.0,0.0,0.0,0.0,0.0,0.0,0.0,0.0,0.0,0.0,0.0,0.0,0.0,0.0,0.0,0.0,0.0,0.0,0.0,0.0,0.0,0.0,0.0,0.0,0.0,0.0,0.0,0.0,0.0,0.0,0.0,0.0,0.0,0.0,0.0,0.0,0.0,0.0,0.0,0.0,1.322,1.3288,1.3363,1.3444,1.3464,1.2278,1.0404,1.0419,0.0,0.0,0.0,0.0,0.0,0.0,0.0,0.0,0.0,0.0,0.0,0.0,0.0,0.0,0.0,0.0,0.0,0.0,0.0,0.0,0.0,0.0,0.0,0.0,0.0,0.0,0.0,0.0,0.0,0.0,0.0,0.0,0.0,0.0,0.0,0.0,0.0,0.0,0.0,0.0,0.0,0.0,0.0,0.0,0.0,0.0,0.0,0.0,0.0,0.0,0.0,0.0,0.0,0.0,0.0,0.0,0.0,0.0,0.0,0.0,0.0,0.0,0.0,0.0,0.0,0.0,0.0,0.0,0.0,0.0,0.0,0.0,0.0,0.0,0.0,0.0,0.0,0.0,0.0,0.0,0.0,0.0,0.0,0.0,0.0,0.0,0.0,0.0,0.0,0.0,0.0,0.0,0.0,0.0,0.0,0.0,0.0,0.0,0.0,0.0,0.0,0.0,0.0,0.0,0.0,0.0,0.0,0.0,0.0,0.0,0.0,0.0,0.0,0.0,0.0,0.0,0.0,0.0,0.0,0.0,0.0,0.0,0.0,0.0,0.0,0.0,0.0,0.0,0.0,0.0,0.0,0.0,0.0,0.0,0.0,0.0,0.0,0.0,0.0,0.0,0.0,0.0,0.0,0.0,0.0,0.0,0.0,0.0,0.0,0.0,0.0,0.0,0.0,0.0,0.0,0.0,0.0,0.0,0.0,0.0,0.0,0.0,0.0,0.0,0.0,0.0,0.0,0.0,0.0,0.0,0.0,0.0,0.0,0.0,0.0,0.0,0.0,0.0,0.0,0.0,0.0,0.0,0.0,0.0,0.0,0.0,0.0,0.0,0.0,0.0,0.0,0.0,0.0,0.0,0.0,0.0,0.0,0.0,0.0,0.0,0.0,0.0,0.0,0.0,1.1742,1.1891,0.0,0.0,0.0,0.0,0.0,0.0,0.0,0.0,0.0,0.0,0.0,0.0,0.0,0.0,0.0,0.0,0.0,0.0,0.0,0.0,0.0,0.0,0.0,0.0,0.0,0.0,0.0,0.0,0.0,0.0,0.0,0.0,0.0,0.0,0.0,0.0,0.0,0.0,0.0,0.0,0.0,0.0,0.0,0.0,0.0,0.0,0.0,0.0,0.0,0.0,0.0,0.0,0.0,0.0,0.0,0.0,0.0,0.0,0.0,0.0,0.0,0.0,0.0,0.0,0.0,0.0,0.0,0.0,0.0,0.0,0.0,0.0,0.0,0.0,0.0,0.0,0.0,0.0,0.0,0.0,0.0,0.0,0.0,0.0,0.0,0.0,0.0,0.0,0.0,0.0,0.0,0.0,0.0,0.0,0.0,0.0,0.0,0.0,0.0,0.0,0.0,0.0,0.0,0.0,0.0,0.0,0.0,0.0,0.0,0.0,0.0,1.1619,1.1647,1.1721,1.1857,1.1979,1.2054,1.2264,0.0,0.0,0.0,0.0,0.0,0.0,0.0,0.0,0.0,0.0,0.0,0.0,0.0,0.0,0.0,0.0,0.0,0.0,0.0,0.0,0.0,0.0,0.0,0.0,0.0,0.0,0.0,0.0,0.0,0.0,0.0,0.0,0.0,0.0,0.0,0.0,0.0,0.0,0.0,0.0,0.0,0.0,0.0,0.0,0.0,0.0,0.0,0.0,0.0,0.0,0.0,0.0,0.0,0.0,0.0,0.0,0.0,0.0,0.0,0.0,0.0,0.0,0.0,0.0,0.0,0.0,0.0,0.0,0.0,0.0,0.0,0.0,0.0,0.0,0.0,0.0,0.0,0.0,0.0,0.0,0.0,0.0,0.0,0.0,0.0,0.0,0.0,0.0,0.0,0.0,0.0,0.0,0.0,0.0,0.0,0.0,0.0,0.0,0.0,0.0,0.0,0.0,0.0,0.0,0.0,0.0,0.0,0.0,0.0,1.1619,1.1674,1.1809,1.1965,1.2074,1.2108,1.2345,1.2501,0.0,0.0,0.0,0.0,0.0,0.0,0.0,0.0,0.0,0.0,0.0,0.0,0.0,0.0,0.0,0.0,0.0,0.0,0.0,0.0,0.0,0.0,0.0,0.0,0.0,0.0,0.0,0.0,0.0,0.0,0.0,0.0,0.0,0.0,0.0,0.0,0.0,0.0,0.0,0.0,0.0,0.0,0.0,0.0,0.0,0.0,0.0,0.0,0.0,0.0,0.0,0.0,0.0,0.0,0.0,0.0,0.0,0.0,0.0,0.0,0.0,0.0,0.0,0.0,0.0,0.0,0.0,0.0,0.0,0.0,0.0,0.0,0.0,0.0,0.0,0.0,0.0,0.0,0.0,0.0,0.0,0.0,0.0,0.0,0.0,0.0,0.0,0.0,0.0,0.0,0.0,0.0,0.0,0.0,0.0,0.0,0.0,0.0,0.0,0.0,0.0,0.0,0.0,0.0,0.0,0.0,0.0,0.0,1.1619,1.1674,1.1809,1.1965,1.2115,1.225,1.2406,1.2501,0.0,0.0,0.0,0.0,0.0,0.0,0.0,0.0,0.0,0.0,0.0,0.0,0.0,0.0,0.0,0.0,0.0,0.0,0.0,0.0,0.0,0.0,0.0,0.0,0.0,0.0,0.0,0.0,0.0,0.0,0.0,0.0,0.0,0.0,0.0,0.0,0.0,0.0,0.0,0.0,0.0,0.0,0.0,0.0,0.0,0.0,0.0,0.0,0.0,0.0,0.0,0.0,0.0,0.0,0.0,0.0,0.0,0.0,0.0,0.0,0.0,0.0,0.0,0.0,0.0,0.0,0.0,0.0,0.0,0.0,0.0,0.0,0.0,0.0,0.0,0.0,0.0,0.0,0.0,0.0,0.0,0.0,0.0,0.0,0.0,0.0,0.0,0.0,0.0,0.0,0.0,0.0,0.0,0.0,0.0,0.0,0.0,0.0,0.0,0.0,0.0,0.0,0.0,0.0,0.0,0.0,0.0,1.1619,1.1694,1.1803,1.1952,1.2101,1.2257,1.24,1.2467,1.2501,1.2501,0.0,0.0,0.0,0.0,0.0,0.0,0.0,0.0,0.0,0.0,0.0,0.0,0.0,0.0,0.0,0.0,0.0,0.0,0.0,0.0,0.0,0.0,0.0,0.0,0.0,0.0,0.0,0.0,0.0,0.0,0.0,0.0,0.0,0.0,0.0,0.0,0.0,0.0,0.0,0.0,0.0,0.0,0.0,0.0,0.0,0.0,0.0,0.0,0.0,0.0,0.0,0.0,0.0,0.0,0.0,0.0,0.0,0.0,0.0,0.0,0.0,0.0,0.0,0.0,0.0,0.0,0.0,0.0,0.0,0.0,0.0,0.0,0.0,0.0,0.0,0.0,0.0,0.0,0.0,0.0,0.0,0.0,0.0,0.0,0.0,0.0,0.0,0.0,0.0,0.0,0.0,0.0,0.0,0.0,0.0,0.0,0.0,0.0,0.0,0.0,0.0,0.0,0.0,0.0,0.0,1.1633,1.1674,1.1769,1.1904,1.2101,1.2223,1.2345,1.2488,1.2501,1.2501,1.2501,1.2535,0.0,0.0,0.0,0.0,0.0,0.0,0.0,0.0,0.0,0.0,1.2708,0.0,0.0,0.0,0.0,0.0,0.0,0.0,0.0,0.0,0.0,0.0,0.0,0.0,0.0,0.0,0.0,0.0,0.0,0.0,0.0,0.0,0.0,0.0,0.0,0.0,0.0,0.0,0.0,0.0,0.0,0.0,0.0,0.0,0.0,0.0,0.0,0.0,0.0,0.0,0.0,0.0,0.0,0.0,0.0,0.0,0.0,0.0,0.0,0.0,0.0,0.0,0.0,0.0,0.0,0.0,0.0,0.0,0.0,0.0,0.0,0.0,0.0,0.0,0.0,0.0,0.0,0.0,0.0,0.0,0.0,0.0,0.0,0.0,0.0,0.0,0.0,0.0,0.0,0.0,0.0,0.0,0.0,0.0,0.0,0.0,0.0,0.0,0.0,0.0,0.0,0.0,0.0,0.0,0.0,1.1809,1.183,1.1938,1.225,1.2291,1.2345,1.2488,1.2501,1.2501,1.2501,1.2535,0.0,0.0,0.0,0.0,0.0,0.0,0.0,0.0,0.0,1.2568,1.2437,1.2437,0.8246,0.0,0.0,0.0,0.0,0.0,0.0,0.0,0.0,0.0,0.0,0.0,0.0,0.0,0.0,0.0,0.0,0.0,0.0,0.0,0.0,0.0,0.0,0.0,0.0,0.0,0.0,0.0,0.0,0.0,0.0,0.0,0.0,0.0,0.0,0.0,0.0,0.0,0.0,0.0,0.0,0.0,0.0,0.0,0.0,0.0,0.0,0.0,0.0,0.0,0.0,0.0,0.0,0.0,0.0,0.0,0.0,0.0,0.0,0.0,0.0,0.0,0.0,0.0,0.0,0.0,0.0,0.0,0.0,0.0,0.0,0.0,0.0,0.0,0.0,0.0,0.0,0.0,0.0,0.0,0.0,0.0,0.0,0.0,0.0,0.0,0.0,0.0,0.0,0.0,0.0,0.0,0.0,0.0,1.2074,1.2182,1.2277,1.2372,1.2454,1.2494,1.2501,1.2501,1.2501,1.2535,0.0,0.0,0.0,0.0,0.0,0.0,0.0,0.0,0.0,0.8304,0.8276,1.1184,0.8144,0.0,0.0,0.0,0.0,0.0,0.0,0.0,0.0,0.0,0.0,0.0,0.0,0.0,0.0,0.0,0.0,0.0,0.0,0.0,0.0,0.0,0.0,0.0,0.0,0.0,0.0,0.0,0.0,0.0,0.0,0.0,0.0,0.0,0.0,0.0,0.0,0.0,0.0,0.0,0.0,0.0,0.0,0.0,0.0,0.0,0.0,0.0,0.0,0.0,0.0,0.0,0.0,0.0,0.0,0.0,0.0,0.0,0.0,0.0,0.0,0.0,0.0,0.0,0.0,0.0,0.0,0.0,0.0,0.0,0.0,0.0,0.0,0.0,0.0,0.0,0.0,0.0,0.0,0.0,0.0,0.0,0.0,0.0,0.0,0.0,0.0,0.0,0.0,0.0,0.0,0.0,0.0,0.0,1.223,1.2311,1.2366,1.2447,1.2501,1.2501,1.2501,1.2501,1.2501,1.2522,0.0,0.0,0.0,0.0,0.0,0.0,0.0,0.0,1.0008,0.7061,0.389,0.6581,0.5164,0.0,0.0,0.0,0.0,0.0,0.0,0.0,0.0,0.0,0.0,0.0,0.0,0.0,0.0,0.0,0.0,0.0,0.0,0.0,0.0,0.0,0.0,0.0,0.0,0.0,0.0,0.0,0.0,0.0,0.0,0.0,0.0,0.0,0.0,0.0,0.0,0.0,0.0,0.0,0.0,0.0,0.0,0.0,0.0,0.0,0.0,0.0,0.0,0.0,0.0,0.0,0.0,0.0,0.0,0.0,0.0,0.0,0.0,0.0,0.0,0.0,0.0,0.0,0.0,0.0,0.0,0.0,0.0,0.0,0.0,0.0,0.0,0.0,0.0,0.0,0.0,0.0,0.0,0.0,0.0,0.0,0.0,0.0,0.0,0.0,0.0,0.0,0.0,0.0,0.0,0.0,0.0,0.0,1.2305,1.2352,1.2481,1.2501,1.2501,1.2501,1.2501,1.2501,1.2501,0.0,0.0,0.0,0.0,0.0,0.0,0.0,0.0,1.1529,1.1671,0.8063,0.0815,0.033,0.0,0.0,0.0,0.0,0.0,0.0,0.0,0.0,0.0,0.0,0.0,0.0,0.0,0.0,0.0,0.0,0.0,0.0,0.0,0.0,0.0,0.0,0.0,0.0,0.0,0.0,0.0,0.0,0.0,0.0,0.0,0.0,0.0,0.0,0.0,0.0,0.0,0.0,0.0,0.0,0.0,0.0,0.0,0.0,0.0,0.0,0.0,0.0,0.0,0.0,0.0,0.0,0.0,0.0,0.0,0.0,0.0,0.0,0.0,0.0,0.0,0.0,0.0,0.0,0.0,0.0,0.0,0.0,0.0,0.0,0.0,0.0,0.0,0.0,0.0,0.0,0.0,0.0,0.0,0.0,0.0,0.0,0.0,0.0,0.0,0.0,0.0,0.0,0.0,0.0,0.0,0.0,0.0,0.0,0.0,0.0,0.0,1.2501,1.2501,1.2501,1.2501,1.2501,0.0,0.0,0.0,0.0,0.0,0.0,0.0,0.0,0.0,0.3014,0.2895,0.5053,0.9588,0.3168,0.0,0.0,0.0,0.0,0.0,0.0,0.0,0.0,0.0,0.0,0.0,0.0,0.0,0.0,0.0,0.0,0.0,0.0,0.0,0.0,0.0,0.0,0.0,0.0,0.0,0.0,0.0,0.0,0.0,0.0,0.0,0.0,0.0,0.0,0.0,0.0,0.0,0.0,0.0,0.0,0.0,0.0,0.0,0.0,0.0,0.0,0.0,0.0,0.0,0.0,0.0,0.0,0.0,0.0,0.0,0.0,0.0,0.0,0.0,0.0,0.0,0.0,0.0,0.0,0.0,0.0,0.0,0.0,0.0,0.0,0.0,0.0,0.0,0.0,0.0,0.0,0.0,0.0,0.0,0.0,0.0,0.0,0.0,0.0,0.0,0.0,0.0,0.0,0.0,0.0,0.0,0.0,0.0,0.0,0.0,0.0,0.0,0.0,0.0,0.0,0.0,0.0,0.0,0.0,0.0,0.0,0.0,0.0,0.0,0.0,0.2358,0.0,0.0,0.229,0.6794,0.2177,0.0,0.0,0.0,0.0,0.0,0.0,0.0,0.0,0.0,0.0,0.0,0.0,0.0,0.0,0.0,0.0,0.0,0.0,0.0,0.0,0.0,0.0,0.0,0.0,0.0,0.0,0.0,0.0,0.0,0.0,0.0,0.0,0.0,0.0,0.0,0.0,0.0,0.0,0.0,0.0,0.0,0.0,0.0,0.0,0.0,0.0,0.0,0.0,0.0,0.0,0.0,0.0,0.0,0.0,0.0,0.0,0.0,0.0,0.0,0.0,0.0,0.0,0.0,0.0,0.0,0.0,0.0,0.0,0.0,0.0,0.0,0.0,0.0,0.0,0.0,0.0,0.0,0.0,0.0,0.0,0.0,0.0,0.0,0.0,0.0,0.0,0.0,0.0,0.0,0.0,0.0,0.0,0.0,0.0,0.0,0.0,0.0,0.0,0.0,0.0,0.0,0.0,0.0,0.0,0.0,0.0,0.0,0.0,0.0,0.0,0.1734,0.0957,0.0324,0.0,0.0,0.0,0.0,0.0,0.0,0.0,0.0,0.0,0.0,0.0,0.0,0.0,0.0,0.0,0.0,0.0,0.0,0.0,0.0,0.0,0.0,0.0,0.0,0.0,0.0,0.0,0.0,0.0,0.0,0.0,0.0,0.0,0.0,0.0,0.0,0.0,0.0,0.0,0.0,0.0,0.0,0.0,0.0,0.0,0.0,0.0,0.0,0.0,0.0,0.0,0.0,0.0,0.0,0.0,0.0,0.0,0.0,0.0,0.0,0.0,0.0,0.0,0.0,0.0,0.0,0.0,0.0,0.0,0.0,0.0,0.0,0.0,0.0,0.0,0.0,0.0,0.0,0.0,0.0,0.0,0.0,0.0,0.0,0.0,0.0,0.0,0.0,0.0,0.0,0.0,0.0,0.0,0.0,0.0,0.0,0.0,0.0,0.0,0.0,0.0,0.0,0.0,0.0,0.0,0.0,0.0,0.0,0.0,0.0,0.0,1.2508,1.1384,0.9268,0.5811,0.1961,0.0,0.0,0.0,0.0,0.0,0.0,0.0,0.0,0.0,0.0,0.0,0.0,0.0,0.0,0.0,0.0,0.0,0.0,0.0,0.0,0.0,0.0,0.0,0.0,0.0,0.0,0.0,0.0,0.0,0.0,0.0,0.0,0.0,0.0,0.0,0.0,0.0,0.0,0.0,0.0,0.0,0.0,0.0,0.0,0.0,0.0,0.0,0.0,0.0,0.0,0.0,0.0,0.0,0.0,0.0,0.0,0.0,0.0,0.0,0.0,0.0,0.0,0.0,0.0,0.0,0.0,0.0,0.0,0.0,0.0,0.0,0.0,0.0,0.0,0.0,0.0,0.0,0.0,0.0,0.0,0.0,0.0,0.0,0.0,0.0,0.0,0.0,0.0,0.0,0.0,0.0,0.0,0.0,0.0,0.0,0.0,0.0,0.0,0.0,0.0,0.0,0.0,0.0,0.0,0.0,0.0,0.0,0.0,0.0,0.0,1.2535,1.2623,1.2786,1.2109,1.0072,0.822,0.4821,0.0,0.0,0.0,0.0,0.0,0.0,0.0,0.0,0.0,0.0,0.0,0.0,0.0,0.0,0.0,0.0,0.0,0.0,0.0,0.0,0.0,0.0,0.0,0.0,0.0,0.0,0.0,0.0,0.0,0.0,0.0,0.0,0.0,0.0,0.0,0.0,0.0,0.0,0.0,0.0,0.0,0.0,0.0,0.0,0.0,0.0,0.0,0.0,0.0,0.0,0.0,0.0,0.0,0.0,0.0,0.0,0.0,0.0,0.0,0.0,0.0,0.0,0.0,0.0,0.0,0.0,0.0,0.0,0.0,0.0,0.0,0.0,0.0,0.0,0.0,0.0,0.0,0.0,0.0,0.0,0.0,0.0,0.0,0.0,0.0,0.0,0.0,0.0,0.0,0.0,0.0,0.0,0.0,0.0,0.0,0.0,0.0,0.0,0.0,0.0,0.0,0.0,0.0,0.0,0.0,0.0,0.0,0.0,0.0,1.261,1.2725,1.2908,1.303,1.3078,1.2585,0.8847,0.1513,0.0505,0.0,0.0,0.0,0.0,0.0,0.0,0.0,0.0,0.0,0.0,0.0,0.0,0.0,0.0,0.0,0.0,0.0,0.0,0.0,0.0,0.0,0.0,0.0,0.0,0.0,0.0,0.0,0.0,0.0,0.0,0.0,0.0,0.0,0.0,0.0,0.0,0.0,0.0,0.0,0.0,0.0,0.0,0.0,0.0,0.0,0.0,0.0,0.0,0.0,0.0,0.0,0.0,0.0,0.0,0.0,0.0,0.0,0.0,0.0,0.0,0.0,0.0,0.0,0.0,0.0,0.0,0.0,0.0,0.0,0.0,0.0,0.0,0.0,0.0,0.0,0.0,0.0,0.0,0.0,0.0,0.0,0.0,0.0,0.0,0.0,0.0,0.0,0.0,0.0,0.0,0.0,0.0,0.0,0.0,0.0,0.0,0.0,0.0,0.0,0.0,0.0,0.0,0.0,0.0,0.0,0.0,0.0,1.2718,1.2732,1.3003,1.3159,1.3166,1.0639,0.8198,0.6199,0.2012,0.0,0.0,0.0,0.0,0.0,0.0,0.0,0.0,0.0,0.0,0.0,0.0,0.0,0.0,0.0,0.0,0.0,0.0,0.0,0.0,0.0,0.0,0.0,0.0,0.0,0.0,0.0,0.0,0.0,0.0,0.0,0.0,0.0,0.0,0.0,0.0,0.0,0.0,0.0,0.0,0.0,0.0,0.0,0.0,0.0,0.0,0.0,0.0,0.0,0.0,0.0,0.0,0.0,0.0,0.0,0.0,0.0,0.0,0.0,0.0,0.0,0.0,0.0,0.0,0.0,0.0,0.0,0.0,0.0,0.0,0.0,0.0,0.0,0.0,0.0,0.0,0.0,0.0,0.0,0.0,0.0,0.0,0.0,0.0,0.0,0.0,0.0,0.0,0.0,0.0,0.0,0.0,0.0,0.0,0.0,0.0,0.0,0.0,0.0,0.0,0.0,0.0,0.0,0.0,0.0,0.0,1.2644,1.2773,1.2868,1.3064,1.3214,1.3315,1.2216,1.1421,1.0937,0.3521,0.0,0.0,0.0,0.0,0.0,0.0,0.0,0.0,0.0,0.0,0.0,0.0,0.0,0.0,0.0,0.0,0.0,0.0,0.0,0.0,0.0,0.0,0.0,0.0,0.0,0.0,0.0,0.0,0.0,0.0,0.0,0.0,0.0,0.0,0.0,0.0,0.0,0.0,0.0,0.0,0.0,0.0,0.0,0.0,0.0,0.0,0.0,0.0,0.0,0.0,0.0,0.0,0.0,0.0,0.0,0.0,0.0,0.0,0.0,0.0,0.0,0.0,0.0,0.0,0.0,0.0,0.0,0.0,0.0,0.0,0.0,0.0,0.0,0.0,0.0,0.0,0.0,0.0,0.0,0.0,0.0,0.0,0.0,0.0,0.0,0.0,0.0,0.0,0.0,0.0,0.0,0.0,0.0,0.0,0.0,0.0,0.0,0.0,0.0,0.0,0.0,0.0,0.0,0.0,0.0,1.2569,1.2718,1.2868,1.3024,1.3166,1.3295,1.3397,1.3424,1.3451,1.3318,0.436,0.0,0.0,0.0,0.0,0.0,0.0,0.0,0.0,0.0,0.0,0.0,0.0,0.0,0.0,0.0,0.0,0.0,0.0,0.0,0.0,0.0,0.0,0.0,0.0,0.0,0.0,0.0,0.0,0.0,0.0,0.0,0.0,0.0,0.0,0.0,0.0,0.0,0.0,0.0,0.0,0.0,0.0,0.0,0.0,0.0,0.0,0.0,0.0,0.0,0.0,0.0,0.0,0.0,0.0,0.0,0.0,0.0,0.0,0.0,0.0,0.0,0.0,0.0,0.0,0.0,0.0,0.0,0.0,0.0,0.0,0.0,0.0,0.0,0.0,0.0,0.0,0.0,0.0,0.0,0.0,0.0,0.0,0.0,0.0,0.0,0.0,0.0,0.0,0.0,0.0,0.0,0.0,0.0,0.0,0.0,0.0,0.0,0.0,0.0,0.0,0.0,0.0,0.0,0.0,0.0,1.2718,1.2874,1.3024,1.3166,1.3315,1.3403,1.3403,1.3403,1.3417,1.3451,0.4523,0.0,0.0,0.0,0.0,0.0,0.0,0.0,0.0,0.0,0.0,0.0,0.0,0.0,0.0,0.0,0.0,0.0,0.0,0.0,0.0,0.0,0.0,0.0,0.0,0.0,0.0,0.0,0.0,0.0,0.0,0.0,0.0,0.0,0.0,0.0,0.0,0.0,0.0,0.0,0.0,0.0,0.0,0.0,0.0,0.0,0.0,0.0,0.0,0.0,0.0,0.0,0.0,0.0,0.0,0.0,0.0,0.0,0.0,0.0,0.0,0.0,0.0,0.0,0.0,0.0,0.0,0.0,0.0,0.0,0.0,0.0,0.0,0.0,0.0,0.0,0.0,0.0,0.0,0.0,0.0,0.0,0.0,0.0,0.0,0.0,0.0,0.0,0.0,0.0,0.0,0.0,0.0,0.0,0.0,0.0,0.0,0.0,0.0,0.0,0.0,0.0,0.0,0.0,0.0,0.0,1.2725,1.2969,1.3125,1.3173,1.3315,1.3403,1.3403,1.3424,1.3451,1.3318,1.0704,0.6142,0.0,0.0,0.0,0.0,0.0,0.0,0.0,0.0,0.0,0.0,0.0,0.0,0.0,0.0,0.0,0.0,0.0,0.0,0.0,0.0,0.0,0.0,0.0,0.0,0.0,0.0,0.0,0.0,0.0,0.0,0.0,0.0,0.0,0.0,0.0,0.0,0.0,0.0,0.0,0.0,0.0,0.0,0.0,0.0,0.0,0.0,0.0,0.0,0.0,0.0,0.0,0.0,0.0,0.0,0.0,0.0,0.0,0.0,0.0,0.0,0.0,0.0,0.0,0.0,0.0,0.0,0.0,0.0,0.0,0.0,0.0,0.0,0.0,0.0,0.0,0.0,0.0,0.0,0.0,0.0,0.0,0.0,0.0,0.0,0.0,0.0,0.0,0.0,0.0,0.0,0.0,0.0,0.0,0.0,0.0,0.0,1.2501,1.2501,0.0,0.0,0.0,0.0,0.0,0.0,0.0,1.3044,1.32,1.3261,1.3349,1.341,1.3424,1.1628,1.1681,1.3445,1.3383,0.8787,0.0,0.0,0.0,0.0,0.0,0.0,0.0,0.0,0.0,0.0,0.0,0.0,0.0,0.0,0.0,0.0,0.0,0.0,0.0,0.0,0.0,0.0,0.0,0.0,0.0,0.0,0.0,0.0,0.0,0.0,0.0,0.0,0.0,0.0,0.0,0.0,0.0,0.0,0.0,0.0,0.0,0.0,0.0,0.0,0.0,0.0,0.0,0.0,0.0,0.0,0.0,0.0,0.0,0.0,0.0,0.0,0.0,0.0,0.0,0.0,0.0,0.0,0.0,0.0,0.0,0.0,0.0,0.0,0.0,0.0,0.0,0.0,0.0,0.0,0.0,0.0,0.0,0.0,0.0,0.0,0.0,0.0,0.0,0.0,0.0,0.0,0.0,0.0,0.0,0.0,0.0,0.0,0.0,0.0,0.0,0.0,1.2501,1.2501,0.0,0.0,0.0,0.0,0.0,0.0,0.0,1.3112,1.3254,1.3397,1.3403,1.3417,1.3451,0.915,0.8888,1.2753,1.2417,0.7988,0.0,0.0,0.0,0.0,0.0,0.0,0.0,0.0,0.0,0.0,0.0,0.0,0.0,0.0,0.0,0.0,0.0,0.0,0.0,0.0,0.0,0.0,0.0,0.0,0.0,0.0,0.0,0.0,0.0,0.0,0.0,0.0,0.0,0.0,0.0,0.0,0.0,0.0,0.0,0.0,0.0,0.0,0.0,0.0,0.0,0.0,0.0,0.0,0.0,0.0,0.0,0.0,0.0,0.0,0.0,0.0,0.0,0.0,0.0,0.0,0.0,0.0,0.0,0.0,0.0,0.0,0.0,0.0,0.0,0.0,0.0,0.0,0.0,0.0,0.0,0.0,0.0,0.0,0.0,0.0,0.0,0.0,0.0,0.0,0.0,0.0,0.0,0.0,0.0,0.0,0.0,0.0,0.0,0.0,0.0,0.0,0.0,0.0,0.0,0.0,0.0,0.0,0.0,0.0,0.0,1.3268,1.3363,1.3397,1.3403,1.3417,1.3451,1.0335,0.8552,0.8469,0.4712,0.1935,0.0,0.0,0.0,0.0,0.0,0.0,0.0,0.0,0.0,0.0,0.0,0.0,0.0,0.0,0.0,0.0,0.0,0.0,0.0,0.0,0.0,0.0,0.0,0.0,0.0,0.0,0.0,0.0,0.0,0.0,0.0,0.0,0.0,0.0,0.0,0.0,0.0,0.0,0.0,0.0,0.0,0.0,0.0,0.0,0.0,0.0,0.0,0.0,0.0,0.0,0.0,0.0,0.0,0.0,0.0,0.0,0.0,0.0,0.0,0.0,0.0,0.0,0.0,0.0,0.0,0.0,0.0,0.0,0.0,0.0,0.0,0.0,0.0,0.0,0.0,0.0,0.0,0.0,0.0,0.0,0.0,0.0,0.0,0.0,0.0,0.0,0.0,0.0,0.0,0.0,0.0,0.0,0.0,0.0,0.0,0.0,0.0,0.0,0.0,0.0,0.0,0.0,0.0,0.0,0.0,0.0,1.3403,1.3403,1.3403,1.3451,1.3559,1.2137,1.1058,1.0498,0.8136,0.4444,0.0,0.0,0.0,0.0,0.0,0.0,0.0,0.0,0.0,0.0,0.0,0.0,0.0,0.0,0.0,0.0,0.0,0.0,0.0,0.0,0.0,0.0,0.0,0.0,0.0,0.0,0.0,0.0,0.0,0.0,0.0,0.0,0.0,0.0,0.0,0.0,0.0,0.0,0.0,0.0,0.0,0.0,0.0,0.0,0.0,0.0,0.0,0.0,0.0,0.0,0.0,0.0,0.0,0.0,0.0,0.0,0.0,0.0,0.0,0.0,0.0,0.0,0.0,0.0,0.0,0.0,0.0,0.0,0.0,0.0,0.0,0.0,0.0,0.0,0.0,0.0,0.0,0.0,0.0,0.0,0.0,0.0,0.0,0.0,0.0,0.0,0.0,0.0,0.0,0.0,0.0,0.0,0.0,0.0,0.0,0.0,0.0,0.0,0.0,0.0,0.0,0.0,0.0,0.0,0.0,0.0,0.0,1.3403,1.3424,1.3512,1.3668,1.3666,1.4,1.4338,1.4319,1.0218,0.0,0.0717,0.0,0.0,0.0,0.0,0.0,0.0,0.0,0.0,0.0,0.0,0.0,0.0,0.0,0.0,0.0,0.0,0.0,0.0,0.0,0.0,0.0,0.0,0.0,0.0,0.0,0.0,0.0,0.0,0.0,0.0,0.0,0.0,0.0,0.0,0.0,0.0,0.0,0.0,0.0,0.0,0.0,0.0,0.0,0.0,0.0,0.0,0.0,0.0,0.0,0.0,0.0,0.0,0.0,0.0,0.0,0.0,0.0,0.0,0.0,0.0,0.0,0.0,0.0,0.0,0.0,0.0,0.0,0.0,0.0,0.0,0.0,0.0,0.0,0.0,0.0,0.0,0.0,0.0,0.0,0.0,0.0,0.0,0.0,0.0,0.0,0.0,0.0,0.0,0.0,0.0,0.0,0.0,0.0,0.0,1.2501,1.2556,0.0,0.0,0.0,0.0,0.0,0.0,0.0,0.0,0.0,1.3403,1.3526,1.3607,1.3634,1.3905,1.4061,1.4089,1.4272,0.0,0.0,0.0,0.0,0.0,0.0,0.0,0.0,0.0,0.0,0.0,0.0,0.0,0.0,0.0,0.0,0.0,0.0,0.0,0.0,0.0,0.0,0.0,0.0,0.0,0.0,0.0,0.0,0.0,0.0,0.0,0.0,0.0,0.0,0.0,0.0,0.0,0.0,0.0,0.0,0.0,0.0,0.0,0.0,0.0,0.0,0.0,0.0,0.0,0.0,0.0,0.0,0.0,0.0,0.0,0.0,0.0,0.0,0.0,0.0,0.0,0.0,0.0,0.0,0.0,0.0,0.0,0.0,0.0,0.0,0.0,0.0,0.0,0.0,0.0,0.0,0.0,0.0,0.0,0.0,0.0,0.0,0.0,0.0,0.0,0.0,0.0,0.0,0.0,0.0,0.0,0.0,0.0,0.0,0.0,0.0,0.0,0.0,1.2691,0.0,0.0,0.0,0.0,0.0,0.0,0.0,0.0,0.0,1.3526,1.3593,1.3709,1.3871,1.4007,1.4116,1.4197,0.0,0.0,0.0,1.0011,0.6611,0.0,0.0,0.3938,0.3759,0.1074,0.0,0.0,0.0,0.0,0.0,0.0,0.0,0.0,0.0,0.0,0.0,0.0,0.0,0.0,0.0,0.0,0.0,0.0,0.0,0.0,0.0,0.0,0.0,0.0,0.0,0.0,0.0,0.0,0.0,0.0,0.0,0.0,0.0,0.0,0.0,0.0,0.0,0.0,0.0,0.0,0.0,0.0,0.0,0.0,0.0,0.0,0.0,0.0,0.0,0.0,0.0,0.0,0.0,0.0,0.0,0.0,0.0,0.0,0.0,0.0,0.0,0.0,0.0,0.0,0.0,0.0,0.0,0.0,0.0,0.0,0.0,0.0,0.0,0.0,0.0,0.0,0.0,0.0,0.0,0.0,0.0,0.0,0.0,0.0,0.0,0.0,0.0,0.0,0.0,0.0,0.0,0.0,0.0,0.0,0.0,0.0,0.0,0.0,0.0,1.3627,1.3702,1.3844,1.4068,1.4109,1.4183,1.4299,0.0,0.0,1.4299,1.4326,1.2349,0.0,0.8943,0.8952,0.0,0.0,0.0,0.0,0.269,0.2153,0.0,0.0,0.0,0.0,0.0,0.0,0.0,0.0,0.0,0.0,0.0,0.0,0.0,0.0,0.0,0.0,0.0,0.0,0.0,0.0,0.0,0.0,0.0,0.0,0.0,0.0,0.0,0.0,0.0,0.0,0.0,0.0,0.0,0.0,0.0,0.0,0.0,0.0,0.0,0.0,0.0,0.0,0.0,0.0,0.0,0.0,0.0,0.0,0.0,0.0,0.0,0.0,0.0,0.0,0.0,0.0,0.0,0.0,0.0,0.0,0.0,0.0,0.0,0.0,0.0,0.0,0.0,0.0,0.0,0.0,0.0,0.0,0.0,0.0,0.0,0.0,0.0,0.0,0.0,0.0,0.0,0.0,0.0,0.0,0.0,0.0,1.3146,1.3166,1.3227,1.3376,1.3397,1.3403,1.3403,1.3539,1.362,1.3627,1.3899,0.0,1.4075,1.4211,1.4292,0.0,0.0,0.0,1.4299,1.4299,1.4122,1.3945,1.4004,1.3872,1.3905,0.0,0.0,0.0,0.0,0.809,0.0,0.0,0.0,0.0,0.0,0.0,0.0,0.0,0.0,0.0,0.0,0.0,0.0,0.0,0.0,0.0,0.0,0.0,0.0,0.0,0.0,0.0,0.0,0.0,0.0,0.0,0.0,0.0,0.0,0.0,0.0,0.0,0.0,0.0,0.0,0.0,0.0,0.0,0.0,0.0,0.0,0.0,0.0,0.0,0.0,0.0,0.0,0.0,0.0,0.0,0.0,0.0,0.0,0.0,0.0,0.0,0.0,0.0,0.0,0.0,0.0,0.0,0.0,0.0,0.0,0.0,0.0,0.0,0.0,0.0,0.0,0.0,0.0,0.0,0.0,0.0,0.0,0.0,0.0,0.0,0.0,0.0,0.0,0.0,0.0,0.0,0.0,1.3315,1.3342,1.3397,1.3403,1.3444,1.3539,1.36,1.3715,1.3905,1.4014,1.4116,1.4217,1.4272,1.4299,0.0,0.0,1.4299,1.4299,1.4299,1.4299,1.4299,1.4326,1.434,1.4175,1.2188,0.0,0.0,0.0,0.0,0.0,0.0,0.0,0.0,0.0,0.0,0.0,0.0,0.0,0.0,0.0,0.0,0.0,0.0,0.0,0.0,0.0,0.0,0.0,0.0,0.0,0.0,0.0,0.0,0.0,0.0,0.0,0.0,0.0,0.0,0.0,0.0,0.0,0.0,0.0,0.0,0.0,0.0,0.0,0.0,0.0,0.0,0.0,0.0,0.0,0.0,0.0,0.0,0.0,0.0,0.0,0.0,0.0,0.0,0.0,0.0,0.0,0.0,0.0,0.0,0.0,0.0,0.0,0.0,0.0,0.0,0.0,0.0,0.0,0.0,0.0,0.0,0.0,0.0,0.0,0.0,0.0,0.0,0.0,0.0,0.0,0.0,0.0,0.0,0.0,0.0,0.0,0.0,1.3424,1.3471,1.3478,1.3539,1.3688,1.3749,1.3865,1.4061,1.4122,1.4197,1.4299,1.4299,1.4299,0.0,0.0,0.0,0.0,1.4299,1.4299,1.4299,1.4299,1.4306,0.0,0.0,0.0,1.1094,0.0,0.0,1.4037,0.0,0.0,0.0,0.0,0.0,0.0,0.0,0.0,0.0,0.0,0.0,0.0,0.0,0.0,0.0,0.0,0.0,0.0,0.0,0.0,0.0,0.0,0.0,0.0,0.0,0.0,0.0,0.0,0.0,0.0,0.0,0.0,0.0,0.0,0.0,0.0,0.0,0.0,0.0,0.0,0.0,0.0,0.0,0.0,0.0,0.0,0.0,0.0,0.0,0.0,0.0,0.0,0.0,0.0,0.0,0.0,0.0,0.0,0.0,0.0,0.0,0.0,0.0,0.0,0.0,0.0,0.0,0.0,0.0,0.0,0.0,0.0,0.0,0.0,0.0,0.0,0.0,0.0,0.0,0.0,0.0,0.0,1.3383,0.0,0.0,0.0,0.0,0.0,1.3614,1.3634,1.3695,1.3838,1.3987,1.4075,1.4082,1.4224,1.4299,1.4299,1.4299,1.4299,1.4299,0.0,0.0,0.0,0.0,1.4299,1.4299,1.4299,1.4319,1.4346,0.0,1.4367,1.4222,0.0,1.4373,1.4216,0.0,0.0,0.0,0.8947,0.7328,0.0,0.0,0.0,0.037,0.0187,0.0,0.0,0.0,0.0,0.0,0.0,0.0,0.0,0.0,0.0,0.0,0.0,0.0,0.0,0.0,0.0,0.0,0.0,0.0,0.0,0.0,0.0,0.0,0.0,0.0,0.0,0.0,0.0,0.0,0.0,0.0,0.0,0.0,0.0,0.0,0.0,0.0,0.0,0.0,0.0,0.0,0.0,0.0,0.0,0.0,0.0,0.0,0.0,0.0,0.0,0.0,0.0,0.0,0.0,0.0,0.0,0.0,0.0,0.0,0.0,0.0,0.0,0.0,0.0,0.0,0.0,0.0,0.0,0.0,0.0,0.0,1.3356,0.0,0.0,0.0,1.3403,1.3498,1.3587,1.3627,1.3722,1.3844,1.4,1.4048,1.4122,1.4231,1.4278,1.4299,1.4299,1.4299,1.4299,1.4299,0.0,1.4299,1.4299,1.4299,0.0,0.0,1.4299,1.4306,1.4312,1.4312,0.0,0.0,1.4319,1.4319,0.0,0.0,0.0,0.0,0.0,1.2437,1.2542,0.0,1.2008,0.9759,0.0,0.0,0.0,0.0,0.0,0.0,0.0,0.0,0.0,0.0,0.0,0.0,0.0,0.0,0.0,0.0,0.0,0.0,0.0,0.0,0.0,0.0,0.0,0.0,0.0,0.0,0.0,0.0,0.0,0.0,0.0,0.0,0.0,0.0,0.0,0.0,0.0,0.0,0.0,0.0,0.0,0.0,0.0,0.0,0.0,0.0,0.0,0.0,0.0,0.0,0.0,0.0,0.0,0.0,0.0,0.0,0.0,0.0,0.0,0.0,0.0,0.0,0.0,0.0,0.0,0.0,0.0,0.0,0.0,0.0,0.0,1.3403,1.3403,0.0,0.0,0.0,1.358,1.3661,1.3743,1.381,1.3892,1.4,1.4156,1.4163,1.4204,1.4299,1.4299,1.4299,1.4299,1.4299,1.4299,1.4299,0.0,0.0,1.4299,1.4299,0.0,0.0,0.0,0.0,0.0,0.0,0.0,0.0,1.4299,0.0,0.0,1.4299,1.4312,0.0,0.0,0.0,1.4604,1.4746,1.4984,0.0,0.0,0.0,0.0,0.0,0.0,0.0,0.0,0.0,0.0,0.0,0.0,0.0,0.0,0.0,0.0,0.0,0.0,0.0,0.0,0.0,0.0,0.0,0.0,0.0,0.0,0.0,0.0,0.0,0.0,0.0,0.0,0.0,0.0,0.0,0.0,0.0,0.0,0.0,0.0,0.0,0.0,0.0,0.0,0.0,0.0,0.0,0.0,0.0,0.0,0.0,0.0,0.0,0.0,0.0,0.0,0.0,0.0,0.0,0.0,0.0,0.0,0.0,0.0,0.0,0.0,0.0,0.0,0.0,0.0,0.0,0.0,1.3424,0.0,0.0,1.3566,1.3702,1.3824,1.3858,1.3926,1.4061,1.4089,1.4156,1.4292,1.4299,1.4299,1.4299,1.4299,1.4299,1.4299,1.4299,1.4299,1.4299,0.0,0.0,0.0,0.0,0.0,0.0,0.0,0.0,0.0,0.0,0.0,1.4299,1.4299,1.4299,0.0,0.0,1.4312,1.434,1.4468,1.4529,1.443,1.4184,1.4222,0.0,0.0,0.0,0.0,0.0,0.0,0.0,0.0,0.0,0.0,0.0,0.0,0.0,0.0,0.0,0.0,0.0,0.0,0.0,0.0,0.0,0.0,0.0,0.0,0.0,0.0,0.0,0.0,0.0,0.0,0.0,0.0,0.0,0.0,0.0,0.0,0.0,0.0,0.0,0.0,0.0,0.0,0.0,0.0,0.0,0.0,0.0,0.0,0.0,0.0,0.0,0.0,0.0,0.0,0.0,0.0,0.0,0.0,0.0,0.0,0.0,0.0,0.0,0.0,0.0,0.0,0.0,0.0,0.0,0.0,0.0,0.0,1.3587,1.3627,1.3743,1.3783,1.381,1.3838,1.3953,1.4041,1.4068,1.4183,1.4272,1.4299,1.4299,1.4299,1.4299,1.4299,1.4299,1.4299,1.4299,1.4299,1.4299,0.0,0.0,0.0,0.0,0.0,0.0,0.0,0.0,0.0,0.0,0.0,1.4299,1.4299,0.0,1.4299,1.4299,1.4373,1.4475,1.4502,1.4672,1.4349,1.0371,0.9105,0.7989,0.0,0.0,0.0,0.0,0.0,0.0,0.0,0.0,0.0,0.0,0.0,0.0,0.0,0.0,0.0,0.0,0.0,0.0,0.0,0.0,0.0,0.0,0.0,0.0,0.0,0.0,0.0,0.0,0.0,0.0,0.0,0.0,0.0,0.0,0.0,0.0,0.0,0.0,0.0,0.0,0.0,0.0,0.0,0.0,0.0,0.0,0.0,0.0,0.0,0.0,0.0,0.0,0.0,0.0,0.0,0.0,0.0,0.0,0.0,0.0,0.0,0.0,0.0,0.0,0.0,0.0,0.0,0.0,0.0,0.0,0.0,1.3736,1.3756,1.3831,1.3905,1.3987,1.4061,1.4143,1.4183,1.4183,1.4258,1.4299,1.4299,1.4299,1.4299,1.4299,1.4299,1.4299,1.4299,1.4299,1.4299,1.4299,0.0,0.0,0.0,0.0,0.0,0.0,0.0,0.0,0.0,0.0,1.4448,1.4509,1.436,0.0,1.4407,1.4407,1.4496,1.4638,1.4713,1.4903,1.4745,1.215,0.7974,0.0,0.0,0.0,0.0,0.0,0.0,0.0,0.0,0.0,0.0,0.0,0.0,0.0,0.0,0.0,0.0,0.0,0.0,0.0,0.0,0.0,0.0,0.0,0.0,0.0,0.0,0.0,0.0,0.0,0.0,0.0,0.0,0.0,0.0,0.0,0.0,0.0,0.0,0.0,0.0,0.0,0.0,0.0,0.0,0.0,0.0,0.0,0.0,0.0,0.0,0.0,0.0,0.0,0.0,0.0,0.0,0.0,0.0,0.0,0.0,0.0,0.0,0.0,0.0,0.0,0.0,0.0,0.0,0.0,0.0,0.0,0.0,1.3885,1.3899,1.3926,1.4034,1.4163,1.4285,1.4299,1.4299,1.4299,1.4299,1.4299,1.4299,1.4299,1.4299,1.4299,1.4299,1.4299,1.4299,1.4299,1.4299,1.4299,1.4299,0.0,0.0,0.0,0.0,0.0,0.0,0.0,0.0,0.0,0.0,1.4719,0.0,1.4455,1.4557,1.4557,1.4652,1.4801,1.4957,1.5113,1.5242,1.5255,0.9694,0.266,0.057,0.0,0.0,0.0,0.0,0.0,0.0,0.0,0.0,0.0,0.0,0.0,0.0,0.0,0.0,0.0,0.0,0.0,0.0,0.0,0.0,0.0,0.0,0.0,0.0,0.0,0.0,0.0,0.0,0.0,0.0,0.0,0.0,0.0,0.0,0.0,0.0,0.0,0.0,0.0,0.0,0.0,0.0,0.0,0.0,0.0,0.0,0.0,0.0,0.0,0.0,0.0,0.0,0.0,0.0,0.0,0.0,0.0,0.0,0.0,0.0,0.0,0.0,0.0,1.379,1.3804,0.0,0.0,1.3831,1.3885,1.4021,1.4048,1.4095,1.4231,1.4265,1.4278,1.4299,0.0,0.0,0.0,0.0,0.0,1.4299,0.0,1.4299,1.4299,1.4299,1.4299,1.4299,1.4299,1.4299,1.4299,1.4299,1.4299,0.0,0.0,0.0,0.0,1.4353,0.0,0.0,0.0,1.4597,0.0,1.4706,1.4699,0.0,1.4713,1.4808,1.4964,1.5106,1.5174,1.5201,0.0,1.4525,1.1831,0.0,0.0,0.0,0.0,0.0,0.0,0.0,0.0,0.0,0.0,0.0,0.0,0.0,0.0,0.0,0.0,0.0,0.0,0.0,0.0,0.0,0.0,0.0,0.0,0.0,0.0,0.0,0.0,0.0,0.0,0.0,0.0,0.0,0.0,0.0,0.0,0.0,0.0,0.0,0.0,0.0,0.0,0.0,0.0,0.0,0.0,0.0,0.0,0.0,0.0,0.0,0.0,0.0,0.0,0.0,0.0,0.0,0.0,0.0,0.0,0.0,0.0,0.0,0.0,1.3878,1.3912,0.0,0.0,1.4048,1.4129,1.4197,1.4204,1.4231,1.4292,1.4299,1.4299,0.0,0.0,0.0,0.0,0.0,1.4299,0.0,0.0,1.4299,1.4299,1.4299,1.4299,1.4299,1.4299,1.4299,1.4299,1.4299,1.4299,1.4299,1.4387,0.0,0.0,1.4543,0.0,1.4869,0.0,1.4862,0.0,0.0,0.0,0.0,1.4903,1.4964,1.5099,1.516,1.5181,1.5187,0.0,1.3323,0.0,0.0,0.0,0.0,0.0,0.0,0.0,0.0,0.0,0.0,0.0,0.0,0.0,0.0,0.0,0.0,0.0,0.0,0.0,0.0,0.0,0.0,0.0,0.0,0.0,0.0,0.0,0.0,0.0,0.0,0.0,0.0,0.0,0.0,0.0,0.0,0.0,0.0,0.0,0.0,0.0,0.0,0.0,0.0,0.0,0.0,0.0,0.0,0.0,0.0,0.0,0.0,0.0,0.0,0.0,0.0,0.0,0.0,0.0,0.0,0.0,0.0,0.0,0.0,0.0,1.4007,0.0,0.0,0.0,0.0,1.4299,1.4299,1.4299,1.4299,1.4299,0.0,0.0,1.4299,1.4299,0.0,0.0,0.0,1.4299,0.0,0.0,1.4299,1.4299,1.4299,0.0,0.0,1.4299,1.4299,1.4299,1.434,1.436,0.0,0.0,0.0,0.0,0.0,1.4848,1.5025,0.0,0.0,1.5181,1.5181,1.5181,1.5174,1.5065,1.5092,1.5181,1.5181,1.5181,1.5181,1.5194,1.2727,0.9685,0.9483,0.703,0.3825,0.0,0.0,0.0,0.0,0.0,0.0,0.0,0.0,0.0,0.0,0.0,0.0,0.0,0.0,0.0,0.0,0.0,0.0,0.0,0.0,0.0,0.0,0.0,0.0,0.0,0.0,0.0,0.0,0.0,0.0,0.0,0.0,0.0,0.0,0.0,0.0,0.0,0.0,0.0,0.0,0.0,0.0,0.0,0.0,0.0,0.0,0.0,0.0,0.0,0.0,0.0,0.0,0.0,0.0,0.0,0.0,0.0,0.0,0.0,0.0,0.0,1.4285,1.4292,0.0,0.0,0.0,0.0,1.4299,1.4299,0.0,0.0,0.0,0.0,0.0,0.0,0.0,0.0,0.0,1.4299,1.4299,0.0,1.4299,0.0,0.0,0.0,0.0,1.4299,1.4299,1.4299,1.4434,1.4502,0.0,0.0,0.0,0.0,0.0,1.4903,1.5167,1.5031,1.5052,1.5181,1.5181,1.5181,1.5181,0.0,1.5181,1.5181,1.5181,1.5181,1.5187,1.5235,1.506,1.4096,0.9307,1.0853,1.3804,0.0,0.0,0.0,0.0,0.0,0.0,0.0,0.0,0.0,0.0,0.0,0.0,0.0,0.0,0.0,0.0,0.0,0.0,0.0,0.0,0.0,0.0,0.0,0.0,0.0,0.0,0.0,0.0,0.0,0.0,0.0,0.0,0.0,0.0,0.0,0.0,0.0,0.0,0.0,0.0,0.0,0.0,0.0,0.0,0.0,0.0,0.0,0.0,0.0,0.0,0.0,0.0,0.0,0.0,0.0,0.0,0.0,0.0,0.0,0.0,0.0,0.0,0.0,0.0,0.0,0.0,0.0,0.0,1.4299,0.0,0.0,0.0,0.0,0.0,0.0,1.4299,0.0,0.0,1.4299,1.4299,1.4299,0.0,0.0,0.0,1.4299,0.0,0.0,1.4299,1.4299,1.4441,1.4509,0.0,0.0,0.0,0.0,0.0,1.5086,0.0,0.0,0.0,0.0,0.0,1.5181,1.5181,0.0,1.5181,1.5181,1.5181,1.5181,1.5181,1.5201,1.5228,1.4864,1.3104,1.3901,1.4964,1.3444,1.1947,0.9836,0.6201,0.2614,0.0,0.0,0.0,0.0,0.0,0.0,0.0,0.0,0.0,0.0,0.0,0.0,0.0,0.0,0.0,0.0,0.0,0.0,0.0,0.0,0.0,0.0,0.0,0.0,0.0,0.0,0.0,0.0,0.0,0.0,0.0,0.0,0.0,0.0,0.0,0.0,0.0,0.0,0.0,0.0,0.0,0.0,0.0,0.0,0.0,0.0,0.0,0.0,0.0,0.0,0.0,0.0,0.0,0.0,0.0,0.0,1.4299,0.0,0.0,0.0,0.0,0.0,0.0,0.0,0.0,0.0,1.4299,0.0,1.4299,0.0,1.4299,0.0,1.4299,1.4299,1.4299,1.4299,0.0,1.4299,1.4299,0.0,0.0,1.4299,1.4326,1.4373,1.4523,1.4618,0.0,0.0,0.0,0.0,0.0,1.5181,1.5181,0.0,1.5181,0.0,0.0,1.5181,0.0,1.5181,1.5181,1.5181,1.5181,1.5181,1.5181,1.5181,1.5201,1.5221,1.5194,1.5221,1.5316,1.5395,1.5703,1.5192,1.1813,0.8446,0.4827,0.1006,0.0,0.0,0.0,0.0,0.0,0.0,0.0,0.0,0.0,0.0,0.0,0.0,0.0,0.0,0.0,0.0,0.0,0.0,0.0,0.0,0.0,0.0,0.0,0.0,0.0,0.0,0.0,0.0,0.0,0.0,0.0,0.0,0.0,0.0,0.0,0.0,0.0,0.0,0.0,0.0,0.0,0.0,0.0,0.0,0.0,0.0,0.0,0.0,0.0,0.0,0.0,0.0,0.0,0.0,0.0,0.0,0.0,0.0,1.4299,0.0,0.0,0.0,1.4299,0.0,1.4299,1.4299,1.4299,1.4299,1.4299,1.4299,1.4299,0.0,1.4299,1.4299,0.0,0.0,1.4299,1.4299,1.4299,1.4306,0.0,0.0,0.0,0.0,0.0,0.0,0.0,0.0,1.5181,0.0,1.5181,1.5181,1.5181,1.5181,1.5181,1.5181,1.5181,1.5181,1.5181,1.5181,1.5181,1.5181,1.5181,1.5181,1.5181,1.5181,1.5181,1.5187,1.5255,1.5554,1.5669,1.5764,1.6056,1.6164,1.3736,0.3418,0.0603,0.0403,0.0,0.0,0.0,0.0,0.0,0.0,0.0,0.0,0.0,0.0,0.0,0.0,0.0,0.0,0.0,0.0,0.0,0.0,0.0,0.0,0.0,0.0,0.0,0.0,0.0,0.0,0.0,0.0,0.0,0.0,0.0,0.0,0.0,0.0,0.0,0.0,0.0,0.0,0.0,0.0,0.0,0.0,0.0,0.0,0.0,0.0,0.0,0.0,0.0,0.0,0.0,0.0,1.4299,1.4299,1.4299,0.0,1.4299,1.4299,0.0,0.0,0.0,0.0,1.4299,1.4299,1.4299,1.4299,1.4299,1.4299,1.4299,0.0,0.0,0.0,0.0,1.4299,1.4299,1.4299,1.4299,1.4407,0.0,1.4509,0.0,0.0,1.4977,0.0,0.0,0.0,0.0,0.0,1.5181,1.5181,1.5181,1.5181,1.5181,1.5181,1.5181,1.5181,1.5181,1.5181,1.5181,1.5181,1.5181,1.5181,1.5181,1.5181,1.5181,1.5262,1.5391,1.5581,1.5723,1.5852,1.6042,1.6123,1.5338,1.2679,0.8843,0.4823,0.1006,0.0,0.0,0.0,0.0,0.0,0.0,0.0,0.0,0.0,0.0,0.0,0.0,0.0,0.0,0.0,0.0,0.0,0.0,0.0,0.0,0.0,0.0,0.0,0.0,0.0,0.0,0.0,0.0,0.0,0.0,0.0,0.0,0.0,0.0,0.0,0.0,0.0,0.0,0.0,0.0,0.0,0.0,0.0,0.0,0.0,0.0,0.0,0.0,0.0,0.0,0.0,1.4299,0.0,0.0,1.4299,0.0,0.0,1.4299,0.0,0.0,1.4299,1.4299,0.0,1.4299,1.4299,1.4299,1.4299,1.4299,0.0,0.0,0.0,0.0,1.4299,1.4299,1.4326,1.4394,1.4468,0.0,1.4713,0.0,0.0,1.5065,0.0,0.0,0.0,0.0,1.5181,1.5181,1.5181,1.5181,1.5181,1.5181,1.5181,0.0,1.5181,1.5181,1.5181,1.5181,1.5181,1.5181,1.5181,1.5181,1.5181,1.5181,1.5289,1.5438,1.5594,1.5744,1.5886,1.6042,1.6096,1.6117,1.613,1.3895,1.0663,0.7647,0.3418,0.0,0.0,0.0,0.0,0.0,0.0,0.0,0.0,0.0,0.0,0.0,0.0,0.0,0.0,0.0,0.0,0.0,0.0,0.0,0.0,0.0,0.0,0.0,0.0,0.0,0.0,0.0,0.0,0.0,0.0,0.0,0.0,0.0,0.0,0.0,0.0,0.0,0.0,0.0,0.0,0.0,0.0,0.0,0.0,0.0,0.0,0.0,0.0,0.0,0.0,0.0,0.0,0.0,0.0,0.0,0.0,0.0,1.4299,0.0,1.4299,0.0,1.4299,1.4299,1.4299,1.4299,1.4299,0.0,1.4299,1.4299,1.4299,1.4299,1.4299,1.4319,1.4387,1.4509,1.455,0.0,0.0,0.0,0.0,0.0,0.0,0.0,0.0,0.0,0.0,0.0,1.5181,1.5181,1.5181,1.5181,1.5181,1.5181,1.5181,1.5181,1.5181,1.5181,1.5181,1.5181,1.5181,1.5181,1.5181,1.5181,1.5303,1.5466,1.5601,1.5757,1.5913,1.6042,1.6083,1.609,1.6117,1.6123,1.6137,1.6185,0.8858,0.1809,0.1206,0.0403,0.0,0.0,0.0,0.0,0.0,0.0,0.0,0.0,0.0,0.0,0.0,0.0,0.0,0.0,0.0,0.0,0.0,0.0,0.0,0.0,0.0,0.0,0.0,0.0,0.0,0.0,0.0,0.0,0.0,0.0,0.0,0.0,0.0,0.0,0.0,0.0,0.0,0.0,0.0,0.0,0.0,0.0,0.0,0.0,0.0,0.0,0.0,0.0,0.0,0.0,0.0,0.0,1.4299,1.4299,1.4299,1.4299,1.4299,1.4299,1.4299,1.4299,1.4299,1.4299,1.4299,1.4299,0.0,0.0,0.0,0.0,1.4299,1.4414,1.4489,1.4509,1.476,1.4916,0.0,0.0,0.0,0.0,0.0,0.0,0.0,0.0,0.0,1.5181,1.5181,1.5181,1.5181,1.5181,1.5181,1.5181,1.5181,1.5181,1.5181,1.5181,1.5181,1.5181,1.5181,1.5181,1.5181,1.5181,1.5371,1.5601,1.5635,1.5832,1.6049,1.6076,1.6083,1.6083,1.609,1.609,1.6103,1.6137,1.4713,1.2069,0.7437,0.3016,0.0,0.0,0.0,0.0,0.0,0.0,0.0,0.0,0.0,0.0,0.0,0.0,0.0,0.0,0.0,0.0,0.0,0.0,0.0,0.0,0.0,0.0,0.0,0.0,0.0,0.0,0.0,0.0,0.0,0.0,0.0,0.0,0.0,0.0,0.0,0.0,0.0,0.0,0.0,0.0,0.0,0.0,0.0,0.0,0.0,0.0,0.0,0.0,0.0,0.0,0.0,0.0,0.0,0.0,1.4299,1.4299,1.4299,1.4299,1.4299,1.4299,1.4299,1.4299,1.4299,1.4299,1.4299,1.4299,1.4299,1.4333,1.4407,1.4475,0.0,1.4746,1.4896,1.5004,1.5079,0.0,0.0,0.0,0.0,0.0,1.5181,0.0,1.5181,0.0,1.5181,1.5181,1.5181,1.5181,1.5181,1.5181,1.5181,1.5181,1.5181,1.5181,1.5181,1.5181,1.5181,1.5181,1.5194,1.5276,1.5459,1.5655,1.573,1.5906,1.6083,1.6083,1.6083,1.6083,1.6083,1.6083,1.609,1.6103,1.6123,1.5318,1.2679,1.007,0.6651,0.1008,0.0,0.0,0.0,0.0,0.0,0.0,0.0,0.0,0.0,0.0,0.0,0.0,0.0,0.0,0.0,0.0,0.0,0.0,0.0,0.0,0.0,0.0,0.0,0.0,0.0,0.0,0.0,0.0,0.0,0.0,0.0,0.0,0.0,0.0,0.0,0.0,0.0,0.0,0.0,0.0,0.0,0.0,0.0,0.0,0.0,0.0,1.4299,0.0,0.0,1.4299,0.0,1.4299,1.4299,1.4299,1.4299,1.4299,1.4299,1.4299,1.4299,1.4299,1.4299,1.4299,1.4312,1.434,1.4346,1.4407,1.4557,1.459,1.4726,1.4964,1.5004,1.5072,0.0,0.0,0.0,1.5181,0.0,0.0,1.5181,1.5181,1.5181,1.5181,1.5181,1.5181,1.5181,1.5181,1.5181,1.5181,1.5181,1.5181,1.5181,1.5181,1.5181,1.5187,1.5221,1.5228,1.5255,1.5371,1.554,1.571,1.5818,1.5961,1.6083,1.6083,1.6083,1.6083,1.6083,1.6083,1.6083,1.6083,1.6103,1.6123,1.6123,1.5157,1.1526,0.1816,0.0,0.0,0.0,0.0,0.0,0.0,0.0,0.0,0.0,0.0,0.0,0.0,0.0,0.0,0.0,0.0,0.0,0.0,0.0,0.0,0.0,0.0,0.0,0.0,0.0,0.0,0.0,0.0,0.0,0.0,0.0,0.0,0.0,0.0,0.0,0.0,0.0,0.0,0.0,0.0,0.0,0.0,0.0,0.0,0.0,0.0,0.0,0.0,0.0,0.0,0.0,1.4299,1.4299,1.4299,1.4299,1.4299,1.4299,1.4299,1.4299,1.4299,1.4299,1.4299,1.4353,1.4482,1.4489,1.4557,1.4713,1.4855,1.4943,1.497,1.5099,1.5167,0.0,0.0,1.5181,1.5181,1.5181,1.5181,1.5181,1.5181,1.5181,1.5181,1.5181,1.5181,1.5181,1.5181,1.5181,1.5181,1.5181,1.5181,1.5181,1.5181,1.5181,1.5201,1.5343,1.5391,1.5391,1.5404,1.5608,1.5839,1.5852,1.5961,1.6083,1.6083,1.6083,1.6083,1.6083,1.6083,1.6083,1.6083,1.6083,1.609,1.609,1.2263,0.7038,0.1006,0.0,0.0,0.0,0.0,0.0,0.0,0.0,0.0,0.0,0.0,0.0,0.0,0.0,0.0,0.0,0.0,0.0,0.0,0.0,0.0,0.0,0.0,0.0,0.0,0.0,0.0,0.0,0.0,0.0,0.0,0.0,0.0,0.0,0.0,0.0,0.0,0.0,0.0,0.0,0.0,0.0,0.0,0.0,0.0,0.0,0.0,0.0,0.0,0.0,0.0,0.0,0.0,1.4299,1.4299,1.4299,1.4299,1.4299,1.4299,1.4299,1.4333,1.4421,1.4428,1.4489,1.4638,1.4652,1.4719,1.4869,1.4936,1.5011,1.5099,1.5153,1.5181,0.0,0.0,0.0,0.0,1.5181,1.5181,1.5181,1.5181,1.5181,1.5181,1.5181,1.5181,1.5181,1.5181,1.5181,1.5181,1.5181,1.5181,1.5181,1.5181,1.5242,1.533,1.5391,1.5411,1.5445,1.5622,1.5757,1.5872,1.5961,1.6035,1.6083,1.6083,1.6083,1.6083,1.6083,1.6083,1.6083,1.6083,1.6083,1.6083,1.6083,1.4283,1.0253,0.1608,0.0,0.0,0.0,0.0,0.0,0.0,0.0,0.0,0.0,0.0,0.0,0.0,0.0,0.0,0.0,0.0,0.0,0.0,0.0,0.0,0.0,0.0,0.0,0.0,0.0,0.0,0.0,0.0,0.0,0.0,0.0,0.0,0.0,0.0,0.0,0.0,0.0,0.0,0.0,0.0,0.0,0.0,0.0,0.0,0.0,1.7763,0.0,1.4299,0.0,1.4299,1.4312,1.4353,1.436,1.438,1.4421,1.4428,1.4414,1.4367,1.4401,1.4468,1.457,1.4577,1.4645,1.4801,1.4808,1.4875,1.5025,1.5031,0.0,1.5181,1.5181,1.5181,1.5181,1.5181,0.0,1.5181,1.5181,1.5181,1.5181,1.5181,1.5181,1.5181,1.5181,1.5181,1.5181,1.5181,1.5181,1.5181,1.5181,1.5181,1.5187,1.5235,1.5316,1.5425,1.5513,1.554,1.5574,1.5791,1.5886,1.594,1.6049,1.6083,1.6083,1.6083,1.6083,1.6083,1.6083,1.6083,1.6083,1.6083,1.6083,1.6083,1.6083,1.611,1.3695,0.6233,0.2212,0.0,0.0,0.0,0.0,0.0,0.0,0.0,0.0,0.0,0.0,0.0,0.0,0.0,0.0,0.0,0.0,0.0,0.0,0.0,0.0,0.0,0.0,0.0,0.0,0.0,0.0,0.0,0.0,0.0,0.0,0.0,0.0,0.0,0.0,0.0,0.0,0.0,0.0,0.0,0.0,0.0,0.0,0.0,0.0,1.7763,1.5858,1.4299,1.4299,1.4299,1.4346,1.4489,1.4509,1.4563,1.4713,1.4733,1.4679,1.4523,1.4645,1.4733,1.4733,1.4733,1.4801,1.4957,1.497,1.5031,0.0,0.0,1.5181,1.5181,1.5181,1.5181,1.5181,0.0,1.5181,1.5181,1.5181,1.5181,1.5181,1.5181,1.5181,1.5181,1.5181,1.5181,1.5181,1.5181,1.5181,1.5181,1.5181,1.5181,1.5201,1.5357,1.5411,1.5452,1.575,1.5845,1.5845,1.5852,1.5954,1.6083,1.6083,1.6083,1.6083,1.6083,1.6083,1.6083,1.6083,1.6083,1.6083,1.6083,1.6083,1.6083,1.6083,1.611,1.6144,1.5984,0.7245,0.0,0.0,0.0,0.0,0.0,0.0,0.0,0.0,0.0,0.0,0.0,0.0,0.0,0.0,0.0,0.0,0.0,0.0,0.0,0.0,0.0,0.0,0.0,0.0,0.0,0.0,0.0,0.0,0.0,0.0,0.0,0.0,0.0,0.0,0.0,0.0,0.0,0.0,0.0,0.0,0.0,0.0,0.0,0.0,2.2439,2.0831,1.935,1.935,1.8059,1.7103,1.715,1.5738,1.4685,1.4733,1.4835,1.4882,1.4828,1.4774,1.478,1.4889,1.4896,1.4957,1.5106,1.5113,1.5133,1.5181,1.5181,1.5181,1.5181,1.5181,1.5181,1.5181,1.5181,1.5181,1.5181,1.5181,1.5181,1.5181,1.5181,1.5181,1.5181,1.5181,1.5181,1.5181,1.5181,1.5181,1.5181,1.5181,1.5181,1.5201,1.5357,1.5479,1.5594,1.5791,1.592,1.6008,1.6008,1.6042,1.6083,1.6083,1.6083,1.6083,1.6083,1.6083,1.6083,1.6083,1.6083,1.6083,1.6083,1.6083,1.6083,1.6083,1.609,1.611,1.6151,1.0262,0.4222,0.0604,0.0,0.0,0.0,0.0,0.0,0.0,0.0,0.0,0.0,0.0,0.0,0.0,0.0,0.0,0.0,0.0,0.0,0.0,0.0,0.0,0.0,0.0,0.0,0.0,0.0,0.0,0.0,0.0,0.0,0.0,0.0,0.0,0.0,0.0,0.0,0.0,0.0,0.0,0.0,0.0,0.0,0.0,2.4961,2.3337,2.1852,2.1852,2.0018,1.8338,1.8414,1.6446,1.4848,1.4896,1.4991,1.5052,1.5052,1.4964,1.4943,1.5038,1.5052,1.5086,1.5174,1.5181,1.5181,1.5181,1.5181,1.5181,1.5181,1.5181,1.5181,1.5181,1.5181,1.5181,1.5181,1.5181,1.5181,1.5181,1.5181,1.5181,1.5181,1.5181,1.5181,1.5181,1.5181,1.5181,1.5181,1.5181,1.5215,1.5289,1.5445,1.5594,1.5744,1.5893,1.6001,1.6083,1.6083,1.6083,1.6083,1.6083,1.6083,1.6083,1.6083,1.6083,1.6083,1.6083,1.6083,1.6083,1.6083,1.6083,1.6083,1.6083,1.6083,1.609,1.6123,1.3301,0.8654,0.1207,0.0,0.0,0.0,0.0,0.0,0.0,0.0,0.0,0.0,0.0,0.0,0.0,0.0,0.0,0.0,0.0,0.0,0.0,0.0,0.0,0.0,0.0,0.0,0.0,0.0,0.0,0.0,0.0,0.0,0.0,0.0,0.0,0.0,0.0,0.0,0.0,0.0,0.0,0.0,0.0,0.0,0.0,2.577,2.4041,2.2621,2.2443,2.0308,1.8595,1.8592,1.6627,1.5031,1.5167,1.5181,1.5181,1.5181,1.5181,1.5181,1.5181,1.5181,1.5181,1.5181,1.5181,1.5181,1.5181,1.5181,1.5181,1.5181,1.5181,1.5181,1.5181,1.5181,1.5181,1.5181,1.5181,1.5181,1.5181,1.5181,1.5181,1.5181,1.5181,1.5181,1.5181,1.5181,1.5181,1.5181,1.5194,1.5289,1.5432,1.5594,1.5737,1.5879,1.6029,1.6083,1.6083,1.6083,1.6083,1.6083,1.6083,1.6083,1.6083,1.6083,1.6083,1.6083,1.6083,1.6083,1.6083,1.6083,1.6083,1.6083,1.6083,1.6083,1.609,1.6123,1.6171,1.2716,0.2212,0.0199,0.0,0.0,0.0,0.0,0.0,0.0,0.0,0.0,0.0,0.0,0.0,0.0,0.0,0.0,0.0,0.0,0.0,0.0,0.0,0.0,0.0,0.0,0.0,0.0,0.0,0.0,0.0,0.0,0.0,0.0,0.0,0.0,0.0,0.0,0.0,0.0,0.0,0.0,0.0,0.0,0.0,2.8134,2.7951,2.7194,2.5213,2.3007,2.0951,1.9164,1.6793,1.5147,1.5181,1.5181,1.5181,1.5181,1.5181,1.5181,1.5181,1.5181,1.5181,1.5181,1.5181,1.5181,1.5181,1.5181,1.5181,1.5181,1.5181,1.5181,1.5181,1.5181,1.5181,1.5181,1.5181,1.5181,1.5181,1.5181,1.5181,1.5181,1.5181,1.5181,1.5181,1.5181,1.5181,1.5194,1.5309,1.5377,1.5445,1.571,1.5825,1.5879,1.6029,1.6083,1.6083,1.6083,1.6083,1.6083,1.6083,1.6083,1.6083,1.6083,1.6083,1.6083,1.6083,1.6083,1.6083,1.6083,1.6083,1.6083,1.6083,1.6083,1.6083,1.609,1.6151,1.3942,0.7236,0.2593,0.0,0.0,0.0,0.0,0.0,0.0,0.0,0.0,0.0,0.0,0.0,0.0,0.0,0.0,0.0,0.0,0.0,0.0,0.0,0.0,0.0,0.0,0.0,0.0,0.0,0.0,0.0,0.0,0.0,0.0,0.0,0.0,0.0,0.0,0.0,0.0,0.0,0.0,0.0,0.0,0.0,2.9419,2.9566,2.9317,2.785,2.5774,2.3289,2.0899,1.8507,1.6471,1.5368,1.5181,1.5181,1.5181,1.5181,1.5181,1.5181,1.5181,1.5181,1.5181,1.5181,1.5181,1.5181,1.5181,1.5181,1.5181,1.5181,1.5181,1.5181,1.5181,1.5181,1.5181,1.5181,1.5181,1.5181,1.5181,1.5181,1.5181,1.5181,1.5181,1.5181,1.5181,1.5181,1.5201,1.535,1.5452,1.5547,1.5771,1.59,1.5967,1.6056,1.6083,1.6083,1.6083,1.6083,1.6083,1.6083,1.6083,1.6083,1.6083,1.6083,1.6083,1.6083,1.6083,1.6083,1.6083,1.6083,1.6083,1.6083,1.6083,1.6083,1.6083,1.6144,1.4349,0.8851,0.3598,0.0,0.0,0.0,0.0,0.0,0.0,0.0,0.0,0.0,0.0,0.0,0.0,0.0,0.0,0.0,0.0,0.0,0.0,0.0,0.0,0.0,0.0,0.0,0.0,0.0,0.0,0.0,0.0,0.0,0.0,0.0,0.0,0.0,0.0,0.0,0.0,0.0,0.0,0.0,0.0,0.0,2.9873,2.9913,2.9734,2.9362,2.7521,2.5309,2.2933,2.0529,1.8135,1.6104,1.5368,1.5181,1.5181,1.5181,1.5181,1.5181,1.5181,1.5181,1.5181,1.5181,1.5181,1.5181,1.5181,1.5181,1.5181,1.5181,1.5181,1.5181,1.5181,1.5181,1.5181,1.5181,1.5181,1.5181,1.5181,1.5181,1.5181,1.5181,1.5181,1.5181,1.5181,1.5194,1.5235,1.5384,1.554,1.5689,1.5832,1.5967,1.6083,1.6083,1.6083,1.6083,1.6083,1.6083,1.6083,1.6083,1.6083,1.6083,1.6083,1.6083,1.6083,1.6083,1.6083,1.6083,1.6083,1.6083,1.6083,1.6083,1.6083,1.6083,1.6083,1.6144,1.4343,0.8847,0.3401,0.0,0.0,0.0,0.0,0.0,0.0,0.0,0.0,0.0,0.0,0.0,0.0,0.0,0.0,0.0,0.0,0.0,0.0,0.0,0.0,0.0,0.0,0.0,0.0,0.0,0.0,0.0,0.0,0.0,0.0,0.0,0.0,0.0,0.0,0.0,0.0,0.0,0.0,0.0,0.0,0.0,2.9913,2.9913,2.9182,2.7148,2.6411,2.5309,2.2923,2.0529,1.8685,1.8313,1.6471,1.5181,1.5181,1.5181,1.5181,1.5181,1.5181,1.5181,1.5181,1.5181,1.5181,1.5181,1.5181,1.5181,1.5181,1.5181,1.5181,1.5181,1.5181,1.5181,1.5181,1.5181,1.5181,1.5181,1.5181,1.5181,1.5181,1.5181,1.5181,1.5181,1.5181,1.5262,1.5391,1.5547,1.5696,1.5839,1.5995,1.6062,1.6083,1.6083,1.6083,1.6083,1.6083,1.6083,1.6083,1.6083,1.6083,1.6083,1.6083,1.6083,1.6083,1.6083,1.6083,1.6083,1.6083,1.6083,1.6083,1.6083,1.6083,1.6083,1.6083,1.6117,1.4307,0.8847,0.3414,0.0,0.0,0.0,0.0,0.0,0.0,0.0,0.0,0.0,0.0,0.0,0.0,0.0,0.0,0.0,0.0,0.0,0.0,0.0,0.0,0.0,0.0,0.0,0.0,0.0,0.0,0.0,0.0,0.0,0.0,0.0,0.0,0.0,0.0,0.0,0.0,0.0,0.0,0.0,0.0,0.0,2.9913,2.9913,2.9541,2.8436,2.8256,2.7341,2.4945,2.3473,2.181,1.9233,1.7949,1.6658,1.5368,1.5181,1.5181,1.5181,1.5181,1.5181,1.5181,1.5181,1.5181,1.5181,1.5181,1.5181,1.5181,1.5181,1.5181,1.5181,1.5181,1.5181,1.5181,1.5181,1.5181,1.5181,1.5181,1.5181,1.5181,1.5181,1.5181,1.5181,1.5181,1.5276,1.5425,1.5581,1.573,1.5872,1.6029,1.6083,1.6083,1.6083,1.6083,1.6083,1.6083,1.6083,1.6083,1.6083,1.6083,1.6083,1.6083,1.6083,1.6083,1.6083,1.6083,1.6083,1.6083,1.6083,1.6083,1.6083,1.6083,1.6083,1.6083,1.611,1.5325,1.2706,0.5429,0.0,0.0,0.0,0.0,0.0,0.0,0.0,0.0,0.0,0.0,0.0,0.0,0.0,0.0,0.0,0.0,0.0,0.0,0.0,0.0,0.0,0.0,0.0,0.0,0.0,0.0,0.0,0.0,0.0,0.0,0.0,0.0,0.0,0.0,0.0,0.0,0.0,0.0,0.0,0.0,0.0,2.9913,2.9913,2.9913,2.9913,2.9913,2.9182,2.7341,2.6592,2.4934,2.1074,1.9604,1.8135,1.6292,1.5556,1.5181,1.5181,1.5181,1.5181,1.5181,1.5181,1.5181,1.5181,1.5181,1.5181,1.5181,1.5181,1.5181,1.5181,1.5181,1.5181,1.5181,1.5181,1.5181,1.5181,1.5181,1.5181,1.5181,1.5181,1.5181,1.5181,1.5181,1.5296,1.5479,1.5594,1.575,1.592,1.6042,1.6083,1.6083,1.6083,1.6083,1.6083,1.6083,1.6083,1.6083,1.6083,1.6083,1.6083,1.6083,1.6083,1.6083,1.6083,1.6083,1.6083,1.6083,1.6083,1.6083,1.6083,1.6083,1.6083,1.6083,1.6103,1.6137,1.6191,0.8052,0.1409,0.0202,0.0,0.0,0.0,0.0,0.0,0.0,0.0,0.0,0.0,0.0,0.0,0.0,0.0,0.0,0.0,0.0,0.0,0.0,0.0,0.0,0.0,0.0,0.0,0.0,0.0,0.0,0.0,0.0,0.0,0.0,0.0,0.0,0.0,0.0,0.0,0.0,0.0,0.0,0.0,2.9913,2.9913,2.9913,2.9913,2.9913,2.9913,2.9734,2.7702,2.6048,2.5673,2.1626,1.8871,1.8685,1.6658,1.5181,1.5181,1.5181,1.5181,1.5181,1.5181,1.5181,1.5181,1.5181,1.5181,1.5181,1.5181,1.5181,1.5181,1.5181,1.5181,1.5181,1.5181,1.5181,1.5181,1.5181,1.5181,1.5181,1.5181,1.5181,1.5181,1.5181,1.5357,1.5622,1.5635,1.5818,1.6069,1.6076,1.6083,1.6083,1.6083,1.6083,1.6083,1.6083,1.6083,1.6083,1.6083,1.6083,1.6083,1.6083,1.6083,1.6083,1.6083,1.6083,1.6083,1.6083,1.6083,1.6083,1.6083,1.6083,1.6083,1.6083,1.6083,1.611,1.6191,1.1282,0.5633,0.0606,0.0,0.0,0.0,0.0,0.0,0.0,0.0,0.0,0.0,0.0,0.0,0.0,0.0,0.0,0.0,0.0,0.0,0.0,0.0,0.0,0.0,0.0,0.0,0.0,0.0,0.0,0.0,0.0,0.0,0.0,0.0,0.0,0.0,0.0,0.0,0.0,0.0,0.0,0.0,2.9913,2.9913,2.9913,2.9913,2.9913,2.9913,2.9913,2.9182,2.7883,2.6411,2.4569,2.2912,2.1267,1.8871,1.7584,1.7584,1.6104,1.5181,1.5181,1.5181,1.5181,1.5181,1.5181,1.5181,1.5181,1.5181,1.5181,1.5181,1.5181,1.5181,1.5181,1.5181,1.5181,1.5181,1.5181,1.5181,1.5181,1.5181,1.5181,1.5181,1.5181,1.5364,1.5642,1.5642,1.5825,1.6083,1.6083,1.6083,1.6083,1.6083,1.6083,1.6083,1.6083,1.6083,1.6083,1.6083,1.6083,1.6083,1.6083,1.6083,1.6083,1.6083,1.6083,1.6083,1.6083,1.6083,1.6083,1.6083,1.6083,1.6083,1.6083,1.6083,1.611,1.6185,1.1488,0.6034,0.0808,0.0,0.0,0.0,0.0,0.0,0.0,0.0,0.0,0.0,0.0,0.0,0.0,0.0,0.0,0.0,0.0,0.0,0.0,0.0,0.0,0.0,0.0,0.0,0.0,0.0,0.0,0.0,0.0,0.0,0.0,0.0,0.0,0.0,0.0,0.0,0.0,0.0,0.0,0.0,2.9913,2.9913,2.9913,2.9913,2.9913,2.9913,2.9913,2.9913,2.9362,2.7521,2.6604,2.5491,2.3838,2.0899,1.8871,1.8871,1.6658,1.5181,1.5181,1.5181,1.5181,1.5181,1.5181,1.5181,1.5181,1.5181,1.5181,1.5181,1.5181,1.5181,1.5181,1.5181,1.5181,1.5181,1.5181,1.5181,1.5181,1.5181,1.5181,1.5181,1.5181,1.5364,1.5642,1.5642,1.5825,1.6083,1.6083,1.6083,1.6083,1.6083,1.6083,1.6083,1.6083,1.6083,1.6083,1.6083,1.6083,1.6083,1.6083,1.6083,1.6083,1.6083,1.6083,1.6083,1.6083,1.6083,1.6083,1.6083,1.6083,1.6083,1.6083,1.6083,1.611,1.6185,1.1488,0.6034,0.0808,0.0,0.0,0.0,0.0,0.0,0.0,0.0,0.0,0.0,0.0,0.0,0.0,0.0,0.0,0.0,0.0,0.0,0.0,0.0,0.0,0.0,0.0,0.0,0.0,0.0,0.0,0.0,0.0,0.0,0.0,0.0,0.0,0.0,0.0,0.0,0.0,0.0,0.0,0.0,2.9913,2.9913,2.9913,2.9913,2.9913,2.9913,2.9913,2.9913,2.9913,2.9913,2.7702,2.6229,2.6229,2.181,1.8871,1.8871,1.6658,1.5181,1.5181,1.5181,1.5181,1.5181,1.5181,1.5181,1.5181,1.5181,1.5181,1.5181,1.5181,1.5181,1.5181,1.5181,1.5181,1.5181,1.5181,1.5181,1.5181,1.5181,1.5181,1.5181,1.5181,1.5364,1.5635,1.5642,1.5825,1.6083,1.6083,1.6083,1.6083,1.6083,1.6083,1.6083,1.6083,1.6083,1.6083,1.6083,1.6083,1.6083,1.6083,1.6083,1.6083,1.6083,1.6083,1.6083,1.6083,1.6083,1.6083,1.6083,1.6083,1.6083,1.6083,1.6083,1.611,1.6185,1.1488,0.6034,0.0808,0.0,0.0,0.0,0.0,0.0,0.0,0.0,0.0,0.0,0.0,0.0,0.0,0.0,0.0,0.0,0.0,0.0,0.0,0.0,0.0,0.0,0.0,0.0,0.0,0.0,0.0,0.0,0.0,0.0,0.0,0.0,0.0,0.0,0.0,0.0,0.0,0.0,0.0,0.0,2.9913,2.9913,2.9913,2.9913,2.9913,2.9913,2.9913,2.9913,2.9913,2.9913,2.9182,2.8809,2.8809,2.5866,2.3289,2.1636,1.9242,1.7025,1.5368,1.5181,1.5181,1.5181,1.5181,1.5181,1.5181,1.5181,1.5181,1.5181,1.5181,1.5181,1.5181,1.5181,1.5181,1.5181,1.5181,1.5181,1.5181,1.5181,1.5181,1.5181,1.5181,1.5303,1.5493,1.5601,1.5757,1.5934,1.6042,1.6083,1.6083,1.6083,1.6083,1.6083,1.6083,1.6083,1.6083,1.6083,1.6083,1.6083,1.6083,1.6083,1.6083,1.6083,1.6083,1.6083,1.6083,1.6083,1.6083,1.6083,1.6083,1.6083,1.6083,1.6083,1.611,1.6185,1.1624,0.6175,0.08,0.0,0.0,0.0,0.0,0.0,0.0,0.0,0.0,0.0,0.0,0.0,0.0,0.0,0.0,0.0,0.0,0.0,0.0,0.0,0.0,0.0,0.0,0.0,0.0,0.0,0.0,0.0,0.0,0.0,0.0,0.0,0.0,0.0,0.0,0.0,0.0,0.0,0.0,0.0,2.9913,2.9913,2.9913,2.9913,2.9913,2.9913,2.9913,2.9913,2.9913,2.9913,2.9913,2.9913,2.9913,2.7702,2.5673,2.4021,2.182,1.9242,1.6845,1.6658,1.6292,1.5181,1.5181,1.5181,1.5181,1.5181,1.5181,1.5181,1.5181,1.5181,1.5181,1.5181,1.5181,1.5181,1.5181,1.5181,1.5181,1.5181,1.5181,1.5181,1.5181,1.5276,1.5418,1.5513,1.5642,1.5791,1.594,1.5995,1.6001,1.6062,1.6083,1.6083,1.6083,1.6083,1.6083,1.6083,1.6083,1.6083,1.6083,1.6083,1.6083,1.6083,1.6083,1.6083,1.6083,1.6083,1.6083,1.6083,1.6083,1.6083,1.6083,1.6035,1.6015,1.6103,1.153,0.6114,0.0792,0.0,0.0,0.0,0.0,0.0,0.0,0.0,0.0,0.0,0.0,0.0,0.0,0.0,0.0,0.0,0.0,0.0,0.0,0.0,0.0,0.0,0.0,0.0,0.0,0.0,0.0,0.0,0.0,0.0,0.0,0.0,0.0,0.0,0.0,0.0,0.0,0.0,0.0,0.0,2.9913,2.9913,2.9913,2.9913,2.9913,2.9913,2.9913,2.9913,2.9913,2.9913,2.9913,2.9913,2.9913,2.7883,2.6411,2.6229,2.3838,2.1636,1.9419,1.9056,1.7949,1.5549,1.5368,1.5181,1.5181,1.5181,1.5181,1.5181,1.5181,1.5181,1.5181,1.5181,1.5181,1.5181,1.5181,1.5181,1.5181,1.5181,1.5181,1.5181,1.5181,1.5269,1.5391,1.5404,1.5499,1.5635,1.5784,1.5832,1.5852,1.5995,1.6042,1.6042,1.6042,1.6042,1.6042,1.6042,1.6042,1.6042,1.6042,1.6042,1.6042,1.6042,1.6042,1.6049,1.6076,1.6083,1.6076,1.6062,1.6062,1.6056,1.6042,1.5927,1.5859,1.5947,1.1618,0.6053,0.0784,0.0,0.0,0.0,0.0,0.0,0.0,0.0,0.0,0.0,0.0,0.0,0.0,0.0,0.0,0.0,0.0,0.0,0.0,0.0,0.0,0.0,0.0,0.0,0.0,0.0,0.0,0.0,0.0,0.0,0.0,0.0,0.0,0.0,0.0,0.0,0.0,0.0,0.0,0.0,2.9913,2.9913,2.9913,2.9913,2.9913,2.9913,2.9913,2.9913,2.9913,2.9913,2.9913,2.9913,2.9913,2.9362,2.8256,2.6411,2.3838,2.2188,2.182,1.9974,1.8685,1.8135,1.6292,1.5181,1.5181,1.5181,1.5181,1.5181,1.5181,1.5181,1.5181,1.5181,1.5181,1.5181,1.5181,1.5181,1.5181,1.5181,1.5181,1.5181,1.5181,1.5201,1.5248,1.5364,1.5432,1.5479,1.5628,1.5683,1.5689,1.5723,1.5737,1.5737,1.5737,1.5737,1.5737,1.5737,1.5737,1.5737,1.5737,1.5737,1.5737,1.5737,1.5737,1.5798,1.6029,1.6083,1.6049,1.5927,1.59,1.5866,1.5757,1.571,1.571,1.5778,1.1309,0.6188,0.0776,0.0,0.0,0.0,0.0,0.0,0.0,0.0,0.0,0.0,0.0,0.0,0.0,0.0,0.0,0.0,0.0,0.0,0.0,0.0,0.0,0.0,0.0,0.0,0.0,0.0,0.0,0.0,0.0,0.0,0.0,0.0,0.0,0.0,0.0,0.0,0.0,0.0,0.0,0.0,2.9913,2.9913,2.9913,2.9913,2.9913,2.9913,2.9913,2.9913,2.9913,2.9913,2.9913,2.9913,2.9913,2.9913,2.9362,2.8076,2.6785,2.4945,2.2739,2.2372,2.0899,1.7211,1.7032,1.6479,1.5181,1.5181,1.5181,1.5181,1.5181,1.5181,1.5181,1.5181,1.5181,1.5181,1.5181,1.5181,1.5181,1.5181,1.5181,1.5181,1.5181,1.5181,1.5194,1.5269,1.5303,1.5323,1.5479,1.5581,1.5642,1.5642,1.5642,1.5642,1.5642,1.5642,1.5642,1.5642,1.5642,1.5642,1.5642,1.5642,1.5642,1.5642,1.5642,1.5683,1.5839,1.5872,1.5845,1.5764,1.575,1.573,1.5655,1.5581,1.5547,1.5601,1.1185,0.5934,0.0767,0.0,0.0,0.0,0.0,0.0,0.0,0.0,0.0,0.0,0.0,0.0,0.0,0.0,0.0,0.0,0.0,0.0,0.0,0.0,0.0,0.0,0.0,0.0,0.0,0.0,0.0,0.0,0.0,0.0,0.0,0.0,0.0,0.0,0.0,0.0,0.0,0.0,0.0,0.0,2.9913,2.9913,2.9913,2.9913,2.9913,2.9913,2.9913,2.9913,2.9913,2.9913,2.9913,2.9913,2.9913,2.9913,2.9913,2.9913,2.9913,2.8076,2.4021,2.5309,2.3289,1.6658,1.7949,1.7763,1.5181,1.5181,1.5181,1.5181,1.5181,1.5181,1.5181,1.5181,1.5181,1.5181,1.5181,1.5181,1.5181,1.5181,1.5181,1.5181,1.5181,1.5181,1.5181,1.5181,1.5181,1.5201,1.5323,1.5452,1.556,1.556,1.556,1.556,1.556,1.556,1.556,1.556,1.556,1.556,1.556,1.556,1.556,1.556,1.556,1.556,1.556,1.5601,1.5635,1.5608,1.5601,1.5594,1.5567,1.5459,1.5384,1.5432,1.1667,0.6838,0.0761,0.0,0.0,0.0,0.0,0.0,0.0,0.0,0.0,0.0,0.0,0.0,0.0,0.0,0.0,0.0,0.0,0.0,0.0,0.0,0.0,0.0,0.0,0.0,0.0,0.0,0.0,0.0,0.0,0.0,0.0,0.0,0.0,0.0,0.0,0.0,0.0,0.0,0.0,0.0,2.9913,2.9913,2.9913,2.9913,2.9913,2.9913,2.9913,2.9913,2.9913,2.9913,2.9913,2.9913,2.9913,2.9913,2.9913,2.9913,2.9913,2.9554,2.8989,2.7148,2.4763,2.1636,1.9789,1.7763,1.5181,1.5181,1.5181,1.5181,1.5181,1.5181,1.5181,1.5181,1.5181,1.5181,1.5181,1.5181,1.5181,1.5181,1.5181,1.5181,1.5181,1.5181,1.5181,1.5181,1.5181,1.5187,1.5208,1.5228,1.5242,1.5242,1.5242,1.5242,1.5242,1.5242,1.5242,1.5242,1.5242,1.5242,1.5242,1.5242,1.5242,1.5242,1.5242,1.5242,1.5242,1.5452,1.5601,1.5466,1.5445,1.5404,1.5269,1.5228,1.5235,1.5309,1.4728,1.0868,0.1334,0.0,0.0,0.0,0.0,0.0,0.0,0.0,0.0,0.0,0.0,0.0,0.0,0.0,0.0,0.0,0.0,0.0,0.0,0.0,0.0,0.0,0.0,0.0,0.0,0.0,0.0,0.0,0.0,0.0,0.0,0.0,0.0,0.0,0.0,0.0,0.0,0.0,0.0,0.0,2.9913,2.9913,2.9913,2.9913,2.9913,2.9913,2.9913,2.9913,2.9913,2.9913,2.9913,2.9913,2.9913,2.9913,2.9913,2.9913,2.9913,2.9362,2.7883,2.6785,2.4569,2.0714,1.9419,1.7763,1.5181,1.5181,1.5181,1.5181,1.5181,1.5181,1.5181,1.5181,1.5181,1.5181,1.5181,1.5181,1.5181,1.5181,1.5181,1.5181,1.5181,1.5181,1.5181,1.5181,1.5181,1.5181,1.5181,1.5181,1.5181,1.5181,1.5181,1.5181,1.5181,1.5181,1.5181,1.5181,1.5181,1.5181,1.5181,1.5181,1.5181,1.5181,1.5181,1.5181,1.5181,1.5289,1.5364,1.5296,1.5282,1.5262,1.5194,1.5181,1.5201,1.5262,1.2767,1.0289,0.8782,0.3626,0.0,0.0,0.0,0.0,0.0,0.0,0.0,0.0,0.0,0.0,0.0,0.0,0.0,0.0,0.0,0.0,0.0,0.0,0.0,0.0,0.0,0.0,0.0,0.0,0.0,0.0,0.0,0.0,0.0,0.0,0.0,0.0,0.0,0.0,0.0,0.0,0.0,0.0]}]]